GFSCGP_500_rhum_000.txt.gz
RH
2 2 4 12 16 30 81 87 86 82 76 70 69 62 54 45 36 25 8 4 5 6 5 4 4 4 3 3 3 3 3 2 14 29 7 5 14 4 12 2 26 20 12 8
2 2 8 20 25 28 66 81 82 83 84 82 87 72 66 59 50 33 34 37 10 10 9 8 6 4 3 3 3 3 4 4 5 9 6 12 16 5 5 5 15 13 12 11
2 3 9 12 14 25 38 70 85 94 79 86 90 78 64 66 68 55 64 64 61 33 17 16 16 11 4 2 2 3 4 4 10 13 20 17 15 14 8 10 14 11 10 12
2 2 3 8 8 16 29 34 88 90 94 84 71 92 83 80 52 48 58 67 75 78 74 56 48 28 22 4 3 3 5 6 7 14 10 10 7 6 7 8 8 8 9 9
2 1 2 4 4 12 16 59 51 84 94 98 100 92 90 67 64 58 64 61 62 64 65 68 59 45 30 12 6 3 4 6 7 9 8 6 6 7 8 8 8 9 10 14
3 3 2 3 8 16 23 64 68 72 86 87 91 95 74 83 47 65 75 68 67 64 62 67 64 50 54 47 29 12 5 4 6 7 7 7 7 7 8 13 14 12 15 15
3 2 3 2 6 29 27 46 52 74 79 81 90 91 44 81 68 50 69 67 72 82 72 66 70 48 35 31 46 44 25 5 7 8 10 12 14 12 19 14 14 17 20 22
3 3 3 2 4 18 19 24 64 70 67 72 87 77 35 18 52 49 56 65 72 78 53 56 54 61 38 42 27 38 44 21 11 11 13 21 24 22 18 15 15 16 19 20
4 3 4 3 3 16 26 34 51 69 69 61 58 54 12 32 48 51 55 66 71 72 59 66 65 46 45 27 22 24 28 38 30 29 26 27 22 15 15 18 22 42 56 33
6 6 5 4 4 7 37 31 56 67 70 70 67 69 69 33 45 57 57 58 60 61 60 59 59 57 53 28 22 16 13 18 30 30 26 18 16 26 34 40 41 39 89 77
9 7 17 7 4 3 13 60 50 71 72 66 71 66 68 25 43 63 70 59 62 64 64 62 61 65 65 43 36 37 11 16 26 25 25 37 42 41 44 36 79 86 86 77
11 14 10 6 5 4 31 37 65 64 55 72 66 56 61 65 23 40 60 67 65 53 54 63 56 61 62 50 33 20 8 13 23 31 42 50 42 38 39 43 98 92 70 83
30 17 58 15 28 19 23 42 53 65 70 66 73 65 62 62 19 26 43 42 44 38 50 58 60 53 52 50 38 25 23 36 47 54 57 56 59 61 62 72 78 66 65 78
18 43 16 41 25 33 21 5 36 53 64 62 63 70 69 57 9 21 35 46 43 54 67 65 62 65 54 40 44 37 40 40 50 59 60 61 61 68 82 87 83 78 70 74
32 26 81 26 28 68 61 48 22 32 40 62 60 65 68 71 19 3 20 49 56 52 45 62 70 54 50 46 41 40 41 43 51 56 51 53 51 62 64 90 80 80 75 93
55 55 47 78 72 79 73 66 50 41 11 40 56 59 61 64 21 9 10 41 54 51 49 64 74 66 48 53 41 39 36 34 51 49 38 26 42 63 88 84 85 89 92 87
50 67 55 86 94 84 80 71 67 48 28 21 26 12 19 29 34 8 6 21 51 52 55 52 67 64 51 40 33 31 30 18 26 37 28 40 40 52 55 59 92 98 87 83
34 57 72 86 95 99 50 66 64 62 39 18 6 35 15 20 8 7 10 34 52 57 54 62 62 48 43 37 37 36 29 32 40 44 40 53 62 56 56 58 71 98 95 94
43 46 95 94 99 94 56 98 76 66 58 47 32 11 29 11 6 6 11 44 51 54 57 67 57 60 58 52 48 52 49 45 48 60 66 71 58 56 62 70 87 96 91 95
48 43 60 100 99 96 94 87 63 47 26 36 54 20 11 8 5 6 41 49 52 59 59 52 56 65 63 64 63 61 57 49 48 52 57 59 59 59 68 94 96 98 100 88
41 42 58 100 89 60 44 62 60 67 28 44 12 12 17 13 6 19 46 51 56 60 56 51 49 64 67 71 69 66 56 54 52 53 57 69 75 82 96 79 85 83 55 79
49 37 53 76 68 56 26 66 64 49 35 36 28 24 34 13 9 39 49 52 52 57 59 56 57 59 57 63 70 60 57 56 52 53 64 84 94 98 96 78 59 69 55 59
70 50 73 28 31 33 44 59 77 57 50 48 48 36 27 50 28 45 50 52 52 56 59 58 59 61 62 68 71 69 58 58 62 52 70 75 99 100 75 67 65 64 39 52
49 54 46 37 26 21 27 39 58 68 54 51 50 54 49 54 53 52 61 62 56 55 60 62 62 62 64 64 68 70 59 58 52 64 62 55 52 44 44 65 73 47 40 32
44 52 45 39 25 26 63 81 95 66 68 55 61 60 71 69 78 67 71 90 78 74 72 72 72 84 78 72 73 67 59 59 60 64 72 45 38 36 36 50 54 40 38 42
60 48 49 41 35 24 40 91 95 80 79 80 64 86 78 73 69 85 91 78 94 88 86 88 90 87 81 66 64 61 59 65 58 59 66 51 30 26 31 35 34 41 40 46

GFSCGP_500_rhum_003.txt.gz
RH
2 3 3 16 28 40 74 77 70 82 94 26 78 82 53 40 21 6 3 2 2 3 4 3 3 2 2 3 5 5 4 2 0 11 27 3 9 10 3 4 5 16 10 7
1 2 5 21 43 40 75 74 80 86 84 90 81 94 95 74 34 14 2 4 5 4 3 3 3 3 3 3 3 3 4 4 1 9 5 2 6 8 2 2 4 16 14 14
2 2 4 12 34 47 71 73 74 75 76 97 88 98 91 92 55 37 22 11 7 9 12 11 7 2 2 2 2 2 3 4 4 7 24 24 24 13 15 7 6 8 7 8
2 2 2 6 14 28 58 74 79 75 93 98 85 85 98 71 86 31 39 38 32 26 34 29 27 20 13 6 1 1 2 3 4 12 10 14 24 8 6 6 7 8 20 9
2 2 2 2 3 22 33 66 77 81 80 86 91 79 95 98 86 74 40 41 33 29 39 56 58 51 39 24 7 0 1 3 5 6 18 16 12 12 7 6 7 8 11 13
2 2 3 2 2 7 27 65 73 69 75 77 85 92 77 90 96 90 80 47 40 40 46 50 59 64 57 49 27 7 0 0 2 4 11 10 24 18 9 6 7 16 14 13
4 3 2 3 2 2 28 60 68 68 67 64 74 88 86 90 79 92 83 99 78 50 52 56 59 58 61 38 35 38 36 16 2 1 3 7 12 15 13 14 17 18 15 14
5 4 3 3 2 3 7 29 57 68 64 63 68 70 69 85 85 82 93 82 94 65 48 59 59 61 58 35 29 23 25 41 41 13 6 12 13 17 24 21 19 15 12 11
6 4 6 3 3 3 13 22 46 59 62 58 58 63 76 92 93 82 78 78 81 76 54 72 57 58 49 37 19 17 18 22 40 32 16 16 21 28 22 16 18 16 24 42
6 12 19 7 8 3 6 25 45 57 57 58 55 57 62 72 63 73 78 77 84 88 58 69 57 60 53 54 36 23 18 16 17 36 38 35 30 22 16 28 26 32 56 61
6 6 29 47 4 3 3 8 51 57 58 54 57 57 56 70 91 72 77 71 78 89 58 58 59 60 62 68 48 31 29 20 9 15 29 28 24 23 38 34 39 36 68 67
8 8 8 20 28 28 30 17 33 57 60 56 54 54 66 65 68 74 75 77 87 88 56 60 64 62 52 53 53 56 30 12 9 16 25 26 26 44 39 43 40 43 57 76
31 11 18 34 42 35 9 8 23 36 57 60 61 55 64 73 66 72 74 73 75 93 98 63 54 54 57 52 63 40 31 16 6 9 9 29 41 32 29 46 42 48 58 75
24 62 18 41 30 45 41 21 32 36 40 44 59 65 71 67 70 72 63 74 79 89 79 66 50 48 57 56 64 38 32 26 18 19 21 25 31 31 29 42 45 39 63 83
16 13 49 16 72 70 50 39 38 35 39 46 52 61 65 69 74 72 69 37 45 65 50 45 64 66 64 60 65 45 32 28 26 26 15 20 31 24 27 26 39 42 56 65
16 26 65 70 71 70 68 57 43 41 37 40 48 56 60 68 83 80 71 40 31 60 78 47 39 46 59 66 60 46 40 30 35 19 16 27 15 35 43 48 53 53 62 67
20 79 90 86 86 89 80 48 63 59 52 43 41 33 50 59 67 68 70 73 27 10 31 54 37 34 60 67 66 61 42 33 31 19 19 40 49 48 57 67 76 86 76 82
95 85 94 96 98 94 25 72 84 73 68 61 51 46 46 45 48 66 69 69 44 7 16 52 30 41 53 63 66 57 46 29 23 28 28 44 52 67 79 82 88 83 77 97
24 34 76 100 94 63 59 96 74 79 74 69 73 62 48 56 58 40 32 15 49 16 51 50 45 51 49 64 57 49 34 26 26 36 41 50 55 61 79 84 70 72 88 96
28 20 42 100 98 91 78 96 67 70 49 72 78 73 52 60 76 67 48 8 3 11 36 39 52 53 52 60 54 50 39 45 50 63 71 63 62 56 62 66 66 80 97 96
30 31 22 38 92 96 93 53 80 81 86 93 56 50 62 61 79 90 50 5 17 5 36 50 54 54 64 67 61 66 65 67 71 75 74 65 65 57 60 58 71 93 100 99
29 28 25 84 100 96 76 82 87 79 78 68 62 46 48 75 84 69 34 12 18 16 37 48 54 58 58 61 61 71 73 68 69 77 68 69 69 60 54 55 64 72 74 99
36 31 54 99 95 81 91 88 36 53 52 64 76 76 63 52 26 33 32 20 18 27 44 47 56 58 56 56 60 61 67 68 81 87 81 75 68 58 52 51 55 70 70 60
92 100 95 98 71 99 84 67 38 18 32 62 69 82 58 50 31 47 35 22 40 38 45 48 54 56 57 58 59 63 65 66 72 79 88 93 66 59 61 60 75 79 54 53
93 99 100 67 58 45 38 30 20 20 23 46 83 75 53 57 41 43 40 47 51 45 47 48 50 55 59 60 64 66 68 72 84 77 79 80 74 73 68 72 70 65 53 43
96 94 95 86 36 29 33 26 22 34 30 35 61 88 65 67 63 43 51 55 52 61 62 57 57 62 64 64 64 66 72 78 78 73 78 69 71 73 74 73 63 43 39 43

GFSCGP_500_rhum_009.txt.gz
RH
1 1 2 2 4 11 36 36 50 73 78 92 92 78 92 52 34 27 8 3 2 3 1 2 1 1 1 2 2 2 2 2 1 0 8 21 21 10 12 6 0 7 13 21
1 1 1 2 5 16 27 26 45 78 89 90 86 75 79 58 48 29 8 2 2 2 3 2 1 0 1 2 4 4 4 4 4 4 4 7 2 5 5 2 4 10 10 6
2 2 2 2 2 5 27 28 45 78 92 81 97 92 73 91 91 89 10 5 4 2 2 2 2 3 3 3 3 3 3 3 3 4 3 9 28 25 16 11 5 6 6 9
2 2 1 2 2 3 8 32 42 80 95 92 87 91 98 99 91 84 20 41 14 12 3 3 2 2 2 2 1 1 1 1 2 2 3 12 12 12 13 9 10 8 8 12
3 2 2 1 2 3 2 33 55 76 85 84 83 97 70 99 79 62 83 74 36 23 12 13 7 7 8 9 6 3 2 1 0 1 2 3 14 16 23 14 8 14 14 15
3 3 3 2 2 2 3 15 40 70 74 83 79 88 77 93 76 95 89 80 83 65 45 19 34 36 33 29 28 30 29 23 13 2 1 2 7 11 22 16 21 24 16 16
4 3 3 3 2 2 5 6 19 52 63 57 76 82 50 78 94 79 78 72 83 75 54 42 32 52 39 38 48 54 52 37 37 19 3 0 4 6 6 8 12 18 16 9
6 4 3 3 3 2 5 8 5 5 22 30 40 67 51 54 81 84 85 95 89 93 81 76 64 70 58 52 54 56 59 51 34 24 27 12 2 2 2 7 11 16 20 26
10 6 4 4 4 4 4 5 10 13 24 28 21 37 52 57 61 71 86 89 70 88 88 82 90 87 56 49 54 63 50 35 31 22 15 24 30 30 25 10 18 17 46 29
15 12 7 6 6 6 5 7 16 19 19 17 10 35 22 54 60 60 63 73 80 79 89 69 85 74 44 46 48 49 36 34 21 12 11 14 23 37 37 25 16 24 22 23
23 16 12 8 8 7 6 5 11 16 20 18 29 6 26 53 65 67 62 62 66 62 56 48 58 63 43 49 48 50 38 36 32 15 14 10 10 13 27 14 21 27 19 36
34 28 18 12 10 14 10 7 10 9 12 22 22 6 16 56 62 62 62 66 72 70 67 55 64 70 48 54 46 40 40 47 46 17 14 6 6 9 14 18 25 24 21 22
56 37 34 20 18 15 18 23 11 15 12 6 17 3 16 47 58 77 68 90 77 89 78 74 81 73 31 64 43 38 48 49 48 22 15 7 7 12 14 24 19 27 30 34
58 54 32 22 20 25 17 18 28 18 10 6 5 6 8 48 59 62 83 75 86 93 71 66 69 68 60 74 62 44 41 49 56 23 15 13 14 20 27 21 26 32 41 41
59 58 51 37 36 35 28 32 44 28 12 12 6 8 8 24 51 56 63 67 69 89 84 66 74 78 72 61 57 45 41 39 48 32 18 17 21 28 29 29 39 38 31 37
59 56 60 49 49 50 34 47 58 56 40 26 14 6 10 20 44 54 61 71 75 81 95 90 82 71 47 42 39 42 39 32 45 52 31 20 20 29 30 26 34 48 50 43
58 54 59 51 51 62 57 25 50 62 60 49 21 8 16 16 28 49 64 69 81 67 91 87 84 81 62 54 55 41 28 38 28 32 42 35 22 26 44 54 46 47 46 45
59 63 63 61 61 66 25 38 52 64 65 59 53 29 21 12 21 43 59 54 72 48 74 95 91 92 77 69 66 55 43 27 49 54 37 52 40 27 35 46 43 41 45 54
63 70 69 68 65 57 55 34 58 75 75 66 60 55 36 27 18 29 46 51 52 54 62 81 85 81 92 88 75 66 47 26 24 41 63 56 55 34 28 33 38 46 55 72
72 84 92 75 75 59 40 51 66 74 76 67 62 54 48 16 11 10 20 38 48 54 55 77 75 72 74 89 81 76 57 29 21 37 69 64 58 49 40 51 55 55 66 93
91 98 98 80 76 57 58 64 80 76 69 64 46 46 38 32 17 12 18 29 41 50 57 64 71 79 69 84 75 55 38 38 26 47 72 72 57 56 51 73 65 94 91 90
96 92 96 100 87 72 64 84 82 65 63 51 51 63 55 49 41 31 21 18 23 32 51 61 68 68 75 81 58 55 28 23 43 49 65 71 55 57 74 76 82 75 84 90
90 90 93 91 98 98 78 88 78 90 64 80 82 53 50 43 37 34 25 12 25 47 35 29 53 67 78 82 75 63 39 32 58 62 70 66 63 69 73 78 84 84 86 76
96 94 96 70 69 77 72 91 64 49 51 64 63 80 53 67 61 40 30 19 11 43 64 48 39 40 54 64 76 67 48 56 58 63 69 72 87 87 73 80 87 95 77 74
96 95 95 91 95 94 95 94 77 59 55 54 94 69 70 58 36 25 37 36 28 34 44 46 31 69 68 67 68 76 62 54 61 60 74 84 91 81 81 90 93 94 81 81
97 90 96 98 96 89 84 82 96 96 98 72 60 51 55 54 44 47 31 13 21 47 75 81 34 44 77 79 74 64 70 63 51 60 85 92 83 73 82 92 98 95 89 88

GFSCGP_500_rhum_012.txt.gz
RH
2 1 1 2 4 17 47 57 52 62 88 85 81 89 97 87 74 83 55 27 4 2 1 2 1 1 2 2 2 1 1 1 0 2 14 21 31 13 17 7 1 4 12 11
1 1 1 1 3 12 17 42 56 56 78 86 96 87 93 86 94 64 39 44 7 2 3 2 1 1 1 2 3 3 4 4 4 3 6 10 0 8 3 2 4 10 6 8
2 2 2 2 2 4 10 13 50 44 81 81 81 95 95 90 91 66 60 51 6 2 2 3 2 1 1 2 3 4 4 3 3 4 4 4 14 16 12 10 6 6 7 8
3 2 2 1 2 2 3 12 52 76 77 82 90 97 92 94 90 77 63 43 12 3 3 6 5 3 3 2 2 2 2 2 2 2 3 4 20 34 26 11 11 10 12 12
4 3 2 2 1 2 2 24 40 76 81 87 85 92 68 99 62 63 70 72 88 18 4 18 20 22 29 30 25 16 9 3 2 1 1 2 6 10 6 22 14 13 16 15
7 4 3 3 2 2 2 20 39 68 82 85 69 71 63 63 70 65 79 54 80 57 27 38 36 27 36 32 32 37 32 22 21 19 7 1 2 5 16 19 15 20 23 12
9 8 4 3 3 2 2 4 25 32 69 38 66 69 33 69 70 72 81 58 72 87 73 51 52 41 26 32 38 44 42 38 31 35 35 15 1 2 8 9 11 12 12 11
10 9 7 5 3 3 2 2 2 14 24 29 52 45 17 43 68 80 78 82 74 64 76 76 62 52 50 40 43 46 47 47 47 42 33 28 27 4 1 1 4 9 11 12
16 11 8 6 4 4 3 3 3 3 8 32 14 43 13 37 71 78 73 85 67 66 61 67 82 62 55 47 56 53 52 60 49 42 37 27 16 25 22 18 8 9 11 18
20 16 12 8 5 5 4 6 6 4 4 6 6 18 5 14 50 61 62 63 62 62 62 56 67 74 53 38 60 57 54 50 38 26 18 13 11 11 29 35 19 21 10 20
28 22 15 11 8 6 4 4 4 8 9 6 4 2 3 7 51 60 65 65 68 60 64 66 69 70 73 45 43 60 62 49 35 28 19 15 11 10 23 36 31 11 19 16
27 32 19 16 12 10 6 6 6 4 4 4 4 2 6 8 47 64 64 68 70 64 80 80 73 73 59 36 37 60 52 54 45 28 26 17 8 6 16 34 16 21 15 14
24 18 26 21 18 16 13 8 6 6 6 4 4 4 9 13 25 59 63 65 68 90 87 97 91 83 65 55 40 64 43 52 50 43 31 16 11 7 17 16 21 20 16 23
32 19 16 14 19 19 14 12 10 7 7 5 5 5 6 14 41 59 62 64 70 83 97 92 97 85 83 75 69 54 64 44 52 49 27 16 12 9 10 25 25 13 25 32
36 20 20 15 13 29 23 17 14 11 9 8 7 6 7 9 46 56 63 62 61 69 88 82 80 75 86 74 50 69 72 44 38 30 22 19 17 12 10 21 16 22 30 39
50 34 33 17 16 21 31 27 17 14 14 12 10 9 9 10 10 38 56 58 63 78 65 58 57 74 77 59 59 73 60 54 50 45 29 24 17 20 18 17 26 29 38 30
65 52 52 30 45 47 52 14 22 20 18 17 15 14 11 9 8 14 41 52 59 84 65 79 58 58 72 76 64 60 77 57 50 48 29 20 25 19 23 25 25 28 35 44
66 65 64 52 64 64 15 30 31 36 37 30 20 21 16 12 11 8 32 48 55 61 66 51 66 57 63 60 82 61 70 72 57 56 45 32 39 26 28 30 30 41 49 46
84 77 68 64 62 61 55 35 38 42 43 49 25 18 16 16 20 17 10 34 48 61 60 59 49 62 68 83 89 77 63 65 60 62 54 50 68 65 50 37 39 47 52 42
95 91 94 82 64 62 58 56 59 46 51 57 31 20 20 23 20 15 11 7 26 40 56 64 67 65 55 64 67 70 64 75 54 71 69 56 49 66 70 62 38 40 51 68
96 96 96 98 94 78 63 61 67 58 55 46 46 40 30 29 39 28 18 13 8 14 38 48 61 61 54 58 64 66 64 61 59 78 67 61 54 61 71 70 53 38 44 66
98 98 93 92 96 96 80 68 65 66 56 51 48 59 60 54 60 46 24 21 19 14 10 31 37 44 51 50 52 57 66 62 61 65 54 55 50 48 73 76 62 54 61 75
98 97 88 99 94 96 81 77 70 65 64 53 56 56 66 68 64 58 42 28 24 23 22 22 20 34 45 51 80 76 65 71 70 68 62 36 42 34 64 91 72 57 76 78
94 98 92 94 96 93 64 67 68 63 67 56 55 60 69 69 61 47 43 44 30 22 14 18 36 39 34 37 43 47 53 68 70 75 67 37 33 25 39 71 73 61 73 81
96 97 93 91 91 85 57 62 69 57 51 50 44 46 46 45 44 42 49 46 36 24 30 39 32 23 35 42 50 44 48 59 72 77 84 57 39 31 51 66 71 82 92 97
91 98 97 91 95 99 88 67 57 55 55 52 52 46 52 48 46 56 49 46 40 46 58 45 33 29 30 44 74 68 49 58 68 91 93 85 61 65 60 82 95 96 94 99

GFSCGP_500_rhum_015.txt.gz
RH
1 1 1 1 3 16 33 44 61 62 63 59 54 63 67 90 96 100 65 49 8 3 7 7 8 3 4 3 4 3 2 0 1 26 29 27 36 40 20 8 1 9 13 8
2 1 2 1 3 8 21 23 50 67 71 60 66 68 73 81 95 100 60 41 16 3 3 3 3 2 4 2 2 1 2 3 3 1 14 8 11 10 5 3 5 9 6 8
2 2 2 2 1 4 8 9 47 68 76 75 80 57 56 69 94 85 80 76 13 3 3 3 1 1 1 2 2 3 4 4 4 5 4 5 7 7 8 9 6 6 7 9
4 2 2 2 2 2 4 7 46 69 86 87 65 52 45 59 71 58 72 37 21 7 3 3 3 2 1 1 2 3 4 3 2 3 4 3 15 28 25 16 8 11 14 12
5 4 3 2 2 2 2 13 40 63 81 80 72 48 38 43 43 58 73 50 96 68 18 6 6 5 6 13 7 6 3 2 1 0 1 3 6 12 8 7 20 16 12 20
7 6 4 3 2 2 2 15 31 63 76 68 46 45 42 41 41 66 61 46 70 91 60 56 17 6 14 22 28 26 28 27 21 13 6 2 2 3 10 14 22 15 17 19
9 8 7 5 3 2 2 4 17 30 57 6 40 40 18 56 51 66 62 70 67 79 89 94 74 75 50 10 15 22 23 28 35 36 26 12 6 3 2 10 14 18 12 9
12 12 10 9 7 4 2 2 2 2 7 8 21 17 5 47 57 66 77 85 80 64 69 86 87 88 74 43 19 26 26 24 29 40 46 41 40 16 3 2 8 5 6 8
18 14 13 10 9 5 4 3 2 3 4 6 4 7 7 32 47 71 81 79 74 73 70 80 78 75 83 39 34 35 38 35 36 41 49 49 34 25 30 16 3 2 14 12
22 18 18 16 11 7 5 6 4 3 3 3 2 2 2 13 31 52 71 60 60 53 62 68 69 71 77 68 39 44 36 40 47 40 28 26 27 25 20 32 32 24 23 18
18 17 18 19 14 10 7 6 6 5 4 3 2 2 2 3 25 36 68 63 68 59 62 64 74 76 76 78 62 49 45 47 41 46 30 20 15 12 12 19 47 36 31 17
22 17 14 16 19 13 10 7 6 6 5 5 3 3 3 3 8 26 46 66 53 61 66 65 82 85 75 76 62 44 56 50 49 44 35 23 15 13 10 18 44 35 31 17
23 21 19 15 19 17 13 10 8 6 6 5 5 4 5 6 9 8 25 53 42 56 62 67 83 91 81 77 63 48 48 62 51 44 33 24 19 13 7 8 22 31 25 18
26 23 20 17 20 18 14 13 12 10 8 7 6 5 5 8 8 6 11 52 58 64 59 46 42 67 90 81 81 73 52 67 51 41 30 24 19 16 8 6 7 19 17 15
36 26 24 19 19 20 16 14 13 10 9 8 7 7 7 6 8 8 13 36 48 38 49 52 41 66 81 66 83 89 82 71 75 52 30 30 26 19 12 7 6 10 16 17
46 39 35 22 21 25 20 15 11 10 12 12 11 9 8 8 7 9 8 23 37 23 21 34 29 54 70 78 56 80 86 74 84 66 42 43 42 30 17 14 10 11 16 20
62 50 42 28 32 27 26 15 16 14 13 14 12 10 10 11 9 8 7 6 11 26 26 35 38 52 62 46 68 54 59 66 75 61 51 47 46 31 24 20 16 19 16 23
76 70 61 43 49 44 12 24 28 21 19 16 15 13 13 13 15 11 8 10 18 28 26 21 27 31 40 43 46 38 62 51 64 74 72 58 52 40 23 27 23 22 25 25
87 86 76 67 59 40 28 36 37 38 26 22 16 15 14 16 19 14 10 8 8 20 34 41 36 40 40 33 48 56 52 46 50 52 64 74 65 49 34 34 39 35 31 31
99 96 94 84 71 59 46 54 43 38 40 28 22 20 24 22 16 18 16 10 8 9 21 36 47 45 50 47 54 70 65 65 58 60 70 80 73 62 58 58 63 65 60 48
51 95 97 89 82 71 61 59 60 61 29 34 30 30 38 33 23 26 24 19 12 9 14 20 45 54 59 63 64 63 64 61 64 76 95 85 89 73 68 66 62 63 66 65
22 43 97 93 95 92 73 68 78 78 50 42 37 36 41 46 46 49 32 28 20 12 11 13 22 44 62 48 57 84 84 93 82 86 82 94 89 83 90 71 60 58 71 72
36 43 46 92 91 89 91 78 74 82 81 62 45 44 42 41 48 52 43 30 27 26 20 15 24 53 63 59 70 81 78 90 98 96 95 88 93 83 90 88 74 68 60 89
48 59 64 88 89 82 97 84 85 84 86 79 73 49 45 42 51 62 56 47 35 30 26 29 30 27 36 43 48 48 54 74 50 53 80 94 84 81 70 77 91 77 66 58
60 80 72 78 94 78 92 91 85 78 77 71 70 69 52 47 52 59 64 51 61 43 29 28 34 44 46 44 40 38 41 43 44 54 51 68 74 81 93 72 70 66 50 58
91 97 99 75 80 89 70 66 80 71 79 74 67 63 53 50 54 55 56 59 63 54 46 42 47 50 58 56 44 30 26 29 30 28 37 42 45 75 81 77 69 76 66 74

GFSCGP_500_rhum_018.txt.gz
RH
2 2 1 1 2 7 24 34 52 69 71 59 43 56 70 90 95 90 98 68 15 3 8 6 9 4 2 8 10 6 10 10 12 11 12 14 32 33 20 6 5 14 16 7
2 2 2 2 2 5 11 24 47 73 73 60 52 47 73 70 89 90 97 57 63 3 5 7 7 4 4 8 4 2 1 2 5 26 27 29 30 20 10 4 3 10 7 8
3 3 2 2 2 2 6 8 35 69 79 77 66 42 56 80 93 89 78 100 23 4 3 2 2 2 4 3 2 1 2 3 2 1 10 9 7 8 3 4 6 7 7 11
5 4 2 2 2 2 2 8 28 53 76 80 76 34 40 68 76 83 85 89 16 4 3 3 1 1 1 2 2 3 4 4 4 4 2 6 8 14 16 15 10 9 12 15
6 5 4 3 2 2 2 10 24 49 65 72 73 37 32 50 64 71 81 31 47 20 6 3 3 2 2 2 2 3 3 4 3 3 3 3 5 16 26 18 14 19 16 12
9 7 5 4 3 2 2 5 23 31 45 30 18 31 13 31 55 71 72 33 46 41 24 8 5 4 4 3 3 3 4 4 2 2 2 2 2 3 7 9 9 20 18 15
10 9 7 6 4 3 2 2 11 21 23 2 21 24 7 18 35 68 72 39 50 29 19 24 47 64 62 24 16 17 16 16 18 20 16 9 6 5 5 4 8 15 15 12
15 12 10 8 6 5 3 2 2 2 2 3 13 7 4 17 39 69 73 86 85 73 55 62 84 92 84 72 57 26 13 19 20 22 27 29 25 13 5 4 4 8 9 6
16 13 13 11 9 8 6 4 3 2 3 3 3 2 6 13 42 61 71 89 67 60 71 52 75 76 100 90 78 40 26 26 27 30 34 43 43 39 36 16 6 4 4 2
20 17 17 16 13 10 9 8 6 3 3 3 2 2 2 4 16 49 57 77 70 73 89 91 75 70 73 91 80 42 38 36 29 23 35 36 42 47 37 26 31 24 10 6
25 21 18 18 14 12 10 9 7 5 4 4 4 3 3 3 5 21 47 71 77 67 72 86 82 89 82 96 82 53 50 41 34 30 41 36 25 21 21 22 21 30 32 27
26 23 24 20 19 16 15 12 11 9 6 6 5 4 3 2 3 10 34 52 73 64 57 62 74 93 94 78 81 70 69 51 43 39 46 44 37 23 16 14 12 13 30 36
28 26 24 25 24 20 16 13 11 10 8 6 6 4 6 5 4 4 16 39 57 64 50 54 64 82 83 75 72 77 73 58 61 54 42 42 43 32 24 15 8 8 21 38
35 31 24 23 24 22 20 16 13 12 9 7 6 6 5 6 6 7 6 23 35 58 58 51 56 66 71 64 65 66 64 67 63 61 50 36 34 42 34 18 10 6 8 30
42 40 31 27 26 23 23 19 17 13 12 9 7 6 7 6 6 9 8 8 15 24 42 46 38 63 55 53 52 56 64 71 63 58 58 44 34 32 22 16 11 8 6 21
53 46 40 29 28 29 24 24 20 17 14 12 8 7 7 8 7 7 6 5 4 4 13 44 47 37 56 64 74 72 71 74 64 47 46 50 41 41 41 39 26 14 9 9
58 52 49 33 31 28 24 25 25 22 18 15 11 10 9 9 9 8 7 6 5 5 5 15 32 26 40 60 52 72 88 90 53 55 62 49 34 42 48 52 42 26 19 12
68 63 57 40 39 29 19 27 28 26 24 20 17 14 11 10 11 10 10 10 9 6 6 8 14 14 12 28 39 47 60 76 73 56 60 58 54 55 56 54 49 38 31 21
98 81 63 57 42 24 25 26 31 26 20 24 23 18 15 12 12 12 11 11 9 8 7 11 27 20 22 30 20 39 47 43 36 48 51 60 72 78 63 59 58 42 40 39
62 100 86 66 42 24 26 38 30 24 16 30 27 27 22 17 13 12 14 13 13 11 10 9 12 16 18 27 17 31 42 48 47 68 66 56 63 71 70 76 66 58 58 60
11 33 93 83 64 29 26 36 43 28 17 23 28 31 31 23 20 22 17 15 15 15 13 10 10 21 36 46 35 31 35 35 64 81 85 81 74 71 87 81 82 71 66 66
16 13 22 86 91 46 35 40 42 29 30 27 32 36 34 36 28 27 27 23 22 22 20 13 11 13 23 43 40 49 63 79 75 66 79 84 95 96 90 91 72 83 76 68
13 12 13 17 64 73 63 66 54 37 45 46 40 35 36 38 40 35 37 38 36 28 26 24 19 14 39 64 67 82 81 72 67 79 84 72 54 92 100 97 97 71 91 84
56 28 17 12 12 50 71 70 66 56 54 62 69 56 42 41 42 43 41 44 48 42 32 26 24 18 16 24 41 52 60 64 69 77 80 96 88 71 71 95 68 74 92 94
73 74 42 16 10 13 28 60 87 81 79 96 90 78 76 58 48 51 50 47 48 50 54 33 30 28 26 21 20 25 33 44 44 54 69 71 68 66 67 66 58 52 50 74
61 47 39 24 26 18 35 43 54 92 78 98 93 84 80 76 59 57 54 49 44 41 40 36 29 30 28 29 34 34 40 46 50 42 40 35 39 45 46 52 58 80 86 66

GFSCGP_500_rhum_021.txt.gz
RH
2 2 2 2 1 4 16 31 41 82 81 61 51 68 76 64 45 40 33 56 18 5 8 9 9 5 5 12 12 11 10 6 6 3 5 6 7 15 16 8 19 15 15 7
2 3 2 2 1 2 6 18 33 76 64 48 53 48 79 68 83 72 42 71 54 5 8 8 9 5 2 11 12 9 12 10 11 4 8 16 26 29 16 3 6 9 6 8
5 4 2 2 2 2 2 6 29 41 58 35 48 38 70 72 85 80 92 20 46 4 7 7 7 3 4 6 8 7 9 5 10 26 26 26 29 22 10 4 5 8 9 15
6 4 3 2 2 2 2 6 22 48 60 54 34 31 66 70 83 54 96 34 8 5 3 3 2 4 3 3 2 2 2 1 2 2 4 13 7 9 5 4 7 8 10 12
8 7 5 3 2 2 2 3 13 39 58 60 45 27 50 63 75 65 83 57 5 3 3 2 1 1 2 2 2 3 4 4 4 4 4 3 6 11 14 13 12 12 15 14
10 8 6 5 3 2 2 2 8 23 42 21 22 24 22 47 65 82 85 47 9 6 3 2 1 1 1 2 2 3 4 4 3 3 3 3 3 6 19 21 16 13 19 19
10 8 8 6 4 3 2 2 3 10 12 4 21 21 6 27 55 65 82 36 22 20 6 4 3 4 5 3 3 3 3 3 2 2 2 2 2 3 5 16 18 12 16 18
15 11 10 9 7 5 3 2 2 2 2 7 9 3 4 23 36 66 85 86 42 14 16 13 26 33 40 25 22 16 16 14 16 17 21 18 10 4 4 4 8 10 13 12
22 15 16 14 12 8 6 4 3 2 2 3 2 2 4 13 30 34 57 85 53 15 13 30 42 21 28 38 57 63 36 21 20 24 22 25 31 33 18 6 5 5 7 8
25 20 19 18 14 12 9 8 6 4 3 3 3 3 2 6 16 35 75 74 62 36 19 77 69 61 60 69 76 61 38 33 35 26 25 30 40 44 47 40 36 21 10 7
27 24 22 20 14 12 10 8 8 7 6 4 4 4 3 3 8 28 66 68 82 78 70 54 80 89 99 99 71 70 47 41 41 35 30 36 40 30 30 42 44 35 31 29
29 30 26 22 19 18 16 13 12 10 8 8 7 5 4 4 4 8 38 69 82 82 84 98 100 99 98 96 97 76 72 47 53 47 49 46 42 38 31 26 20 18 20 22
31 33 32 27 23 21 17 15 13 11 10 8 7 5 5 5 5 4 11 36 61 91 92 96 96 91 99 99 92 71 71 56 65 55 47 55 46 45 54 52 23 16 12 10
33 34 34 30 26 26 21 18 16 14 11 8 6 6 6 6 6 5 4 13 33 55 81 81 89 85 86 94 93 70 74 71 67 50 41 37 39 41 42 68 22 15 13 9
47 40 39 37 34 30 25 22 20 18 16 12 9 7 7 7 7 6 6 7 19 44 56 79 69 62 68 74 78 76 66 67 58 48 38 37 58 63 37 33 26 25 18 13
39 49 43 41 40 32 32 29 25 23 20 17 14 12 10 8 6 6 5 4 6 22 30 36 43 52 61 66 69 73 59 58 66 61 54 48 46 54 39 34 37 35 34 26
44 40 45 40 41 36 24 23 25 27 25 22 15 15 14 13 8 6 6 5 6 6 14 19 21 20 17 38 53 73 60 69 79 68 90 42 54 64 40 38 43 48 51 45
51 46 47 46 40 36 21 23 26 24 26 24 17 17 17 16 14 9 8 6 6 6 7 6 9 12 12 18 17 56 67 70 64 83 77 64 62 62 54 51 47 58 61 60
56 70 58 53 42 26 23 24 23 25 23 21 18 18 18 19 16 14 10 9 8 7 6 7 6 5 6 8 11 19 45 62 52 72 75 56 46 56 58 66 70 68 75 68
66 76 70 55 34 27 24 29 23 22 18 23 23 23 20 20 18 17 14 11 11 10 8 7 7 7 7 7 7 9 18 28 35 55 52 49 65 75 74 83 86 82 82 66
14 60 56 68 45 28 24 30 21 20 20 24 25 28 22 18 19 23 22 15 14 16 12 10 10 8 8 8 8 8 9 14 34 50 50 45 47 64 79 79 68 72 80 77
15 11 32 48 41 24 22 36 24 26 26 22 24 24 25 24 23 22 23 24 21 17 16 14 13 13 12 12 10 9 10 14 20 29 42 38 47 51 51 55 50 45 45 53
14 13 11 15 24 26 33 36 39 31 28 25 25 26 26 30 30 25 25 25 27 27 24 19 16 17 16 16 12 10 9 9 12 22 28 40 63 70 71 71 64 62 59 60
12 12 10 10 10 16 26 29 27 30 27 31 29 30 30 31 37 36 34 29 26 28 30 27 24 21 20 19 18 16 14 13 19 28 60 73 72 80 84 72 69 69 62 96
44 30 11 7 8 9 11 17 21 26 32 35 35 34 38 38 40 36 38 41 39 30 28 32 33 29 25 23 22 22 22 25 32 54 75 79 79 75 69 71 67 75 63 91
85 51 23 8 7 6 7 9 11 13 19 34 38 37 45 50 48 52 53 45 39 39 37 32 32 32 30 30 27 28 31 35 32 31 47 50 46 45 44 48 52 73 67 68

GFSCGP_500_rhum_024.txt.gz
RH
3 2 2 2 1 2 6 12 27 38 58 84 75 78 69 66 63 58 12 9 9 9 11 10 10 8 10 11 5 11 14 6 8 9 6 4 6 6 14 19 18 16 11 7
4 2 2 2 2 1 2 10 23 43 50 75 83 79 78 73 59 58 18 20 8 8 9 9 8 8 8 15 12 10 13 8 3 3 4 4 6 12 15 7 11 9 6 10
5 4 3 2 2 1 2 7 20 34 60 68 80 71 77 81 64 60 44 31 20 8 8 9 8 4 5 11 10 9 11 7 9 3 5 13 21 26 16 3 5 8 11 16
7 5 3 3 2 2 1 4 20 32 49 48 74 72 64 63 75 63 59 41 38 8 7 8 8 4 2 9 12 7 11 10 9 21 26 24 24 24 12 6 5 8 10 11
7 7 6 4 3 2 2 2 8 27 35 50 48 38 50 59 67 62 57 91 44 12 6 7 8 4 3 4 6 3 4 2 2 4 8 10 8 8 7 4 8 10 12 14
10 10 8 6 4 2 2 2 3 10 32 30 16 20 20 38 48 68 61 67 40 16 4 3 3 3 3 2 1 2 3 3 4 4 4 3 4 8 10 11 11 12 13 15
11 8 9 7 5 3 2 2 2 5 7 4 15 15 8 32 46 68 66 73 33 26 3 2 2 2 3 2 2 3 3 4 4 4 4 4 4 3 5 15 19 17 16 14
18 13 10 9 6 5 2 2 2 2 3 4 5 5 7 20 40 61 74 79 44 9 3 2 1 1 1 2 2 2 3 3 3 2 2 2 1 1 2 3 4 10 14 10
20 19 13 12 10 8 5 4 2 4 3 5 5 3 5 11 28 49 70 72 40 12 7 3 3 3 2 2 3 6 9 10 10 10 9 12 13 11 7 5 5 5 5 8
27 25 19 18 14 12 10 7 5 3 4 2 2 2 2 7 18 33 56 57 50 24 17 5 10 26 30 24 23 25 22 23 20 16 19 23 26 31 33 33 28 16 10 8
32 29 28 24 14 13 12 10 7 6 4 4 4 6 3 4 13 30 45 58 54 64 38 11 15 29 48 60 50 49 39 26 23 25 27 24 29 35 37 42 49 47 38 34
36 32 34 24 26 20 17 16 12 7 6 5 5 21 4 3 6 23 35 46 65 79 65 29 63 49 58 58 63 65 65 42 35 40 36 35 30 35 34 28 27 34 40 37
28 35 40 35 32 26 21 18 14 12 9 7 7 7 6 6 4 8 28 47 58 52 48 51 50 83 88 77 53 61 75 56 48 49 50 43 38 31 38 35 23 18 16 16
27 32 37 35 34 33 26 20 18 15 11 8 8 9 6 6 6 4 12 42 59 64 61 75 65 53 51 61 73 67 76 83 68 52 58 58 45 44 45 51 41 20 19 15
35 33 31 40 33 29 25 25 22 17 15 12 11 9 8 8 6 7 4 8 59 68 70 84 78 79 90 77 78 87 88 79 72 67 62 59 49 39 46 54 37 21 18 28
46 47 31 35 38 32 27 25 22 21 19 17 14 12 11 10 8 7 6 5 6 31 68 66 80 86 88 87 91 90 87 76 67 62 52 65 56 37 47 54 44 25 33 39
40 45 32 42 44 40 32 27 27 25 22 21 18 18 18 16 15 12 8 7 4 6 15 37 42 41 57 76 76 74 76 70 56 64 65 68 65 53 32 53 55 46 43 50
38 40 41 54 40 40 28 36 32 33 32 29 25 21 20 19 19 17 10 7 6 4 6 6 16 24 27 42 56 60 56 63 47 42 67 66 77 79 59 68 56 49 40 41
56 54 55 58 41 42 38 35 31 34 32 31 28 25 22 20 19 20 16 10 7 7 7 6 6 6 8 14 22 29 43 46 50 45 52 65 78 87 47 38 55 50 52 58
99 77 56 53 50 44 50 36 32 27 34 34 27 28 27 22 19 21 24 16 11 8 7 7 7 7 8 9 16 18 18 13 19 58 69 63 57 83 95 58 58 49 48 66
78 95 68 61 43 43 54 41 28 35 51 34 31 27 25 21 18 18 22 25 16 12 10 9 8 8 7 6 6 6 8 9 20 27 36 45 40 56 59 48 46 53 52 52
26 42 71 60 49 40 36 30 32 37 30 29 22 22 23 21 20 20 19 24 25 20 14 11 10 11 10 8 7 7 8 9 11 15 15 22 32 41 39 42 39 42 46 38
22 16 23 40 39 34 43 36 25 26 27 28 25 20 22 22 23 23 22 21 23 24 25 19 13 13 13 11 10 10 9 10 10 11 15 18 20 22 24 32 28 33 50 55
14 16 11 12 16 19 19 22 34 26 28 27 27 27 22 23 22 20 22 22 20 20 23 24 24 21 19 16 15 14 14 13 12 11 12 14 23 28 31 38 48 45 48 67
13 8 9 10 10 11 17 22 27 36 31 29 24 22 21 23 23 23 23 23 23 22 23 25 26 25 25 25 23 21 19 18 17 14 12 12 13 18 30 37 54 40 55 54
29 20 6 5 7 9 10 11 17 15 21 27 25 27 26 26 29 24 26 28 26 28 29 28 28 32 30 29 28 29 27 24 22 21 20 19 19 17 19 32 39 33 40 32

GFSCGP_500_rhum_027.txt.gz
RH
3 2 2 2 1 2 10 70 61 83 87 88 98 96 99 94 98 100 64 15 8 7 6 7 8 8 10 13 16 10 9 7 8 9 15 13 6 8 18 19 19 22 15 8
4 3 2 2 2 2 2 18 69 76 85 87 97 98 95 99 97 98 91 38 8 9 7 8 8 9 11 11 8 8 8 8 9 6 5 5 6 6 8 17 14 10 8 9
4 4 3 2 2 2 1 2 34 72 81 82 98 98 97 95 99 99 85 49 19 8 9 10 10 8 9 11 7 7 8 4 6 3 3 4 5 7 12 5 6 7 13 15
6 6 4 2 2 2 2 1 10 68 77 76 80 93 96 93 94 88 67 51 29 8 9 9 9 7 6 10 15 7 7 4 3 2 3 8 10 9 11 6 3 7 12 12
6 6 5 3 3 2 2 2 4 15 57 81 82 87 80 91 89 95 79 63 38 9 8 8 9 5 5 6 9 6 6 6 8 8 18 15 16 18 16 10 7 8 11 11
14 12 9 8 4 3 2 2 2 11 23 41 48 77 78 80 86 93 96 88 58 21 7 7 8 7 3 2 5 5 6 7 12 21 18 16 14 14 12 10 9 10 12 12
10 10 13 10 7 4 3 2 2 4 7 6 21 17 38 76 79 86 92 92 76 46 9 6 6 6 3 3 2 2 2 2 6 7 6 6 6 7 9 11 12 12 13 14
20 14 10 11 8 6 4 2 2 2 3 11 10 19 11 49 80 79 90 91 93 56 17 4 4 3 3 3 2 1 2 3 4 4 4 4 4 4 4 5 7 10 9 10
31 22 19 17 14 10 6 4 3 29 31 28 27 19 36 58 67 63 73 86 92 81 34 3 2 2 2 3 2 2 3 3 4 4 3 2 2 1 1 2 2 3 5 6
47 60 34 21 18 13 11 8 6 9 34 34 32 38 39 18 16 34 29 43 63 80 41 4 2 1 1 2 2 2 3 3 2 2 4 6 8 11 12 14 17 17 14 11
44 78 66 48 17 13 11 10 8 7 9 35 42 34 36 46 14 14 22 41 59 65 46 6 5 2 1 1 2 3 3 3 5 9 14 13 18 20 16 19 20 25 29 38
40 62 61 30 25 23 15 12 9 6 7 14 33 34 34 37 17 16 21 34 53 64 58 22 11 5 5 10 14 16 26 19 23 29 22 23 24 23 25 22 23 26 32 37
76 46 52 81 65 30 23 16 13 11 13 20 23 40 25 18 5 11 19 30 43 56 57 59 51 8 12 25 27 30 28 28 33 27 29 37 37 38 35 26 27 24 19 17
21 28 33 56 37 42 27 20 17 16 13 21 26 38 24 7 6 7 17 31 43 57 53 43 65 26 6 7 13 31 40 41 32 35 36 42 48 54 46 33 23 23 26 20
32 40 39 60 92 78 45 32 24 18 17 16 44 34 52 15 9 6 8 15 28 29 28 40 65 29 10 13 23 27 30 29 35 37 44 50 57 61 50 38 38 31 22 21
40 36 50 62 96 91 65 79 37 38 21 20 27 52 59 45 14 7 5 7 12 26 31 36 60 45 45 42 52 50 49 55 58 54 52 59 68 67 61 50 45 43 30 29
39 46 56 47 63 66 59 38 45 70 39 29 21 39 67 53 12 10 8 5 8 16 29 40 54 50 54 60 62 60 63 61 63 75 68 64 62 64 65 60 48 48 24 21
57 54 44 46 61 63 38 51 43 44 61 46 46 35 29 15 13 15 12 8 7 7 24 55 66 66 63 70 73 74 77 70 78 82 76 61 57 56 69 77 72 63 30 23
81 68 58 51 50 62 53 59 61 54 42 36 29 25 21 19 18 18 20 17 11 9 8 9 24 43 61 56 39 34 41 72 80 83 73 64 51 46 50 66 85 77 35 35
95 89 65 60 68 100 100 97 51 42 42 40 38 32 26 22 20 21 23 22 17 10 7 7 6 5 5 11 23 31 37 48 74 75 74 65 63 33 47 58 72 88 68 35
99 99 87 76 77 97 100 99 60 56 86 47 36 34 28 23 22 20 20 25 22 17 10 7 6 6 6 6 6 10 20 26 59 64 63 59 51 40 47 53 48 59 66 45
96 100 98 89 85 96 99 99 96 73 51 41 23 22 23 19 22 28 25 24 24 21 15 10 9 7 7 7 7 8 10 16 14 14 18 20 21 37 40 43 34 44 63 50
91 99 100 100 85 81 99 88 72 51 37 27 19 19 21 23 23 26 27 24 21 24 22 16 14 11 9 9 9 9 8 8 8 7 8 11 17 22 22 27 32 45 40 34
71 64 84 90 67 78 64 62 36 23 25 23 26 27 21 22 23 26 30 26 20 21 26 27 24 18 15 11 10 11 12 10 8 8 8 10 12 14 16 17 18 16 18 21
28 24 22 37 65 58 38 48 34 30 27 37 29 24 22 21 23 26 26 27 25 23 24 25 26 25 22 18 17 14 14 14 13 12 12 12 12 14 14 18 17 12 22 35
27 8 9 11 15 32 53 47 54 48 44 38 28 26 25 24 25 25 23 25 25 22 22 21 23 24 23 21 21 22 22 20 19 17 16 16 15 14 13 12 14 13 15 20

GFSCGP_500_rhum_030.txt.gz
RH
2 2 2 2 1 2 11 28 26 88 73 99 72 93 66 78 95 98 47 69 27 24 6 4 4 7 10 13 12 13 6 5 12 19 13 10 14 15 14 22 22 13 7 13
3 2 2 2 2 1 2 7 70 77 85 84 96 56 92 92 96 90 75 96 44 25 9 5 6 6 8 11 11 10 10 6 8 15 13 6 4 7 16 16 12 7 6 31
5 3 3 2 2 2 2 2 19 79 75 88 96 94 95 75 86 96 71 44 40 26 9 7 6 7 7 11 12 10 9 8 10 8 9 7 6 5 5 6 8 6 9 13
8 6 4 3 2 2 2 2 3 80 76 68 76 81 69 73 96 68 85 90 96 27 10 8 9 9 8 11 8 5 5 6 7 5 5 4 4 4 5 5 5 9 14 14
8 6 4 4 3 2 2 3 2 33 77 73 73 73 76 75 65 88 59 56 57 22 22 6 9 9 7 9 8 6 6 3 4 3 1 2 4 6 10 8 7 12 13 12
16 14 8 5 4 3 3 5 10 4 61 64 66 73 72 85 68 81 79 77 52 54 48 9 8 9 6 6 7 13 8 4 2 2 1 3 6 9 12 10 10 12 13 15
24 15 13 8 9 5 3 3 18 27 8 15 42 72 62 76 90 93 96 88 93 64 55 34 7 8 8 4 4 6 6 5 6 6 11 14 9 11 12 10 11 11 12 14
22 17 12 10 7 7 4 3 2 4 7 21 20 14 9 69 92 86 98 96 96 73 70 33 13 7 7 5 2 3 7 6 6 11 17 7 8 9 10 10 11 11 9 10
33 24 25 18 14 12 10 4 5 14 32 36 33 21 21 34 57 88 84 89 97 82 95 45 44 4 6 5 3 2 2 2 2 7 8 6 6 5 4 4 3 2 3 4
29 67 35 30 28 17 12 18 10 16 31 36 33 32 28 25 24 64 72 84 93 86 83 50 39 4 4 3 3 2 1 3 4 5 5 4 3 2 3 6 8 9 10 11
36 63 66 65 34 18 20 32 19 12 10 40 43 33 34 39 39 46 50 49 88 83 83 63 47 8 2 2 3 3 2 3 3 3 3 3 5 7 13 18 15 14 17 19
33 48 71 80 64 46 26 18 15 11 11 31 39 40 37 38 40 41 38 55 65 92 98 78 56 19 3 2 1 2 2 2 3 3 4 7 12 15 21 24 21 19 24 26
99 48 63 85 84 70 36 26 23 28 17 13 33 39 41 38 54 46 16 71 68 74 92 94 62 30 3 2 1 1 2 3 3 4 7 13 19 30 36 36 30 23 21 20
73 42 67 65 53 70 69 61 45 40 17 25 26 44 43 42 37 36 12 17 31 45 82 78 70 58 11 4 3 2 4 8 16 23 21 27 30 40 42 49 40 30 23 28
77 58 66 82 84 86 65 44 42 20 29 19 44 45 50 40 28 32 14 18 45 54 79 98 81 60 48 17 4 4 16 14 12 14 14 40 40 44 47 56 54 41 32 24
56 54 80 91 87 96 89 72 45 56 39 59 48 50 50 54 16 17 8 8 13 19 43 52 58 53 37 44 12 4 4 5 19 15 15 47 61 73 69 65 60 52 38 34
69 89 87 60 88 94 99 89 75 64 59 61 47 54 56 56 53 22 9 7 8 9 16 22 33 39 37 50 21 8 18 29 35 37 47 55 68 69 65 67 67 64 56 37
94 48 57 72 100 97 90 89 81 74 67 62 57 59 76 76 73 42 10 6 6 8 12 18 28 31 33 52 49 35 39 56 51 53 54 64 72 68 59 57 60 71 74 71
96 62 57 76 97 90 97 85 83 88 84 71 68 57 73 82 79 63 14 9 6 6 5 7 17 27 32 37 66 62 65 59 59 61 67 69 71 77 66 55 53 57 77 85
100 100 71 82 96 99 100 99 90 96 87 92 82 78 60 68 76 66 17 14 11 8 6 5 6 6 9 12 34 32 17 28 63 77 85 91 82 79 75 68 48 44 56 78
97 100 99 90 78 96 92 96 95 97 93 81 80 80 76 62 50 15 16 19 15 12 9 8 8 7 6 6 5 5 5 7 16 48 54 78 85 81 74 71 63 48 50 50
94 100 98 100 97 98 97 97 99 96 84 81 72 50 37 33 24 19 18 20 18 20 21 18 13 10 8 7 6 6 6 7 8 13 28 45 60 76 72 68 64 44 26 45
92 98 100 100 98 97 99 99 92 86 92 91 68 50 34 25 22 18 21 26 24 25 25 23 20 15 9 7 6 6 6 7 7 8 10 20 25 27 41 47 28 22 14 21
92 100 92 89 94 96 97 96 95 89 78 69 48 39 33 28 23 27 30 28 25 26 26 26 23 20 16 14 10 8 8 8 8 8 7 7 6 6 7 10 18 29 17 19
92 87 78 80 86 95 90 79 67 82 66 42 40 32 24 26 33 31 31 31 30 30 31 28 25 22 21 21 17 14 12 10 10 10 11 9 7 7 7 8 9 10 13 15
50 36 34 53 72 75 83 87 67 54 61 44 34 26 35 34 31 32 29 27 30 28 28 28 25 23 23 24 25 24 20 15 13 12 13 13 12 11 11 11 11 11 11 16

GFSCGP_500_rhum_033.txt.gz
RH
5 4 2 2 2 1 6 15 16 17 52 93 63 63 90 86 71 73 95 68 93 37 14 7 4 4 8 15 11 10 4 25 40 41 29 10 8 12 21 24 21 15 9 28
6 4 3 2 2 2 2 9 11 21 37 95 58 100 97 94 57 77 80 84 72 38 22 9 5 4 7 13 12 9 4 4 24 19 13 9 12 14 17 17 12 7 11 63
9 6 7 3 2 2 2 2 5 9 46 91 95 94 95 98 75 66 81 90 79 81 28 9 5 6 6 10 12 8 6 4 12 13 8 6 5 7 13 12 10 5 9 47
18 11 8 5 3 2 2 2 2 8 73 87 95 95 100 98 84 80 58 76 48 56 39 8 7 6 7 9 10 9 7 4 6 11 11 6 4 5 4 6 6 7 13 35
16 11 8 5 3 3 2 2 2 4 54 81 86 96 68 97 97 80 71 77 39 55 46 24 7 9 8 8 11 6 4 4 6 7 7 5 4 4 4 4 5 12 14 12
28 28 18 7 5 3 4 4 4 4 29 59 62 79 76 71 73 76 82 58 64 57 51 51 9 9 9 7 10 5 4 3 5 5 3 2 3 5 6 8 7 12 12 14
27 27 23 13 9 4 3 7 7 6 21 7 41 65 48 74 66 69 82 86 84 44 54 71 37 12 9 6 8 9 11 6 3 2 2 2 4 5 8 10 10 13 14 15
13 26 20 22 11 6 4 3 2 3 3 4 15 11 14 52 76 83 79 91 95 88 49 29 40 9 8 8 4 5 8 10 4 3 2 3 11 7 11 10 11 12 12 11
18 17 43 28 22 12 9 5 6 8 8 13 7 5 16 25 52 78 91 97 96 77 60 31 43 22 6 8 5 3 2 4 4 5 3 12 10 8 9 10 9 7 6 5
30 82 56 54 54 23 12 30 13 11 17 15 10 8 8 10 19 45 61 97 94 87 51 45 38 34 6 5 6 3 2 4 4 5 11 10 6 5 4 3 2 2 4 6
36 54 36 84 61 24 27 44 27 18 15 21 20 22 26 32 34 26 32 75 87 85 67 34 38 64 48 4 5 3 2 1 2 3 8 5 4 2 2 6 15 15 13 13
73 75 66 52 50 53 43 28 21 19 11 8 21 34 48 40 35 40 43 37 84 88 86 39 34 56 69 4 2 3 3 2 3 4 4 3 2 4 8 18 20 19 11 14
93 68 71 64 79 81 71 43 31 27 23 13 38 42 45 39 35 42 40 46 64 84 91 67 51 57 69 11 2 2 3 2 3 3 3 3 5 16 17 28 33 32 26 17
62 55 63 65 50 56 75 72 55 41 22 14 27 42 52 41 38 42 32 22 36 77 92 87 56 43 69 19 3 1 1 2 2 2 3 5 9 18 28 37 46 34 28 22
69 33 46 61 66 75 85 79 72 44 25 14 32 44 57 50 44 41 39 28 37 66 84 76 46 29 53 66 9 2 1 1 2 4 5 10 12 27 37 45 51 48 42 26
80 60 53 64 74 93 94 88 76 52 30 22 31 44 48 52 52 48 46 42 34 45 82 83 83 55 40 59 50 4 3 3 3 6 11 15 12 35 46 62 62 55 53 35
97 87 50 65 90 99 90 77 90 68 46 30 22 45 69 58 49 43 39 34 35 28 58 87 76 56 21 42 46 50 7 10 14 13 37 24 41 69 65 66 65 59 55 54
99 94 54 77 98 84 71 98 94 84 62 48 37 55 59 71 64 56 46 26 14 12 16 30 36 25 29 40 32 52 24 7 13 22 37 50 62 78 73 70 66 66 72 69
100 88 74 86 96 65 95 99 97 85 77 64 54 73 67 84 81 68 31 23 8 6 7 7 11 17 22 41 48 36 61 21 9 26 48 59 64 79 79 73 68 64 61 60
100 88 86 93 94 99 96 92 95 95 89 66 61 73 91 92 83 59 36 14 8 8 6 7 8 8 10 20 23 28 45 64 49 39 52 61 72 91 91 81 74 72 69 64
100 93 86 96 99 94 95 97 98 97 92 81 66 87 82 67 71 41 28 15 17 11 7 8 10 10 12 12 18 21 20 21 45 58 66 78 84 85 85 84 75 79 76 70
99 100 98 98 88 99 95 96 97 96 100 94 72 94 60 47 27 31 29 14 9 8 9 8 7 7 6 8 10 12 10 11 12 25 54 62 59 60 60 72 83 78 75 70
97 97 100 96 98 91 96 95 95 98 99 97 82 84 50 36 17 16 16 13 16 14 12 11 9 8 8 8 8 8 8 7 5 8 21 41 50 45 37 42 54 58 70 76
98 93 99 99 97 92 96 96 93 86 98 96 92 70 37 31 22 18 19 12 13 23 23 18 15 12 11 13 16 12 9 8 7 7 6 11 14 17 19 18 12 14 21 37
86 92 90 98 95 85 97 93 96 82 95 100 89 70 41 34 27 26 29 29 20 30 35 23 19 17 19 21 22 18 13 9 8 7 7 7 8 9 9 9 8 7 6 6
74 82 68 75 83 64 82 90 93 92 82 85 69 55 52 44 39 37 39 41 42 39 33 28 23 22 24 24 23 21 19 16 12 10 9 9 9 9 9 8 7 7 7 8

GFSCGP_500_rhum_036.txt.gz
RH
9 6 4 3 2 2 11 8 7 18 40 50 91 99 97 62 33 50 59 87 76 32 10 6 4 21 25 25 12 6 11 20 31 35 24 20 21 22 23 23 22 9 33 33
13 5 6 5 3 2 3 6 5 36 29 40 84 94 88 43 40 54 79 44 78 65 27 6 4 6 15 23 14 7 18 31 38 34 16 8 13 19 20 11 7 8 49 35
18 14 12 8 4 2 2 2 4 12 44 37 94 95 99 63 76 81 83 60 83 83 48 7 3 4 6 15 15 12 4 29 40 30 11 9 13 15 15 9 6 7 45 47
25 29 19 14 10 3 2 2 4 12 36 28 85 99 91 96 80 62 90 74 67 79 67 29 3 5 5 10 11 10 5 5 22 14 10 8 9 11 11 10 7 6 20 48
10 22 21 12 8 7 3 3 3 6 33 35 62 86 93 78 71 50 71 72 58 67 71 48 7 5 6 7 10 9 8 5 9 14 10 6 5 5 5 6 4 10 16 16
8 24 36 20 16 10 5 4 3 6 43 66 49 60 73 56 58 52 82 43 58 64 90 61 13 8 7 7 9 9 8 6 5 7 12 7 5 4 4 5 5 12 13 12
12 14 26 37 27 17 8 6 5 12 49 35 23 69 28 42 64 74 71 35 48 61 77 80 41 16 10 7 9 8 5 5 5 8 7 4 3 4 5 7 8 11 12 16
21 20 23 48 31 23 12 6 3 3 7 8 8 28 15 56 70 76 67 65 73 68 74 90 63 19 9 8 9 8 8 5 4 5 4 2 2 4 6 9 10 12 14 14
26 11 34 52 37 32 26 7 6 5 7 4 6 9 28 45 49 38 58 85 76 66 68 82 69 37 9 8 7 7 8 12 8 3 2 1 3 6 13 12 10 12 12 11
22 16 34 43 79 38 14 14 9 7 7 7 4 4 4 28 21 30 43 55 33 61 70 79 66 60 19 8 7 4 4 7 8 4 3 4 15 12 10 9 9 8 5 3
26 14 20 94 75 39 23 23 19 23 10 8 4 2 4 11 25 40 49 48 44 63 82 77 53 70 55 7 7 4 3 2 4 4 4 15 8 7 6 5 3 2 10 15
40 17 24 54 34 66 62 24 34 21 10 8 6 11 17 25 23 28 46 69 36 55 70 53 47 73 69 14 5 5 3 2 5 4 5 9 6 5 4 3 8 18 17 10
90 30 23 35 76 99 89 49 21 14 22 9 8 20 24 35 36 39 34 67 41 73 56 24 64 81 64 28 3 4 3 1 2 2 3 4 4 3 4 10 21 27 26 17
87 31 24 30 64 72 66 64 45 27 19 11 7 41 41 44 37 35 36 37 53 51 44 32 83 64 66 83 7 2 2 3 2 3 3 3 4 10 16 28 36 41 29 20
75 47 31 30 48 71 57 76 57 39 20 15 10 37 44 43 39 37 40 34 42 54 63 62 58 39 61 82 32 3 2 3 2 3 3 4 8 14 27 36 48 44 38 29
89 86 30 27 67 76 68 59 67 62 30 24 16 38 57 45 45 42 42 38 38 33 69 82 70 38 49 69 65 10 2 1 2 2 3 5 16 30 40 46 52 56 47 30
83 84 42 76 93 90 84 84 78 73 58 40 27 39 62 64 60 50 49 46 44 42 27 37 46 42 51 58 71 60 9 2 4 7 13 16 22 39 54 60 59 59 56 48
95 76 60 97 98 95 87 93 84 79 81 72 40 35 56 55 59 67 68 60 52 40 35 28 32 31 60 53 64 69 77 35 7 45 45 40 41 75 76 72 66 61 61 71
100 88 86 100 97 92 88 99 82 83 84 65 49 46 63 66 64 53 51 50 46 37 28 25 13 12 17 30 39 55 68 42 13 60 63 78 79 92 80 79 75 73 66 63
97 84 87 95 95 94 91 99 94 82 82 79 61 61 70 71 66 65 52 50 42 31 21 15 7 9 13 26 37 46 62 69 33 28 25 32 78 95 95 79 76 76 71 66
100 86 99 81 95 95 91 94 91 100 89 79 77 61 72 64 68 71 69 44 46 30 24 11 7 8 10 13 37 41 46 54 66 37 16 53 89 92 90 96 92 76 78 76
99 100 96 72 94 98 93 97 85 96 88 83 76 61 61 57 59 79 61 48 56 51 40 30 27 14 11 8 8 23 33 39 52 68 62 47 57 71 86 88 86 89 81 80
99 100 100 78 79 96 86 95 97 87 69 81 84 55 59 57 44 70 54 56 42 58 51 34 27 15 9 10 11 7 7 11 16 26 37 46 60 77 81 79 75 75 86 91
96 98 100 74 67 92 90 77 97 100 62 72 80 53 47 50 45 50 62 66 49 42 39 28 24 16 13 10 8 7 7 7 7 8 10 15 29 46 56 54 51 52 51 56
97 100 96 81 81 78 95 97 98 96 95 80 68 45 45 50 51 52 59 74 73 34 43 30 21 24 26 14 12 10 10 12 10 8 7 8 10 18 22 22 22 22 21 20
81 91 95 98 85 84 98 96 98 95 97 94 60 40 36 52 54 50 49 60 71 37 27 21 23 29 24 19 18 23 26 23 18 10 7 6 7 9 11 11 11 9 11 12

GFSCGP_500_rhum_039.txt.gz
RH
15 8 4 5 3 2 6 9 21 53 84 74 61 53 36 43 35 62 76 85 82 41 19 7 6 11 20 24 11 6 14 14 28 24 17 18 22 23 27 29 21 20 44 32
18 10 11 10 8 4 3 3 9 41 74 41 51 48 49 46 30 58 57 80 87 86 62 16 6 6 9 27 13 5 25 27 28 24 20 22 23 25 26 24 10 21 52 29
13 18 24 14 9 6 3 2 4 17 89 50 66 40 27 34 38 43 43 88 90 88 62 25 6 4 4 15 12 6 13 25 29 22 18 18 18 21 21 14 8 28 53 29
8 20 29 30 16 9 5 3 4 11 77 53 73 45 31 26 35 42 64 83 80 78 76 70 18 4 3 14 9 7 18 25 32 22 8 10 15 15 14 10 6 12 48 32
7 12 26 30 23 16 9 4 4 6 57 84 61 33 46 35 33 57 57 92 76 74 74 69 46 8 4 9 8 9 11 35 36 25 8 10 13 12 11 9 6 8 28 22
8 11 22 24 46 33 16 8 5 7 32 50 45 44 15 28 25 57 56 84 61 76 80 93 78 11 5 7 10 8 5 7 28 14 8 7 6 6 5 6 5 10 14 12
13 9 13 33 53 56 29 14 6 6 27 3 12 41 5 9 14 46 59 87 60 72 78 91 76 14 8 7 9 7 8 5 9 14 9 5 5 5 4 4 5 11 13 14
16 14 9 23 35 56 43 17 6 3 2 2 6 7 4 4 8 35 50 76 67 75 78 91 78 36 10 8 9 7 7 7 6 7 9 9 5 4 4 6 8 9 12 14
37 14 12 29 39 60 47 22 14 7 4 3 3 5 5 8 11 26 60 54 58 75 88 91 96 37 12 9 8 9 4 4 5 5 8 6 4 3 5 9 10 10 13 14
45 19 14 12 60 69 57 37 27 12 5 3 3 4 3 6 13 15 33 25 46 74 86 97 95 78 21 9 7 9 6 6 4 4 7 4 2 2 6 12 11 11 11 12
28 28 27 25 59 49 60 35 22 28 8 4 2 2 3 5 14 21 18 25 28 58 74 92 95 71 53 11 7 8 7 9 9 4 3 2 2 4 6 12 11 10 8 3
50 29 52 35 26 50 81 54 38 18 8 4 3 2 3 4 18 38 28 29 30 40 65 87 94 78 57 25 8 6 5 5 7 7 4 3 10 14 10 8 6 4 5 17
84 31 50 49 38 49 88 69 32 14 17 8 5 6 6 4 11 45 72 60 50 26 43 84 93 79 53 68 8 7 4 3 2 5 5 5 15 9 5 4 3 11 20 18
95 52 45 55 46 68 72 64 46 30 22 11 6 15 9 5 7 30 72 77 46 22 36 72 65 64 64 72 9 5 5 2 2 5 6 8 9 4 4 3 12 22 26 30
99 65 34 62 76 64 52 53 47 34 20 11 8 24 16 29 30 32 49 44 16 21 46 69 55 55 64 65 44 7 4 2 2 2 3 4 4 4 5 15 27 36 32 23
96 100 34 53 71 77 66 82 56 42 30 28 13 34 48 54 46 44 38 36 20 9 41 74 61 45 46 52 56 19 2 3 2 2 3 3 3 7 22 36 45 43 33 28
99 78 44 52 81 100 100 94 87 71 46 34 14 32 52 51 44 40 38 39 25 13 46 54 49 57 41 53 69 51 9 3 3 2 2 3 7 23 36 51 56 53 48 37
100 72 59 76 84 99 97 99 100 79 44 21 17 38 50 50 42 39 40 43 40 27 40 73 82 80 56 58 68 93 62 9 3 3 10 19 31 40 51 56 62 64 54 54
100 71 67 86 93 97 97 100 96 86 52 26 22 31 45 58 51 40 49 48 48 48 63 58 70 66 67 63 88 82 77 39 20 7 27 44 54 54 58 74 83 82 66 60
100 95 81 86 88 96 97 93 93 97 61 38 29 33 46 64 54 42 43 61 52 53 53 47 44 36 40 44 82 68 66 69 62 41 34 44 78 89 89 82 85 88 76 65
100 100 100 97 81 96 91 96 94 95 68 49 39 40 45 61 60 58 49 62 69 66 48 43 36 46 48 50 54 57 49 72 77 51 27 67 82 96 93 88 84 84 83 77
98 98 100 98 82 100 96 94 92 77 65 52 39 39 42 63 60 64 69 64 64 55 45 37 34 28 51 65 80 62 56 62 76 82 38 42 36 88 98 93 88 86 79 82
99 97 100 96 86 92 86 90 96 71 54 58 51 36 37 55 61 64 65 67 57 50 47 33 34 27 18 28 62 69 55 45 63 86 82 60 44 24 97 95 100 95 88 90
100 98 98 74 78 98 89 73 96 90 56 53 60 35 33 51 56 62 63 66 61 55 51 49 48 38 27 24 14 16 25 34 49 64 85 93 92 56 60 87 89 82 81 97
96 96 98 92 85 79 97 82 91 95 68 49 45 40 31 52 68 66 61 62 77 70 74 73 74 70 58 48 28 12 8 11 20 33 47 55 65 71 66 66 70 74 80 83
89 82 88 98 73 76 72 95 98 91 73 59 40 38 31 44 60 67 64 64 75 81 69 80 80 80 76 67 45 22 16 11 9 9 10 12 18 28 37 44 55 67 67 68

GFSCGP_500_rhum_045.txt.gz
RH
4 6 13 22 9 4 5 24 36 37 52 71 99 84 67 58 40 36 20 20 11 4 6 19 28 26 14 11 20 20 7 6 7 13 12 26 20 24 23 30 30 43 35 38
6 4 8 24 15 8 4 6 24 54 33 45 73 73 92 70 59 48 26 30 26 14 8 5 20 27 25 13 14 20 8 12 22 15 13 24 19 21 21 26 28 34 28 24
6 6 6 11 26 16 8 3 12 58 52 39 54 78 73 86 74 42 38 29 26 31 15 7 5 21 25 16 11 19 11 14 25 19 14 20 22 25 22 19 33 27 25 23
7 6 7 6 16 29 17 8 4 37 62 60 52 48 67 80 83 44 44 46 45 43 27 12 6 6 23 18 11 14 12 16 26 21 14 20 26 26 18 14 41 27 21 16
7 7 6 7 8 30 33 16 7 9 51 63 42 29 51 77 78 66 52 51 60 59 42 22 5 4 13 19 10 8 13 15 28 17 13 22 26 21 14 8 45 37 23 17
5 7 7 7 12 12 48 34 17 8 8 46 35 30 15 38 72 88 73 54 70 65 55 38 11 4 4 15 10 7 13 15 23 26 17 23 22 19 14 7 19 46 27 24
6 5 7 11 13 16 31 46 35 18 7 2 11 24 4 28 40 59 60 67 73 69 55 38 17 5 4 7 10 7 14 24 24 27 21 20 17 17 13 9 6 18 29 17
7 7 7 7 14 21 24 52 46 25 11 5 5 4 3 17 22 28 42 75 92 79 61 49 30 5 5 4 12 9 9 19 26 28 25 15 11 15 12 8 7 11 20 10
11 8 8 9 14 25 25 24 47 50 21 10 5 4 5 12 38 30 47 80 94 84 67 58 44 15 4 4 8 12 10 13 22 32 32 17 10 13 8 6 6 9 11 12
16 11 9 9 10 20 38 30 59 63 38 13 9 5 3 5 16 28 58 75 94 95 81 62 44 35 6 4 6 11 11 11 21 37 36 21 10 9 6 5 5 9 12 12
22 19 13 12 11 10 24 61 53 60 45 26 16 8 4 3 8 34 53 75 89 84 93 73 54 46 8 6 6 10 10 10 11 20 30 16 9 7 6 4 5 6 11 12
35 24 20 12 10 12 11 31 45 70 45 35 28 13 7 4 4 18 48 90 89 90 86 84 63 50 23 10 7 8 10 8 8 6 14 18 11 9 6 4 5 8 9 12
43 36 26 14 11 11 10 13 45 39 43 51 39 18 9 5 3 8 22 76 83 87 87 95 89 86 48 12 10 8 9 10 9 9 7 8 12 10 8 4 4 10 11 12
34 31 27 22 18 17 16 11 23 57 60 39 46 37 16 7 4 3 11 56 74 77 85 91 98 93 92 45 14 12 9 9 10 7 6 6 6 6 8 4 3 10 12 11
32 23 21 18 12 14 11 10 11 46 44 38 42 39 26 15 8 6 6 18 62 70 78 79 91 89 83 89 60 14 11 9 9 7 6 6 6 7 8 3 3 10 11 8
39 35 32 18 16 12 10 7 10 41 34 26 35 43 32 18 11 6 5 17 41 68 76 78 81 85 80 79 81 37 14 9 8 8 9 12 8 4 4 2 5 11 9 3
54 80 92 63 60 45 11 6 9 33 38 30 27 40 35 21 18 6 5 9 28 45 71 72 75 78 83 69 64 71 33 13 8 8 6 6 11 6 4 7 15 9 5 6
59 65 63 70 100 100 19 21 16 28 29 30 34 33 36 29 17 9 8 5 16 32 40 47 58 70 82 66 83 89 66 33 12 7 6 3 5 7 6 12 14 6 4 11
71 90 100 100 100 93 60 96 35 31 36 28 36 32 39 32 25 15 11 5 8 20 26 28 43 60 71 85 97 95 62 42 17 7 6 3 3 7 7 13 7 4 7 23
87 100 100 100 98 100 74 100 45 43 54 33 36 35 48 39 36 22 12 8 6 7 14 14 24 36 68 78 84 99 93 51 21 8 4 4 5 7 7 5 4 10 25 40
100 100 99 100 86 98 72 100 85 82 58 42 38 42 52 39 35 31 28 39 25 7 30 40 40 35 50 74 96 99 84 67 45 11 4 3 3 3 3 3 9 26 38 48
100 100 100 97 99 97 83 97 97 79 60 42 36 49 40 35 45 49 54 56 30 42 51 41 19 38 45 75 97 95 74 96 64 22 5 4 3 3 4 10 26 41 57 66
99 100 100 100 99 97 100 79 85 77 62 42 44 56 38 40 50 55 64 47 42 53 51 48 49 48 69 88 87 80 88 81 73 35 20 8 5 8 14 24 33 46 67 73
100 98 98 86 97 96 98 83 98 92 92 40 47 58 42 41 51 55 60 48 48 58 53 75 66 77 81 91 97 89 76 93 76 59 64 36 18 15 24 35 45 57 68 90
100 98 94 76 92 98 88 82 94 89 83 49 46 66 59 38 41 52 61 60 57 62 71 71 80 82 90 81 85 96 93 91 69 96 94 74 90 41 35 55 57 71 64 83
99 100 80 69 65 94 79 85 92 95 93 89 66 58 65 36 39 50 64 65 64 66 72 76 74 66 58 53 77 73 90 68 56 72 90 100 100 97 76 44 61 86 85 96

GFSCGP_500_rhum_048.txt.gz
RH
5 5 4 9 21 11 5 4 37 47 73 100 100 98 72 65 43 24 11 5 8 14 19 18 16 14 13 18 18 7 6 22 38 13 23 26 25 31 33 36 34 36 38 30
6 5 6 4 10 20 11 4 8 43 48 73 100 93 90 82 74 54 32 17 11 4 12 20 18 16 14 16 21 16 4 7 26 12 14 22 22 24 30 32 35 28 33 35
7 7 6 6 5 15 19 9 4 39 45 53 87 86 95 80 80 71 56 27 20 5 4 8 18 24 14 12 18 19 6 5 7 10 12 19 20 20 25 29 32 22 21 26
6 7 7 6 7 5 21 19 5 7 26 47 70 81 78 75 83 80 68 46 24 16 13 4 3 18 27 13 11 20 10 8 17 12 12 18 21 20 20 28 28 20 23 23
6 6 7 7 7 7 8 29 14 4 11 54 56 60 98 84 84 80 72 65 46 30 37 16 5 4 20 20 10 19 14 9 22 14 14 18 21 19 14 32 25 19 13 11
5 5 5 6 7 8 7 21 34 12 5 23 24 45 47 94 74 76 85 76 62 50 52 35 10 3 6 14 10 15 16 11 26 21 15 18 21 21 16 15 40 21 16 12
5 4 4 5 7 8 10 8 38 35 11 4 10 17 20 64 89 74 90 66 68 74 64 55 44 13 3 8 9 10 14 10 24 23 13 18 20 20 15 7 33 39 24 17
6 6 5 4 5 9 9 12 16 43 30 10 6 6 6 23 25 59 96 70 77 87 76 62 54 32 5 3 10 7 11 13 20 28 16 15 20 19 16 8 7 24 36 20
11 14 6 4 5 8 9 16 9 38 77 36 40 6 6 11 21 42 82 83 69 59 86 71 60 37 5 3 5 10 8 12 17 19 23 19 19 17 15 9 7 5 22 13
13 16 12 8 7 7 12 14 37 35 60 31 53 24 27 4 10 28 79 93 82 61 96 78 66 46 26 6 3 8 8 10 23 26 24 18 17 13 14 9 7 5 10 12
25 23 17 13 10 8 10 14 60 85 39 31 40 37 30 10 3 23 42 58 58 61 93 82 75 67 56 18 4 4 8 8 19 25 23 18 15 9 13 8 5 4 7 12
42 35 26 18 14 11 9 9 17 88 50 17 70 87 80 19 6 5 41 36 42 66 95 93 87 82 65 45 7 3 7 7 11 15 26 24 16 8 10 7 5 4 6 11
51 48 41 28 20 17 14 12 10 21 33 61 66 52 59 30 9 4 17 51 48 73 94 95 89 83 67 53 18 5 5 7 9 15 28 28 20 10 8 5 5 4 6 8
73 63 48 43 49 61 29 19 14 12 20 35 26 99 95 44 23 7 5 28 41 72 90 88 91 82 68 56 42 8 6 10 10 12 18 24 29 16 8 6 5 4 5 9
95 82 71 56 45 43 34 26 18 12 10 16 35 96 67 36 34 14 5 15 43 64 91 87 84 82 76 87 80 23 8 8 10 9 9 7 7 14 15 11 8 4 4 9
100 88 84 60 50 44 38 31 21 11 9 10 18 28 29 26 39 20 6 7 43 72 94 84 83 76 75 91 91 70 38 10 8 10 7 7 6 6 8 9 8 7 3 5
73 55 46 44 38 37 37 31 24 12 10 8 12 23 54 17 32 31 11 4 12 32 84 79 80 81 82 92 96 78 72 49 14 8 9 7 4 4 5 6 7 8 3 4
63 68 67 46 32 58 29 25 23 15 13 8 9 17 44 21 28 34 20 9 5 16 56 75 76 80 78 87 94 95 81 79 39 14 8 8 7 8 7 5 5 6 2 6
99 98 84 76 55 36 17 20 18 16 10 7 7 12 30 20 29 40 33 16 7 7 27 70 72 73 75 70 91 96 84 68 74 39 11 8 8 8 10 10 4 3 5 11
88 86 70 54 59 44 42 10 12 17 12 7 7 9 28 19 28 44 42 22 10 6 12 23 45 53 68 70 89 90 83 92 76 45 31 14 8 6 4 8 6 5 12 16
65 65 70 78 87 92 100 97 99 79 30 12 6 8 19 25 43 41 42 27 15 7 7 17 23 34 59 73 77 82 89 82 95 73 48 18 9 7 4 3 5 6 12 10
99 90 86 99 100 100 98 99 86 94 42 40 19 8 22 24 47 51 40 26 16 12 9 13 17 26 56 71 66 72 93 96 92 92 46 22 8 6 4 2 5 7 10 5
100 100 100 100 100 100 98 75 98 91 75 65 44 10 21 24 49 51 34 21 15 15 10 7 13 18 31 46 67 70 96 94 97 92 53 25 9 4 3 4 6 6 4 4
100 100 100 100 100 99 92 87 97 98 84 70 46 19 21 31 62 48 36 24 32 45 20 14 10 12 21 29 36 71 85 90 93 97 52 39 11 4 3 3 3 3 5 14
100 100 100 99 100 99 100 98 98 98 86 67 54 30 29 41 65 48 37 32 56 49 43 48 44 36 39 40 34 54 86 70 82 82 46 44 28 7 8 13 9 13 25 34
100 100 99 99 97 100 83 98 98 92 90 67 54 45 48 63 59 41 38 49 62 56 49 61 46 34 25 32 39 57 82 78 64 71 82 49 48 37 22 26 64 96 87 74

GFSCGP_500_rhum_051.txt.gz
RH
5 5 4 4 11 20 16 19 22 76 74 47 75 96 97 65 18 42 10 4 5 18 18 14 13 14 11 15 15 12 30 48 45 44 33 21 32 38 41 42 46 38 26 44
6 4 6 6 5 15 19 10 20 64 84 42 75 88 90 95 50 48 26 11 6 8 15 13 14 14 12 15 16 5 27 50 25 29 25 19 30 32 38 38 38 38 21 34
7 6 8 8 6 5 13 21 7 16 55 45 48 89 63 98 63 55 47 33 27 14 12 15 16 15 14 12 17 10 6 33 31 10 19 19 27 27 31 33 31 34 40 23
8 7 7 8 6 6 6 26 21 6 16 31 60 71 88 48 90 60 56 57 49 21 8 6 12 16 15 12 14 18 4 6 19 10 13 18 23 23 26 32 22 22 24 21
10 8 7 6 7 8 6 14 28 20 6 5 63 80 98 62 74 73 58 59 54 38 21 6 6 12 18 13 10 18 8 4 5 6 10 16 20 20 26 31 24 25 23 27
10 11 8 7 6 7 9 10 12 23 18 6 7 73 87 97 89 94 64 61 56 52 38 25 14 5 5 13 9 10 16 7 8 15 11 13 16 18 20 31 24 17 13 15
10 9 9 8 6 6 7 9 11 26 27 16 6 12 46 95 82 98 90 60 58 58 59 42 45 31 3 4 11 7 15 10 9 22 12 13 14 18 16 26 26 17 11 11
23 10 8 7 7 8 6 8 23 28 41 9 13 12 6 58 96 93 97 63 64 50 60 50 52 49 35 6 8 10 8 15 9 21 17 15 15 18 18 10 40 25 19 12
28 45 13 8 6 6 28 36 8 60 70 52 44 22 13 22 52 69 97 78 96 51 48 50 52 52 54 40 5 11 10 13 12 18 25 17 15 17 18 11 9 36 29 19
14 9 24 10 6 5 6 13 57 50 80 76 67 53 42 30 11 41 44 41 47 97 60 52 54 57 62 54 16 4 10 8 13 13 24 16 12 18 18 12 7 6 25 23
11 7 24 8 5 6 6 5 21 96 86 75 78 62 60 55 46 12 18 49 46 64 68 61 55 47 62 68 32 5 5 8 10 12 23 19 11 18 17 13 7 6 5 19
37 20 15 9 9 9 9 66 33 50 59 86 70 68 74 72 70 43 18 12 41 64 100 70 57 52 63 72 52 36 6 7 7 10 15 20 16 16 15 13 8 6 5 10
39 29 32 20 13 9 7 8 11 54 82 94 89 76 89 94 81 66 22 5 30 57 86 85 74 53 70 68 63 61 24 4 8 7 14 21 19 13 14 11 10 6 5 6
57 51 41 34 80 64 50 23 20 50 90 88 100 96 93 99 98 98 44 20 17 67 97 91 70 48 77 72 68 58 43 8 4 9 7 23 25 14 13 9 9 7 5 4
86 79 68 46 62 65 41 22 18 16 16 90 90 94 89 97 97 99 73 27 8 31 70 86 57 61 79 78 67 68 60 14 4 6 8 9 16 24 18 13 7 6 5 4
91 83 90 68 71 72 58 42 25 17 12 11 39 80 91 96 90 86 64 86 14 9 43 61 64 73 69 78 71 70 68 45 9 6 8 10 11 23 29 27 11 7 5 5
88 90 100 84 87 84 78 61 47 31 19 11 10 12 54 74 86 95 50 54 14 7 13 50 41 62 62 77 76 57 68 74 30 9 9 10 10 12 14 20 24 13 8 7
82 95 98 85 96 100 97 72 63 54 40 26 11 8 14 82 99 100 81 86 33 10 7 25 43 43 66 75 72 62 80 69 57 28 9 9 10 10 9 7 8 14 13 9
54 53 62 80 85 75 83 100 65 55 38 33 17 7 7 18 77 100 39 37 28 9 6 9 26 49 73 78 65 53 60 71 82 63 28 10 8 9 9 7 5 5 7 8
100 86 100 78 58 58 48 88 96 56 46 37 24 12 8 9 18 34 42 15 39 20 9 6 29 61 71 90 82 64 68 69 80 74 53 45 15 8 8 7 7 7 5 4
100 93 81 61 64 56 55 83 67 46 34 35 32 21 14 9 9 23 20 28 41 32 14 6 16 47 74 90 82 75 71 58 77 78 68 69 35 17 8 8 8 8 10 6
100 95 94 98 100 95 79 82 53 23 22 28 26 26 17 11 10 10 12 16 42 43 33 17 7 18 37 52 67 78 78 76 78 73 90 67 60 35 16 9 8 6 5 7
100 100 100 100 100 100 100 100 94 65 88 25 34 23 18 19 8 7 11 16 38 42 37 21 16 8 15 34 67 78 82 81 80 76 80 63 70 47 24 11 7 6 4 3
100 100 100 100 100 100 100 100 98 99 100 64 19 27 18 12 6 7 10 23 69 56 42 23 16 11 7 13 40 79 78 78 78 75 92 76 81 60 28 10 6 5 4 4
100 100 100 100 100 100 100 100 100 99 99 97 96 42 16 5 4 6 19 36 70 63 41 27 15 9 5 5 8 30 55 72 79 72 71 85 97 76 31 12 5 4 3 5
100 100 100 100 100 99 100 98 96 97 79 79 85 75 32 6 4 8 33 43 72 61 37 25 13 8 5 4 4 13 33 58 75 75 66 60 74 82 38 18 5 4 3 4

GFSCGP_500_rhum_054.txt.gz
RH
6 5 3 4 8 16 7 23 28 22 79 82 64 85 91 67 72 40 26 6 4 4 6 16 13 12 13 12 16 10 16 35 43 33 30 25 34 36 39 43 37 20 40 58
5 4 6 5 5 14 16 9 16 47 73 94 97 70 90 95 65 25 33 18 11 11 6 13 14 12 13 14 17 8 20 41 41 34 25 23 33 35 39 43 33 25 41 49
8 6 7 7 6 5 10 15 10 44 69 93 98 87 54 87 82 98 45 35 17 21 22 11 12 13 13 13 16 8 17 45 29 30 23 24 30 31 30 36 29 26 26 26
11 8 7 7 7 7 5 10 19 9 68 81 75 84 40 49 98 97 89 50 27 34 30 16 7 13 15 11 14 14 9 40 25 13 19 23 28 25 24 26 31 38 22 25
12 10 8 6 8 8 7 8 20 24 10 47 88 68 58 93 46 32 98 70 49 45 37 25 8 10 12 13 10 15 8 14 35 18 13 18 25 24 28 17 20 22 27 37
16 16 10 8 7 7 9 8 8 16 25 16 7 15 34 98 99 60 78 97 88 52 33 24 23 5 6 8 9 8 13 4 15 16 10 14 20 22 28 21 19 23 21 46
20 15 13 11 8 7 8 8 10 12 18 4 9 7 3 60 100 95 81 80 46 58 39 27 21 32 19 5 9 9 9 9 4 6 7 11 15 19 23 28 19 16 10 16
19 16 14 14 14 10 8 8 13 10 9 5 5 6 5 4 69 81 64 40 66 58 55 38 26 27 43 40 7 9 9 12 7 8 16 11 12 16 18 25 24 16 10 10
18 31 45 26 15 16 19 56 9 25 60 37 49 20 6 10 28 87 99 43 97 74 75 50 39 26 28 41 45 16 11 8 14 10 18 14 11 13 18 15 26 20 16 12
11 12 36 63 46 22 17 23 91 57 56 52 66 62 52 33 13 38 58 49 40 92 96 84 57 54 33 27 37 45 11 9 9 14 10 16 13 12 17 17 10 30 28 21
6 9 25 85 39 32 20 11 44 63 86 29 66 61 57 57 54 46 41 39 14 56 98 93 50 93 68 44 24 42 40 6 6 12 13 17 19 13 15 17 12 7 23 33
9 7 7 27 47 48 25 20 37 75 73 44 72 49 56 65 66 62 58 43 48 46 44 54 82 51 79 38 28 36 44 6 6 7 13 12 21 16 13 16 13 8 5 8
22 12 10 7 12 44 23 9 16 49 32 61 57 60 62 81 82 85 72 68 45 76 98 85 60 46 46 51 25 27 55 43 18 6 8 12 17 19 10 16 13 8 6 5
36 52 39 25 52 79 77 35 16 37 68 55 53 94 60 82 94 92 79 75 66 96 99 72 37 58 95 56 51 21 49 60 54 9 7 8 12 19 21 15 15 12 7 6
76 72 66 41 45 85 49 39 25 24 8 52 45 85 66 95 95 97 84 78 71 61 56 33 66 41 95 33 46 24 35 58 57 40 4 7 8 12 19 19 14 12 10 7
88 76 76 65 67 71 43 43 39 23 11 21 27 60 61 97 66 100 92 85 77 51 87 98 45 100 86 18 14 15 27 55 61 46 14 4 7 8 19 26 19 14 9 9
100 77 74 57 69 80 78 55 55 45 21 8 7 5 79 100 68 93 97 100 76 43 31 86 57 46 22 96 25 16 19 59 66 54 31 5 5 8 8 17 22 23 19 10
43 51 97 83 87 98 60 63 58 65 32 22 12 6 27 90 77 86 98 92 91 46 27 36 46 30 52 98 70 41 40 61 64 55 43 12 6 8 9 10 14 26 31 21
41 32 65 85 100 94 76 78 88 99 83 64 41 20 7 51 94 80 98 98 99 59 62 20 11 5 7 20 22 18 34 62 64 50 51 30 9 8 8 8 10 11 12 16
100 77 57 58 74 80 70 86 100 100 64 54 42 27 13 7 34 84 97 96 100 75 77 28 14 6 5 16 41 33 19 47 68 48 66 69 48 15 9 9 10 9 8 7
99 100 92 73 75 52 52 68 90 99 61 65 46 25 15 10 5 68 98 96 91 98 62 34 17 10 6 13 27 39 22 60 64 60 71 78 73 45 22 10 9 9 8 5
100 100 100 85 94 76 67 42 46 53 55 52 51 44 31 19 9 6 24 82 97 84 93 44 21 12 8 7 18 30 26 48 72 68 68 63 67 66 52 29 15 9 8 6
100 96 95 98 91 93 81 65 38 35 29 30 34 43 44 31 17 9 15 30 60 100 84 50 37 19 9 8 10 18 44 63 81 76 70 58 63 59 68 43 31 18 8 7
100 100 100 100 100 93 97 98 96 98 82 64 26 27 42 30 28 27 16 14 27 71 66 38 46 29 15 10 10 28 71 86 80 84 79 75 63 70 59 57 42 25 14 8
100 100 100 100 99 100 100 100 100 100 80 99 39 24 29 53 37 34 17 10 7 12 34 30 40 42 24 9 8 14 55 73 56 63 81 82 75 64 70 57 73 37 20 10
100 100 100 100 100 100 100 100 100 100 100 97 71 22 32 44 39 33 28 20 17 8 7 13 39 56 35 21 11 7 9 25 45 35 71 83 82 66 61 64 74 62 20 12

GFSCGP_500_rhum_057.txt.gz
RH
6 4 3 5 8 12 7 3 12 21 83 63 45 71 66 94 92 83 59 33 7 8 15 13 16 12 10 14 18 13 13 24 19 26 25 29 28 26 35 36 25 30 52 51
6 4 6 4 5 11 12 7 4 12 51 81 89 91 100 71 87 87 81 32 6 6 14 18 15 12 11 12 20 10 14 34 37 30 22 25 30 35 40 32 24 44 56 75
8 7 7 8 6 5 10 11 9 8 52 68 78 84 84 72 85 85 97 49 36 13 6 15 14 13 12 12 18 10 16 32 36 29 20 24 29 30 34 39 27 38 43 33
10 9 8 6 6 6 6 10 19 11 20 59 82 96 100 76 94 90 96 85 48 26 23 14 12 12 13 13 14 11 13 39 30 23 18 24 24 25 31 26 28 22 24 30
14 13 11 8 6 7 6 9 13 22 15 13 48 84 96 94 93 83 66 94 49 35 35 20 14 12 14 14 12 16 10 28 26 20 17 22 24 24 21 25 33 16 34 28
20 16 12 10 8 7 7 10 6 9 20 12 12 45 55 88 74 63 76 71 74 48 35 23 18 9 7 13 13 14 10 11 38 16 14 18 20 23 15 17 22 32 28 22
27 23 18 14 10 9 8 8 9 7 8 3 13 23 11 22 46 50 72 82 90 63 52 28 27 24 22 8 14 13 14 8 18 29 13 14 20 23 23 18 21 18 34 42
27 25 22 19 16 10 9 10 9 6 4 4 11 11 7 14 46 70 77 88 92 82 87 64 34 38 41 20 9 10 13 12 7 14 13 10 16 20 25 25 17 14 8 16
25 25 24 22 21 24 22 13 11 10 7 14 13 8 9 17 37 64 48 59 66 72 75 67 42 73 48 50 30 11 8 12 12 5 5 7 12 17 18 26 25 16 11 10
20 22 29 40 32 21 28 29 44 22 12 10 7 5 14 58 56 50 34 26 39 82 82 85 82 57 72 64 57 45 22 7 9 11 6 13 12 11 16 17 22 23 16 12
16 18 32 47 37 51 30 20 30 34 17 14 18 5 10 70 78 71 61 56 51 59 70 21 89 83 65 66 61 64 56 34 7 7 11 10 19 10 12 15 15 19 23 20
10 11 16 34 39 32 41 38 35 40 34 20 18 5 34 75 83 69 65 57 55 55 69 34 18 88 69 41 35 57 64 59 16 7 8 11 13 12 11 13 15 12 13 29
29 12 7 17 60 71 39 58 52 55 31 26 46 6 58 74 87 92 78 70 71 73 70 67 22 25 77 71 60 39 50 60 45 6 6 9 11 16 15 13 14 14 8 7
18 35 38 8 33 78 63 44 42 63 67 32 62 16 51 74 90 97 81 57 70 67 78 86 78 20 32 60 70 36 35 43 50 39 11 6 10 12 17 17 12 15 13 6
12 11 38 46 32 26 48 63 45 24 28 23 30 25 45 73 88 95 97 71 64 78 76 87 69 16 35 90 62 48 37 30 50 54 55 18 5 10 13 17 10 12 13 10
21 18 17 29 62 53 37 20 30 15 12 18 17 19 57 70 91 97 97 98 94 96 78 57 41 32 16 17 65 56 41 42 42 66 60 47 7 5 11 16 21 15 13 12
31 33 59 26 53 68 65 39 33 21 9 12 11 12 38 64 66 88 95 98 98 98 86 72 48 28 17 22 89 71 56 54 74 62 73 52 28 4 5 10 16 19 15 14
51 42 98 90 98 87 43 75 66 65 30 15 15 20 23 20 42 79 85 93 96 94 94 79 62 49 51 40 55 60 56 24 92 82 80 60 42 8 4 6 10 20 22 14
63 66 50 45 58 72 71 52 74 72 50 50 34 28 12 7 22 35 94 92 99 95 96 74 69 45 33 48 33 88 93 81 42 71 87 66 42 18 4 5 7 10 20 22
97 95 94 90 86 69 60 90 100 91 56 70 80 47 14 8 6 56 78 83 100 98 98 75 50 35 45 43 64 88 59 96 64 54 86 86 66 34 8 7 7 6 9 13
81 84 89 100 100 83 61 67 87 94 38 52 54 35 14 12 10 9 68 98 100 97 87 90 78 50 41 49 66 74 54 70 35 50 71 80 92 70 33 10 8 8 8 8
91 82 82 83 98 100 91 71 62 61 57 42 55 48 28 18 14 12 22 79 96 96 97 97 80 56 48 52 39 36 97 25 44 45 75 90 77 90 70 37 17 9 7 8
74 80 91 92 99 88 76 71 71 44 30 43 42 47 33 27 16 15 12 17 65 84 78 97 94 94 74 69 46 27 24 40 16 42 79 98 68 70 77 63 53 28 12 8
99 91 84 90 99 93 98 77 60 58 38 32 29 23 24 23 17 9 17 11 15 64 74 97 96 99 54 58 51 35 27 9 10 33 46 81 69 68 61 65 63 54 39 27
65 98 100 99 93 100 95 89 83 70 68 60 48 33 20 17 18 12 15 18 8 10 61 94 96 98 82 96 52 34 23 13 12 14 29 60 72 66 69 63 64 60 53 40
29 29 67 99 100 91 96 96 92 94 90 96 86 77 53 54 29 13 11 13 11 8 27 54 93 95 58 52 50 30 13 10 9 13 11 42 65 72 68 69 56 48 55 54

GFSCGP_500_rhum_060.txt.gz
RH
6 4 4 5 9 11 6 3 7 32 52 85 73 54 86 79 99 86 89 47 21 10 7 9 17 14 9 16 20 19 12 10 15 23 30 35 26 26 36 36 34 48 55 50
6 5 6 5 6 13 11 5 4 12 49 39 47 50 75 71 93 84 87 77 28 8 8 12 16 15 10 14 22 18 13 11 17 22 28 31 30 33 42 26 30 48 63 60
8 8 8 7 5 7 12 11 7 18 35 41 40 36 68 76 87 80 76 76 24 9 12 15 20 14 12 11 21 13 19 31 38 26 28 30 38 36 42 30 36 42 56 33
11 10 8 7 7 5 7 16 15 20 33 43 46 59 47 80 90 68 84 81 45 38 9 11 15 13 14 13 16 13 18 28 44 33 31 29 30 35 39 29 36 41 33 34
12 13 10 8 7 7 6 9 20 18 25 40 53 44 61 53 82 82 85 87 71 54 25 13 13 14 14 14 13 19 15 26 48 42 28 27 32 35 35 31 25 22 33 38
20 16 12 10 9 8 8 7 11 25 19 20 44 53 51 60 42 59 57 98 60 69 34 18 12 11 13 14 13 17 11 33 45 39 25 24 31 30 28 32 27 32 33 26
27 23 17 14 12 10 8 8 7 10 19 18 41 50 39 57 32 40 62 88 98 70 80 47 17 9 6 13 15 15 14 19 48 21 20 21 27 27 22 23 30 36 30 32
32 28 23 18 16 14 10 9 8 5 5 14 34 58 49 61 75 82 71 84 76 80 80 61 33 22 10 11 15 15 17 14 28 47 19 16 22 24 26 24 24 28 43 42
33 30 28 25 21 18 16 12 12 10 6 8 13 25 55 81 82 57 40 75 68 94 75 82 71 28 26 11 10 15 14 16 16 16 38 16 16 21 22 26 27 20 14 20
32 32 31 28 26 23 22 33 38 21 15 12 8 14 32 50 43 47 32 44 36 38 24 87 90 38 35 31 9 8 16 14 14 18 10 17 12 16 20 21 26 26 16 10
28 29 30 31 28 27 26 26 34 28 26 19 15 22 37 60 59 56 40 57 60 51 47 36 94 81 55 56 51 22 6 13 12 13 11 5 7 11 15 18 19 22 24 14
21 18 24 35 44 38 32 30 21 20 37 22 22 24 25 62 74 57 48 35 42 61 62 50 26 38 43 58 62 54 42 14 9 12 12 11 5 12 12 14 18 18 19 25
18 23 17 42 68 66 53 38 28 23 26 32 37 38 42 64 72 78 48 49 44 68 63 77 56 40 32 49 57 67 56 52 24 8 10 12 12 12 18 13 16 18 16 14
7 8 20 19 64 78 67 61 40 28 26 25 47 88 38 56 76 72 66 59 51 69 72 76 82 54 32 52 55 66 62 63 60 23 7 9 12 14 14 17 15 16 17 15
10 9 8 11 22 72 90 76 66 40 37 28 35 83 51 48 70 69 70 64 61 66 91 82 94 43 32 35 35 53 45 49 67 58 12 6 8 12 14 16 22 16 16 17
16 12 14 15 10 22 64 94 86 58 46 38 35 62 27 62 52 74 68 63 54 69 75 76 64 46 48 52 58 41 40 37 44 70 70 54 10 7 11 13 14 24 16 16
20 18 20 20 15 10 20 39 88 87 69 53 41 38 36 46 62 72 72 92 65 65 64 65 45 47 72 40 22 26 66 62 41 60 98 72 60 35 7 9 12 21 18 14
35 33 33 25 27 17 8 27 33 66 81 66 48 40 30 25 83 67 86 89 97 72 75 63 37 50 75 47 56 72 59 48 57 39 70 78 69 52 23 6 9 12 22 23
50 48 49 42 53 39 53 42 45 45 44 73 60 42 21 16 44 69 87 89 97 96 92 73 41 46 57 56 40 33 33 46 56 39 53 57 66 56 35 7 6 10 12 17
60 64 68 62 63 57 49 42 55 55 48 39 21 22 10 8 20 41 74 97 95 97 100 81 54 28 34 79 65 86 64 66 59 63 55 56 76 52 36 8 5 10 10 13
55 60 62 65 65 61 60 78 83 82 42 58 51 41 18 8 9 11 25 71 97 96 97 95 81 42 36 52 66 47 57 80 94 95 93 70 88 53 33 10 6 8 12 11
63 71 76 80 81 77 76 74 67 62 56 51 56 52 42 20 12 12 9 14 60 98 97 96 98 69 33 63 84 69 40 37 65 59 78 92 87 56 40 16 9 10 11 12
69 76 80 81 87 87 84 83 82 65 43 46 41 50 40 32 16 15 11 8 12 68 97 96 92 93 72 70 61 53 30 44 88 69 91 94 94 78 66 49 32 9 10 10
28 32 65 77 81 81 84 85 81 76 70 56 33 30 35 31 29 21 12 10 7 24 65 96 96 96 60 65 78 54 35 52 82 89 84 82 95 88 85 86 67 39 22 14
22 28 32 34 63 100 89 72 64 60 62 53 42 30 17 19 25 27 18 10 10 7 47 77 89 90 94 88 89 61 63 30 49 72 67 74 90 96 96 93 94 65 57 57
18 17 18 25 25 34 88 100 89 66 54 55 55 57 46 30 15 12 16 13 11 10 7 30 79 100 54 81 98 77 62 51 60 51 81 55 62 87 94 94 80 78 68 63

GFSCGP_500_rhum_063.txt.gz
RH
7 5 5 9 15 14 8 6 20 42 44 31 27 53 78 70 88 86 100 92 26 18 13 26 18 13 12 19 15 20 23 18 23 25 37 35 39 29 35 45 52 67 63 40
7 7 7 5 9 16 14 7 7 28 39 40 34 37 46 71 74 83 90 89 70 16 9 18 17 13 12 17 14 18 15 12 20 39 33 30 34 51 43 44 52 70 80 32
8 8 9 8 6 9 16 14 7 33 38 27 34 36 33 44 60 69 81 80 69 14 8 18 20 13 11 14 13 16 9 13 19 28 31 36 50 48 41 48 55 73 71 29
13 11 9 9 8 6 9 23 17 27 23 34 22 30 39 48 72 78 68 70 65 11 8 23 23 14 14 13 11 16 8 17 24 28 30 39 43 46 38 35 47 56 35 27
14 15 11 8 9 8 11 20 36 73 39 31 31 17 27 42 64 68 57 77 75 20 10 20 24 12 12 11 15 15 21 40 46 32 27 33 36 42 28 39 37 33 42 38
16 16 14 12 10 9 15 10 20 32 43 28 30 21 24 23 36 55 49 58 59 60 40 28 26 14 13 13 12 11 19 38 40 34 26 30 35 42 35 32 22 40 37 33
27 23 18 15 14 11 9 12 12 16 24 24 34 37 30 36 25 42 42 32 52 58 47 16 16 13 12 14 12 14 15 28 44 45 26 27 32 34 34 33 24 40 36 39
30 26 24 19 16 15 11 10 9 9 10 24 34 47 46 39 40 35 54 48 71 74 45 39 20 14 13 13 14 16 12 26 39 42 29 24 28 29 29 28 36 35 36 35
38 35 26 24 20 18 16 13 12 10 12 14 32 44 54 55 42 39 53 18 78 95 57 64 51 24 10 12 16 15 17 13 40 32 24 22 25 27 27 29 30 32 39 45
43 39 36 29 26 23 21 21 19 14 14 12 13 32 42 54 48 38 32 16 47 94 93 76 60 55 28 12 13 15 15 15 14 44 37 18 21 23 23 25 28 29 24 26
40 40 38 35 32 30 28 27 23 24 18 18 22 19 17 25 42 48 27 19 12 35 74 67 63 70 63 26 19 16 14 14 17 13 38 43 19 19 21 22 24 28 24 13
29 32 33 40 36 34 31 34 30 30 32 27 32 20 20 22 26 29 26 23 16 28 52 50 38 97 79 62 60 38 17 13 14 15 14 18 26 16 16 20 20 22 27 20
34 29 26 47 49 38 36 35 38 40 44 40 35 25 17 21 24 32 32 31 20 15 28 24 28 89 96 84 58 56 40 18 10 15 14 16 11 11 12 14 18 19 19 24
10 19 29 34 64 62 62 50 42 42 57 56 33 28 21 14 23 53 40 34 34 48 32 23 23 57 94 95 56 58 60 46 28 8 12 14 14 11 6 10 14 17 18 17
10 8 8 14 37 67 64 73 61 55 59 60 44 29 33 21 17 26 62 39 29 36 58 39 42 58 73 74 72 47 55 56 51 40 12 10 14 14 13 9 16 15 17 20
8 9 10 8 7 24 68 79 86 72 65 53 40 40 48 39 28 23 22 46 38 37 39 37 45 46 64 63 46 43 48 60 55 47 44 16 9 11 14 14 14 16 16 17
16 13 15 16 11 11 11 42 84 95 84 62 54 45 31 48 46 36 29 37 54 51 41 35 50 67 79 87 29 54 57 80 68 48 54 54 23 8 10 14 14 16 18 19
24 21 18 19 22 16 16 15 15 78 93 86 62 47 44 42 45 48 36 38 62 60 50 39 45 67 90 75 62 50 58 78 63 50 45 50 40 24 9 9 13 14 16 21
36 34 35 30 28 29 31 29 25 16 47 92 84 60 46 44 41 41 46 42 55 64 66 53 36 84 97 77 86 65 51 84 64 52 42 43 43 46 30 14 8 10 14 16
42 40 36 34 27 18 27 36 35 32 18 26 87 72 55 51 34 42 33 49 55 83 69 58 52 32 42 42 61 61 68 48 47 63 52 44 52 57 54 44 22 7 8 12
41 41 39 40 37 34 32 33 39 42 24 20 26 72 74 52 33 41 33 31 45 78 91 64 57 46 30 30 24 82 78 74 63 72 70 61 50 65 68 54 53 37 6 7
46 45 46 45 43 49 54 60 57 54 45 46 31 30 53 65 43 32 40 28 30 44 89 95 74 70 42 34 29 39 50 68 76 66 65 75 65 55 55 61 62 56 27 14
30 29 38 44 50 56 56 58 66 70 69 75 65 43 27 38 71 35 39 30 24 25 68 72 95 84 67 44 34 31 32 76 46 80 57 81 90 74 75 82 75 46 22 9
14 14 14 16 22 30 56 69 81 80 79 81 80 70 38 26 32 42 44 31 12 18 25 73 75 97 92 60 41 34 35 43 55 46 46 75 69 95 92 95 95 70 22 9
22 24 21 19 18 16 20 33 64 82 86 81 77 73 74 41 26 32 36 38 16 7 11 28 59 62 79 96 64 55 34 39 35 39 38 36 58 72 94 96 96 74 42 16
25 27 28 21 19 16 13 14 20 39 80 85 80 64 50 57 54 29 24 29 35 21 8 7 15 50 57 67 97 69 54 42 34 35 50 23 31 55 79 92 94 90 69 68

GFSCGP_500_rhum_066.txt.gz
RH
6 5 8 16 14 9 5 4 6 15 40 42 51 56 68 57 70 95 98 95 52 16 26 22 21 17 12 14 17 29 40 17 31 26 33 32 30 42 49 54 68 84 66 46
9 8 7 8 15 17 11 6 6 7 18 40 36 48 54 62 73 66 84 100 69 12 21 28 22 16 13 16 14 21 32 21 24 28 32 33 29 36 48 53 77 66 41 32
10 10 10 7 7 17 18 14 10 10 6 27 33 32 42 45 80 73 68 84 72 48 14 30 27 15 12 16 14 19 20 16 23 28 30 28 48 41 43 47 69 88 46 36
13 10 10 11 8 8 18 21 15 11 6 7 21 32 29 32 54 72 68 70 68 69 16 23 26 14 11 20 15 16 15 17 24 28 30 30 39 42 51 48 68 72 38 35
15 14 11 10 10 10 16 24 21 17 10 5 10 18 34 33 37 67 74 64 62 73 15 14 23 17 11 15 18 16 12 14 24 26 26 35 39 42 42 47 62 36 31 48
20 17 16 13 11 11 15 18 23 20 21 12 9 11 30 37 59 82 80 61 57 75 46 32 19 13 12 11 18 15 11 12 29 28 22 31 36 36 39 48 42 45 43 44
31 22 18 16 13 12 13 13 23 29 34 29 32 18 23 19 43 70 67 51 50 70 68 58 26 16 13 13 14 14 17 32 40 31 23 30 32 35 35 31 32 38 38 26
38 31 25 18 15 13 11 12 13 16 29 42 50 36 20 22 20 27 40 28 36 52 52 46 21 16 13 13 13 16 14 25 41 32 22 29 30 34 32 29 33 32 33 37
42 37 32 26 21 18 14 12 13 14 18 26 40 37 20 23 24 30 38 31 52 91 61 46 23 16 15 14 14 14 18 17 31 46 22 26 30 29 32 29 38 37 36 32
50 41 35 30 27 26 23 19 17 14 15 15 17 19 24 16 20 32 33 27 40 94 80 59 52 28 20 14 15 15 17 15 24 40 45 23 30 27 27 26 34 33 38 43
54 49 43 37 31 28 28 24 22 24 15 17 16 13 11 12 16 23 35 35 21 94 99 91 76 62 28 14 13 15 15 16 14 42 38 23 25 27 25 26 30 30 31 35
38 39 46 44 38 34 30 30 28 26 24 17 22 22 17 12 10 14 22 26 31 72 97 98 91 89 34 27 12 15 15 15 16 15 44 36 19 22 24 25 25 27 25 16
42 35 38 54 49 39 37 32 34 33 31 26 32 20 17 18 18 10 10 14 21 26 85 91 89 83 72 53 31 12 19 14 14 15 14 34 38 27 20 21 23 23 25 24
44 45 34 35 47 49 42 38 36 35 35 29 29 23 19 19 19 20 12 8 9 15 18 41 76 69 84 77 65 36 33 15 12 12 14 10 23 31 24 17 17 20 21 22
26 31 34 30 29 40 47 44 38 37 34 34 36 31 25 21 19 22 20 13 8 10 18 34 35 64 53 96 94 94 82 62 28 8 10 12 11 13 21 14 13 15 18 19
10 9 9 10 23 26 34 52 54 46 42 37 33 37 32 27 23 22 27 27 14 11 31 25 15 21 27 69 94 96 94 77 73 55 18 10 9 10 9 12 10 11 13 15
14 17 18 11 9 9 14 28 37 48 54 48 38 41 39 37 29 26 26 32 52 26 24 38 28 17 13 39 65 80 96 83 73 65 53 45 26 10 9 10 8 6 10 12
12 22 22 18 16 12 9 9 11 27 53 61 48 48 43 40 38 34 28 28 49 57 35 36 50 36 22 27 75 88 93 96 87 63 62 65 48 47 17 8 9 8 7 14
17 21 22 17 19 15 12 12 12 11 11 13 38 51 36 42 40 42 36 31 30 56 59 41 42 43 36 30 49 83 97 95 58 68 63 68 57 57 57 32 7 9 10 12
29 32 34 32 35 36 34 34 28 21 18 19 16 13 32 47 24 48 43 38 33 33 40 56 45 49 47 38 36 61 85 85 68 69 71 68 67 66 65 56 41 24 14 12
44 43 42 38 36 38 39 35 28 17 17 22 18 17 17 12 18 27 39 34 36 36 35 37 42 53 58 50 41 34 67 92 65 61 65 84 73 59 61 54 44 39 21 11
36 37 39 40 39 44 43 40 34 28 26 27 24 24 22 16 13 12 33 28 28 31 33 33 38 58 66 52 50 25 50 88 79 76 77 85 70 76 73 70 61 55 43 31
16 23 25 24 23 28 33 41 43 44 40 38 39 36 29 25 22 13 9 32 20 16 28 33 33 42 70 78 72 65 58 72 66 65 71 68 71 79 66 76 75 66 58 54
13 15 16 13 15 17 15 15 16 28 50 59 55 45 40 38 37 34 20 10 18 16 13 22 29 35 58 94 79 81 79 51 38 49 79 78 74 71 72 78 82 70 67 67
14 17 19 19 18 17 18 24 26 22 15 13 34 61 65 52 42 34 30 24 12 13 19 16 19 26 45 94 85 90 62 60 50 26 35 71 82 94 95 90 86 74 76 89
43 40 40 29 24 31 35 29 28 25 19 12 12 17 43 64 62 51 39 35 32 12 9 15 14 20 25 73 84 100 98 60 57 36 29 72 79 89 85 59 78 93 96 91

GFSCGP_500_rhum_069.txt.gz
RH
5 5 7 14 9 4 5 10 18 23 39 44 32 31 81 78 75 76 78 94 88 84 48 12 19 19 13 12 16 29 30 29 23 21 30 26 27 45 40 45 63 43 46 49
8 7 7 10 14 10 5 4 5 9 28 43 49 54 82 74 77 74 72 85 77 41 31 14 17 22 14 15 15 35 45 18 19 24 26 28 39 49 43 56 76 59 39 45
11 11 8 6 11 17 14 8 5 4 9 32 46 61 66 75 80 80 92 94 81 64 14 15 15 22 15 17 14 26 52 19 27 28 31 27 32 44 44 63 68 52 46 35
13 12 11 8 7 13 23 18 9 5 4 9 28 51 55 66 90 80 98 100 93 69 32 13 10 19 14 16 15 19 31 20 23 30 29 24 31 42 44 66 86 57 49 39
17 13 11 10 10 9 18 23 17 13 6 5 17 40 49 56 94 86 95 94 90 81 71 12 16 16 13 11 14 18 22 15 23 28 23 25 41 45 40 62 73 57 42 41
23 18 13 12 13 13 10 15 20 18 13 7 6 24 42 50 70 89 80 78 67 68 59 18 12 12 14 10 13 15 19 14 23 26 24 35 35 41 39 59 59 36 29 39
27 21 18 14 12 12 12 9 16 20 17 12 8 12 33 50 52 73 66 75 74 59 48 23 31 28 17 12 11 14 16 13 19 27 24 33 39 37 40 48 48 36 41 42
38 28 21 18 15 12 12 12 10 10 10 11 14 12 17 35 45 55 77 87 73 57 53 38 26 27 24 14 12 17 17 12 13 28 29 29 36 37 36 43 37 45 38 36
45 39 28 22 19 16 14 12 13 14 14 13 18 17 25 22 25 37 87 81 51 61 82 60 34 27 26 14 13 15 18 19 21 40 33 27 34 38 35 34 34 41 34 26
46 42 38 31 25 20 15 14 14 14 15 17 15 22 16 25 27 26 38 36 33 65 99 85 40 19 27 17 14 14 17 19 25 44 34 28 32 31 34 36 30 41 36 37
48 46 40 38 34 28 20 16 14 17 14 16 14 14 13 12 17 27 26 28 33 52 87 98 99 37 23 17 14 15 15 18 19 34 42 30 25 28 28 33 30 40 38 36
95 72 48 38 36 34 31 23 18 16 18 14 15 11 12 9 9 16 28 25 36 50 76 97 97 87 63 57 17 14 14 17 15 19 31 40 22 24 25 28 27 33 32 42
83 91 87 60 44 36 32 30 27 23 18 22 19 14 13 11 10 10 15 26 27 44 67 85 95 100 95 63 30 13 14 14 17 14 23 35 24 21 26 25 25 29 29 29
53 47 45 55 56 52 42 35 31 28 26 21 20 17 14 15 12 10 9 11 22 26 38 66 95 95 94 96 84 22 12 12 15 17 14 27 26 17 20 24 22 24 26 25
50 49 45 39 42 55 54 48 40 35 30 28 25 22 20 18 19 16 14 12 10 12 15 26 47 84 78 95 97 87 33 17 12 15 18 17 21 37 21 16 19 21 23 23
45 44 42 41 38 36 44 54 52 44 39 34 32 30 28 24 22 24 22 16 13 12 8 10 14 34 65 84 98 99 93 58 34 42 17 18 17 15 23 32 21 15 18 20
14 15 16 14 16 29 31 30 33 42 46 43 38 37 36 35 32 29 26 27 22 16 14 11 11 11 16 40 74 84 98 78 64 90 40 17 16 16 15 14 22 23 15 14
13 13 14 15 14 10 10 18 25 27 30 34 44 43 38 37 38 36 34 30 28 22 18 16 15 14 16 22 32 34 52 87 97 96 92 61 38 16 13 13 13 13 16 13
14 13 12 15 20 14 11 10 10 11 13 22 29 38 39 42 49 43 41 35 32 31 26 20 20 24 25 24 41 33 28 48 84 92 96 83 64 60 42 20 12 12 11 9
12 13 13 16 21 16 11 12 12 11 10 8 8 11 15 23 34 35 42 44 38 32 32 32 26 30 36 34 36 35 38 38 63 78 97 89 69 62 72 66 54 28 13 11
13 19 20 20 22 24 27 22 17 18 13 14 10 10 10 10 8 10 16 23 26 31 32 30 40 45 36 37 40 39 39 39 57 65 90 96 91 84 68 71 68 58 55 28
40 39 37 35 36 36 32 30 29 25 23 19 18 15 14 14 14 12 12 8 9 16 21 29 30 38 56 37 42 46 40 47 38 54 54 75 91 95 84 72 76 66 58 56
14 18 24 30 30 31 32 32 35 34 29 28 25 24 22 20 18 19 18 15 13 9 7 14 22 30 33 59 50 50 51 47 33 38 40 52 73 97 98 85 85 75 62 48
16 11 12 13 13 13 13 12 12 12 15 19 24 29 31 30 28 28 25 24 21 15 10 7 8 16 26 31 51 56 51 41 32 41 38 46 54 86 97 94 91 82 65 60
47 30 18 14 14 14 14 13 13 14 14 15 16 13 9 10 21 33 34 27 24 18 15 13 6 5 9 19 30 38 50 48 36 42 42 34 55 91 98 100 98 95 90 72
74 62 51 40 34 26 25 22 23 22 19 18 19 12 11 8 6 7 25 35 26 20 15 14 13 9 4 6 13 29 37 40 42 49 48 31 38 67 77 86 92 95 96 87

GFSCGP_500_rhum_072.txt.gz
RH
7 5 6 9 8 6 11 19 29 31 41 36 23 29 38 43 60 75 86 90 94 75 67 18 18 21 14 12 16 26 26 26 54 23 27 30 30 30 43 38 27 36 40 17
8 7 6 6 9 7 5 5 15 27 34 45 40 24 32 40 68 90 92 97 95 82 68 31 19 19 17 11 15 26 29 34 40 19 32 24 29 45 44 44 38 42 47 48
11 10 7 6 6 10 9 4 6 17 26 36 46 41 44 100 78 94 82 97 99 80 43 23 20 22 17 13 14 28 37 27 35 22 33 27 37 52 48 56 38 43 35 40
13 11 10 6 6 8 15 9 4 5 9 27 39 100 58 71 83 100 97 97 95 83 73 20 15 22 20 14 13 24 53 20 20 25 33 27 30 42 46 60 43 37 48 35
15 13 11 9 7 10 21 17 10 4 4 9 24 61 68 68 93 93 99 94 83 90 74 54 17 21 19 14 14 15 31 28 25 30 32 26 27 38 45 65 61 35 46 34
21 16 13 13 10 8 7 16 16 12 9 5 20 43 74 48 74 100 96 95 93 90 80 79 28 15 19 15 16 15 18 35 25 25 28 23 30 40 45 59 72 44 45 43
24 21 15 14 14 11 7 8 16 20 16 26 39 20 65 46 64 97 98 93 88 76 65 69 36 12 19 15 14 18 17 24 21 26 29 25 38 43 47 53 71 48 27 37
33 22 20 14 14 12 10 9 47 37 34 58 18 20 23 33 63 70 96 92 93 89 75 59 41 18 25 19 14 19 18 20 16 24 28 29 40 33 35 46 64 32 28 46
39 36 21 17 14 12 13 12 63 61 70 66 24 12 6 16 48 65 62 74 96 92 72 56 44 22 22 26 15 15 20 18 16 20 26 27 35 38 34 38 48 40 36 40
48 47 27 21 17 14 13 18 24 16 64 51 70 18 11 11 26 54 52 90 99 97 97 69 54 42 25 26 16 14 19 19 16 12 19 30 28 35 36 31 41 34 39 28
55 46 36 30 23 19 15 16 16 55 64 65 78 50 9 13 18 38 37 60 94 71 57 67 71 87 42 27 18 14 14 18 18 12 19 36 28 29 34 33 34 30 35 28
56 50 46 39 29 24 20 17 18 30 37 36 71 52 8 12 27 26 30 33 48 48 53 51 97 85 64 36 28 14 14 14 17 18 23 42 34 23 29 33 30 26 34 31
90 58 46 47 44 38 28 22 18 17 35 86 64 54 15 11 13 24 27 27 33 42 51 57 78 98 95 66 40 21 15 14 14 15 17 34 36 24 23 30 28 27 32 32
84 96 70 83 65 45 39 33 23 19 31 90 78 38 14 11 11 11 12 20 26 32 51 70 63 77 92 85 71 70 50 19 17 14 16 17 29 39 26 24 26 26 28 30
66 66 85 96 69 50 40 37 35 30 26 41 86 25 15 15 12 11 12 12 19 33 39 47 60 68 83 96 96 86 60 41 18 16 16 19 18 26 40 28 25 24 24 29
53 56 55 52 75 92 75 47 37 34 33 33 41 25 26 22 20 16 13 12 12 14 27 41 44 53 64 84 92 90 95 94 67 19 16 16 18 18 34 43 29 24 24 23
43 44 47 48 46 44 44 52 54 48 38 36 46 30 29 28 26 23 21 17 15 13 13 15 26 29 34 44 55 80 75 91 96 67 23 18 16 17 16 38 40 28 25 23
27 27 33 38 42 43 34 36 38 39 47 51 45 38 35 34 32 32 27 23 21 20 17 15 13 13 16 20 27 32 56 68 89 96 87 45 21 18 18 17 22 34 36 32
13 13 13 13 15 13 13 14 22 27 30 32 36 44 46 44 40 38 36 32 27 23 22 20 17 15 12 11 14 22 37 39 48 82 93 93 74 88 37 18 17 18 19 20
13 14 13 11 11 13 8 13 10 10 13 19 25 27 28 33 44 40 39 39 35 31 27 24 22 20 17 14 11 11 24 42 34 45 64 71 85 84 95 20 15 20 24 24
12 13 15 13 12 13 14 17 15 14 8 8 8 9 12 17 23 26 30 36 37 35 33 31 28 24 22 19 17 14 10 20 38 46 64 68 62 50 95 37 56 59 42 31
38 28 23 19 17 16 18 16 20 20 19 13 11 10 8 7 6 6 8 12 15 20 26 31 32 30 27 23 21 19 17 12 20 31 43 65 52 37 49 96 99 76 75 77
19 27 37 40 41 34 28 29 28 26 25 25 25 22 18 17 15 10 8 7 7 6 6 8 13 22 29 29 27 23 20 18 12 25 29 38 62 60 50 58 92 94 78 72
23 18 11 11 16 22 25 26 26 29 29 32 32 31 28 25 23 20 18 15 13 13 12 10 6 5 8 16 27 28 26 20 19 15 24 31 34 48 58 49 48 75 87 89
48 44 35 19 16 15 13 11 10 10 9 10 10 10 12 14 19 23 25 26 23 19 16 15 13 12 7 4 6 16 27 27 24 23 20 27 34 45 42 74 37 43 65 90
79 76 58 56 37 23 18 15 16 15 14 12 12 14 12 13 13 9 8 8 9 12 19 21 18 14 12 12 8 3 6 16 27 27 26 25 22 30 41 34 22 35 39 53

GFSCGP_500_rhum_075.txt.gz
RH
5 5 7 8 7 16 80 38 98 100 61 76 95 88 76 37 37 49 65 87 93 84 56 15 16 19 15 13 18 22 24 23 17 25 24 31 39 37 55 54 32 40 39 30
7 5 6 11 9 10 22 81 90 93 69 92 91 61 20 30 34 52 80 97 96 95 77 43 17 25 18 10 15 24 22 25 30 38 27 32 26 30 51 51 42 41 30 21
10 9 7 6 10 8 8 81 94 94 33 44 85 95 24 22 26 47 78 84 97 95 83 57 22 26 19 14 13 20 24 26 44 21 28 27 21 37 52 54 56 45 54 42
12 11 9 6 6 11 15 9 96 95 41 45 35 94 72 22 33 83 69 85 84 95 84 50 21 23 27 17 12 15 28 26 39 24 25 26 34 53 60 56 62 44 37 35
16 13 10 8 6 9 69 22 60 100 26 84 94 75 94 92 33 67 70 92 84 97 88 80 31 18 21 19 13 15 29 32 23 25 31 27 27 39 47 57 63 40 47 32
23 16 12 11 9 8 32 77 12 14 41 72 85 49 78 98 38 56 58 76 98 78 90 100 67 26 17 29 13 14 19 48 22 21 29 31 29 30 39 50 64 62 44 37
28 21 15 14 13 13 54 68 41 68 74 71 78 67 93 90 48 64 68 95 94 95 94 90 81 61 18 19 14 13 14 20 42 24 25 28 26 28 35 45 62 79 47 45
41 29 19 15 24 74 64 90 72 77 65 65 75 75 69 57 76 43 59 95 92 72 82 74 72 67 19 24 16 13 16 17 32 28 24 28 25 32 45 43 53 67 56 33
100 95 35 18 57 100 88 53 82 70 57 52 72 74 59 47 26 42 55 96 91 86 55 59 70 56 21 24 23 14 16 17 20 28 21 26 26 36 33 33 48 65 39 36
94 98 54 28 18 50 84 80 88 87 72 56 72 68 84 27 7 25 45 65 70 56 61 79 58 58 42 29 27 15 12 17 18 24 18 25 25 33 35 33 35 50 44 31
82 100 85 41 23 30 25 31 87 88 73 62 79 96 50 23 16 23 32 53 48 51 61 87 79 94 64 49 30 24 14 15 17 19 18 19 26 25 28 34 29 38 42 40
64 76 96 56 43 20 32 85 58 87 81 76 59 95 66 48 25 18 19 42 48 47 84 93 94 92 98 81 74 87 18 14 16 16 16 14 14 28 25 27 32 30 35 36
70 69 99 68 39 26 20 22 32 87 86 77 74 85 89 76 42 32 38 41 44 38 64 89 97 97 98 97 85 78 77 35 14 15 15 14 12 23 36 24 27 31 32 30
75 81 92 98 97 57 28 24 20 38 89 86 80 80 85 67 49 22 41 41 37 32 46 38 46 61 62 96 95 78 53 39 32 26 17 15 15 21 41 33 24 29 31 30
88 90 79 85 65 81 97 33 24 19 26 90 92 85 64 68 38 22 23 42 37 31 32 43 42 53 50 94 89 96 81 64 61 40 29 32 20 17 24 41 36 24 29 30
86 98 97 76 79 69 61 44 28 26 34 71 99 66 49 44 39 21 15 16 22 26 27 34 43 62 60 43 78 91 97 96 96 89 72 23 18 20 22 21 40 50 32 29
78 92 80 100 97 83 67 53 47 47 43 80 97 31 32 38 30 23 21 16 14 14 16 23 29 43 70 67 56 63 81 93 96 95 94 66 20 17 18 27 20 25 44 32
73 64 84 94 96 79 90 88 57 50 43 55 53 26 24 24 31 36 20 22 19 16 15 15 19 26 33 46 54 50 46 51 91 94 95 95 65 18 17 18 22 22 26 35
34 44 46 47 100 96 47 49 80 96 85 75 46 43 39 34 37 30 30 26 23 19 16 14 15 15 18 24 29 32 36 34 38 59 59 87 95 62 19 18 20 29 20 21
14 20 25 32 42 100 96 29 30 29 46 53 88 82 61 50 50 37 33 30 26 24 22 19 17 15 16 16 14 17 24 26 24 24 28 32 62 94 95 71 38 32 43 24
11 13 14 17 18 33 9 12 14 14 16 15 20 27 32 35 42 45 45 43 38 35 31 27 24 21 18 19 18 15 15 14 13 16 20 20 24 49 71 94 95 65 62 78
16 11 12 13 14 15 6 12 12 12 13 11 10 10 10 13 18 25 29 33 39 42 39 37 34 30 26 23 21 19 17 15 15 12 15 23 26 25 36 46 79 65 52 62
35 33 26 18 14 9 11 11 11 14 15 15 13 12 9 8 8 7 7 8 11 17 25 32 36 37 36 33 30 26 23 19 18 16 13 15 22 26 37 34 36 39 35 65
18 17 20 29 34 31 24 19 19 20 17 18 20 20 19 18 15 10 8 7 7 6 5 6 8 14 20 27 32 33 31 28 23 20 17 15 14 19 28 52 35 34 27 50
58 38 30 17 12 13 22 29 33 32 30 30 28 28 28 27 26 24 21 22 19 16 13 8 6 5 5 5 8 14 21 29 30 28 25 20 16 14 14 20 41 19 22 14
69 84 62 43 34 20 11 12 14 14 12 13 14 13 13 15 17 17 19 21 23 22 20 19 18 16 14 11 9 5 4 6 13 22 27 28 25 20 16 13 14 34 18 18

GFSCGP_500_rhum_078.txt.gz
RH
6 6 6 6 12 20 33 45 94 72 78 88 56 33 45 94 64 45 54 51 72 73 54 31 26 22 15 12 15 17 18 19 22 10 26 25 30 41 42 53 35 34 39 27
5 5 6 9 7 15 30 91 94 95 97 98 63 79 62 83 48 38 36 43 61 94 81 55 18 16 18 11 14 18 19 24 20 20 22 26 26 35 46 46 28 32 24 21
8 6 6 9 10 9 19 51 79 86 95 97 98 93 78 30 14 27 32 40 68 97 84 57 42 12 22 23 10 15 22 21 22 42 21 25 28 39 72 83 44 36 42 29
10 9 7 6 10 13 10 39 88 87 97 73 83 94 82 54 21 11 30 41 67 73 96 83 57 14 36 49 14 12 20 23 25 30 21 26 27 40 50 52 48 38 37 26
14 11 8 7 9 17 18 59 95 80 96 79 38 81 83 79 91 45 39 42 77 74 88 80 60 23 21 21 19 10 15 26 26 24 26 27 31 41 69 46 60 54 48 37
22 14 11 8 7 16 53 77 89 99 96 78 83 93 91 58 85 90 89 64 84 74 92 86 75 57 21 13 21 12 11 24 29 20 24 34 33 59 83 66 93 54 35 44
33 29 16 11 8 7 31 68 82 87 99 91 89 96 83 70 72 97 70 56 68 76 96 86 100 72 53 16 27 14 11 16 36 26 21 27 35 47 53 52 83 67 57 42
91 51 38 14 10 18 46 79 85 75 79 76 78 70 69 59 34 47 84 46 60 79 100 97 80 81 79 22 22 17 12 13 18 28 19 20 24 32 39 61 51 62 97 41
93 80 72 25 13 13 87 81 90 83 68 62 63 82 77 58 62 48 67 37 29 75 74 74 64 68 88 46 16 20 12 12 13 18 22 21 27 25 21 41 40 51 62 61
90 85 98 69 23 30 90 76 85 97 89 72 72 60 64 56 52 44 26 24 23 50 74 95 98 57 85 44 42 18 13 11 12 13 21 19 19 19 23 36 31 44 58 48
92 82 95 98 40 25 46 94 79 95 90 84 95 86 83 75 44 40 29 12 20 27 77 90 89 98 72 69 68 91 23 11 10 12 17 18 19 22 18 28 29 28 36 46
100 92 96 98 66 34 83 94 83 65 74 79 83 94 58 44 48 56 26 9 6 22 33 44 75 86 84 84 61 60 63 46 10 12 16 18 17 22 25 22 26 30 29 38
66 87 86 98 95 53 38 35 79 92 96 74 95 82 69 89 94 72 55 15 7 15 34 35 64 88 96 90 91 94 86 71 52 20 11 16 20 20 18 27 27 26 29 33
63 97 96 90 91 91 48 26 32 48 87 90 92 88 67 81 83 74 77 35 11 12 37 40 48 85 95 96 97 96 97 95 97 68 45 21 15 17 13 24 36 33 31 34
62 85 95 97 98 92 91 47 35 34 40 93 96 78 77 92 82 71 73 64 21 20 26 40 37 44 62 75 82 85 91 92 90 94 73 45 55 40 22 15 38 49 34 32
79 78 74 67 83 84 67 100 96 50 46 100 72 87 53 46 62 76 60 57 30 27 33 40 42 32 42 46 53 57 75 97 96 94 79 64 98 99 33 23 27 43 51 36
98 94 84 74 84 98 71 62 70 49 41 98 81 71 34 54 61 72 60 46 34 35 39 36 37 33 31 29 31 31 69 96 96 97 96 95 81 69 83 52 32 18 30 40
78 95 94 94 94 91 76 92 56 49 100 96 55 56 52 34 54 58 52 36 36 23 32 37 35 32 26 24 28 17 16 51 48 91 94 96 95 96 95 57 30 26 30 23
62 69 78 88 79 96 90 80 85 88 100 69 51 48 34 32 36 40 45 38 30 30 18 17 21 24 23 23 27 36 25 23 22 28 44 68 61 93 100 93 72 42 26 24
18 28 51 66 61 95 99 85 85 92 99 72 63 59 50 47 56 39 30 25 23 22 19 18 16 14 14 14 15 20 28 28 30 28 23 23 24 32 91 87 92 83 42 33
11 14 19 32 50 100 98 96 83 69 78 78 95 69 51 49 52 28 26 34 30 26 25 25 22 20 17 16 15 14 14 13 18 24 23 21 21 22 24 46 64 81 61 35
18 11 13 16 51 98 30 44 81 46 28 23 22 67 89 85 79 57 40 40 40 35 31 30 28 26 24 21 19 17 15 14 14 12 11 12 14 13 12 18 20 18 23 80
14 23 37 33 38 39 26 26 17 16 12 11 11 11 13 17 38 65 64 62 58 50 48 46 43 40 35 32 28 25 22 20 18 18 18 14 12 13 12 11 8 8 10 14
24 33 15 28 39 30 20 22 30 21 15 13 10 10 17 18 13 9 8 9 12 16 20 27 31 37 40 41 40 38 36 32 28 24 20 18 17 15 14 13 14 10 7 7
35 41 42 31 18 20 28 34 32 22 14 16 16 15 17 17 16 13 13 11 8 7 6 6 7 11 15 19 22 28 34 37 36 35 33 29 23 19 16 15 15 14 13 10
46 60 55 59 61 33 20 15 16 25 32 34 31 32 34 32 28 25 21 22 23 18 14 12 11 8 6 5 5 4 5 8 14 20 27 32 33 31 26 20 17 15 16 17

GFSCGP_500_rhum_081.txt.gz
RH
5 6 5 10 14 18 30 56 54 74 100 88 63 95 50 60 83 63 48 50 69 85 60 35 10 15 11 13 13 18 18 18 19 9 28 29 43 40 58 48 48 76 51 16
5 5 7 6 12 20 23 47 96 98 96 47 78 87 72 34 49 67 37 38 43 60 91 64 31 21 16 10 13 14 16 22 21 14 22 26 44 40 56 60 33 39 41 26
5 6 8 9 7 16 23 24 97 93 95 90 81 94 82 60 68 56 33 28 37 47 98 83 65 15 16 13 10 14 18 19 21 21 24 27 37 44 57 54 47 41 37 21
8 7 6 9 10 8 20 41 89 93 93 89 96 55 66 71 60 25 16 24 32 53 89 92 67 57 13 19 20 12 17 21 21 26 30 30 90 45 88 67 44 40 47 26
12 9 6 6 9 9 12 73 96 98 78 100 91 84 34 54 83 79 65 47 39 62 76 87 87 66 16 24 38 11 12 22 23 25 27 26 27 42 45 56 60 50 48 32
18 12 10 6 7 13 18 79 97 84 95 92 81 90 71 28 40 63 97 77 95 88 87 92 84 63 24 19 20 19 9 18 26 24 20 30 24 42 62 61 82 65 44 44
25 16 14 12 7 9 15 85 95 98 95 88 90 96 97 72 72 83 79 93 76 79 82 94 92 85 56 31 19 21 11 12 27 30 20 28 35 44 74 72 65 65 58 48
35 26 19 17 12 10 10 39 94 100 91 97 98 95 91 88 98 95 62 91 72 70 86 96 85 82 51 53 25 28 16 11 18 42 29 22 39 45 55 75 69 68 72 65
96 47 48 27 14 13 26 16 62 98 73 80 70 62 61 52 50 46 51 32 60 56 64 80 83 95 79 67 36 26 25 13 14 27 48 22 24 40 41 46 68 56 76 62
80 60 52 55 47 17 19 39 58 71 86 87 78 73 69 63 46 57 49 44 20 42 67 86 90 83 84 84 64 26 24 15 14 16 25 40 25 29 31 37 53 44 47 65
60 91 87 91 39 34 28 54 46 63 78 94 96 73 80 69 65 58 48 28 26 18 42 65 95 96 91 86 84 58 64 47 31 18 27 38 33 25 32 36 46 52 57 72
58 86 74 94 96 56 94 87 75 55 80 100 94 81 85 82 69 61 51 47 46 33 40 38 37 72 88 95 88 89 97 73 66 47 47 38 30 36 37 32 39 41 39 53
63 86 99 99 97 79 86 98 90 66 81 98 90 89 91 94 94 90 76 66 60 52 25 17 15 21 43 94 95 96 90 97 94 85 64 69 42 33 49 44 27 29 40 39
82 95 96 94 91 75 75 88 33 81 66 100 88 76 76 95 92 80 75 76 58 41 22 13 8 23 32 65 86 96 96 96 95 83 82 65 68 62 58 53 33 30 31 34
66 73 84 84 97 77 58 60 53 51 71 96 87 79 80 81 84 74 67 74 76 57 26 14 11 18 46 61 91 97 97 96 97 97 94 88 86 71 72 73 62 43 35 40
62 82 62 94 89 87 59 45 52 91 100 100 89 67 69 77 79 79 66 69 76 74 57 24 14 10 20 28 51 79 68 82 96 95 97 97 95 96 91 96 74 53 62 52
48 65 55 75 83 99 87 87 90 95 100 85 56 37 47 57 65 61 59 63 75 76 64 44 30 30 24 33 29 43 43 43 71 85 95 96 96 95 91 86 89 59 53 71
77 64 66 69 65 94 99 94 100 97 97 51 34 39 20 20 43 57 64 64 68 78 71 51 38 34 40 34 32 22 21 18 20 32 64 94 97 96 96 96 87 82 82 62
66 83 83 86 74 72 69 95 95 100 71 72 40 32 36 28 28 36 43 42 54 63 68 57 40 31 42 46 41 36 27 21 19 14 13 65 95 96 98 96 96 95 91 68
40 54 59 90 92 87 98 65 89 98 77 84 71 46 36 28 30 37 38 39 42 52 63 47 39 40 30 31 43 41 36 34 28 22 20 16 22 29 82 72 76 93 95 82
14 11 21 44 70 84 87 80 100 98 83 72 79 75 65 43 39 34 33 41 43 49 49 49 37 34 36 29 23 20 19 20 20 18 17 16 12 11 13 19 26 31 84 94
14 22 12 12 18 35 34 50 70 86 93 84 71 63 62 61 58 51 40 35 48 41 39 34 39 37 35 27 24 19 17 15 14 15 14 13 11 11 12 14 15 18 21 34
11 11 18 29 33 25 23 26 36 63 99 99 98 83 55 64 84 76 68 60 43 34 33 33 34 30 26 26 24 25 24 21 20 18 17 16 13 11 10 9 9 8 9 11
12 11 9 17 19 22 36 36 43 40 42 40 55 41 19 16 17 29 45 62 74 68 51 46 39 38 34 32 33 32 33 34 31 26 23 22 20 17 13 11 12 13 9 10
20 14 17 20 21 22 22 20 36 42 31 26 31 25 21 14 11 11 11 12 12 19 33 42 50 52 50 44 42 44 46 45 43 43 41 38 34 29 23 18 16 14 15 15
31 28 25 30 50 44 44 42 31 22 19 29 30 20 18 14 11 10 9 11 13 10 8 8 7 6 8 9 12 14 17 18 21 24 26 27 32 36 37 36 30 24 20 18

GFSCGP_500_rhum_084.txt.gz
RH
6 8 16 25 35 50 56 60 82 100 86 97 94 80 72 56 79 75 64 51 65 78 60 45 15 15 16 16 19 22 25 19 15 15 30 39 72 56 52 66 91 58 26 28
6 7 9 16 25 32 46 65 87 98 69 95 98 100 92 69 58 67 65 48 52 53 71 73 60 30 16 15 17 17 18 21 22 12 29 29 38 51 54 51 55 51 33 21
5 9 12 8 15 22 32 52 67 69 92 90 99 69 82 56 52 73 71 40 35 43 52 91 66 48 21 18 16 16 18 22 22 17 25 29 34 48 62 66 46 42 25 28
7 6 8 10 8 16 22 41 60 72 97 94 97 73 95 76 82 78 77 38 45 78 82 94 99 63 32 19 16 15 18 22 25 20 28 34 41 68 84 93 51 48 36 40
12 6 6 8 9 10 17 66 88 83 85 85 93 82 93 83 94 84 76 62 44 47 89 99 100 81 67 18 25 17 15 22 25 25 40 31 81 61 96 60 62 45 46 30
16 14 7 8 10 11 17 96 98 89 85 68 83 94 71 60 55 85 97 88 66 70 62 86 93 93 59 24 26 31 13 17 25 27 34 34 31 44 59 56 96 75 59 42
20 15 11 8 8 12 30 94 89 74 80 57 100 87 74 68 37 52 76 63 80 76 70 75 91 92 65 33 30 34 23 13 23 27 35 31 32 44 68 73 92 68 49 52
28 19 14 11 7 8 27 88 88 84 96 81 96 83 78 54 72 58 68 64 93 87 75 78 83 90 83 80 33 26 25 14 15 29 30 34 41 44 82 81 74 78 74 65
37 25 18 14 10 14 15 60 81 99 94 96 82 94 87 62 62 62 71 58 57 88 75 81 92 90 84 70 49 21 30 19 15 18 31 29 34 48 59 68 71 86 81 89
38 32 25 19 16 15 14 63 94 92 82 70 82 73 61 53 47 45 42 49 51 51 57 59 76 97 95 96 89 77 28 28 16 13 27 36 24 34 47 46 54 81 65 70
32 39 40 31 22 22 17 33 51 96 88 77 67 73 64 61 49 43 47 55 59 58 57 68 65 80 97 96 98 97 86 46 35 24 21 28 30 27 34 41 45 56 54 60
58 48 56 39 51 41 25 69 92 99 97 83 86 50 63 68 72 74 82 74 67 55 65 66 59 67 95 95 98 98 96 80 81 55 58 45 42 48 42 40 47 55 52 72
76 62 72 82 100 67 56 75 96 97 85 83 78 59 39 68 93 94 85 76 69 63 64 57 43 59 81 77 56 85 90 96 92 91 66 56 57 61 63 43 39 49 51 47
98 74 92 99 93 79 85 71 97 99 97 89 68 50 59 65 81 84 93 75 72 77 69 62 48 20 20 22 32 94 95 96 98 97 96 80 78 73 69 68 62 55 52 38
98 92 66 98 73 75 65 100 69 62 70 62 52 76 69 84 85 84 71 66 65 78 77 61 41 22 19 14 29 58 82 97 97 97 97 97 98 95 93 75 63 68 56 52
55 89 79 55 97 90 74 74 97 97 92 37 30 43 57 72 78 70 68 65 60 61 73 70 61 34 20 16 15 63 75 81 95 95 97 96 97 95 96 97 95 89 92 82
83 68 84 66 76 96 100 93 91 86 87 55 74 41 44 67 80 73 75 69 70 67 70 80 70 66 42 23 17 32 43 39 45 92 93 97 97 97 97 96 97 96 96 94
62 59 48 53 53 85 94 94 100 93 70 80 29 41 56 41 55 72 74 59 62 68 72 73 72 72 56 47 21 14 25 24 26 30 57 70 94 95 97 96 96 97 96 96
48 42 36 39 40 49 55 97 93 80 59 49 54 35 26 52 53 64 66 58 50 52 63 62 68 68 61 48 39 27 20 20 23 19 14 10 12 35 60 96 97 97 97 96
48 54 55 60 52 55 60 62 93 97 90 53 37 29 30 29 23 39 44 51 53 42 43 40 44 64 67 62 50 39 30 21 19 22 19 23 24 22 16 48 97 96 97 97
11 14 38 56 60 60 56 68 61 69 66 92 80 62 48 44 38 32 34 51 56 53 51 52 56 50 50 53 52 46 42 34 25 19 22 21 22 21 18 14 24 78 91 94
20 19 14 13 24 40 42 75 98 81 71 58 61 82 74 65 53 64 61 61 85 80 61 52 65 70 64 56 51 49 42 42 41 30 22 18 13 11 10 10 10 12 25 26
7 8 8 11 12 11 11 14 29 68 95 89 79 69 57 77 79 66 65 69 60 58 76 92 90 74 65 56 45 43 48 48 38 34 27 23 21 17 14 11 9 8 9 9
17 15 15 12 12 8 10 18 22 21 31 39 67 89 93 82 76 59 55 58 58 56 60 57 49 46 54 54 48 37 31 33 30 28 26 23 24 24 22 18 16 14 9 9
20 14 20 19 15 14 16 14 15 25 38 45 71 74 74 92 86 67 50 52 49 66 65 61 58 58 60 54 46 40 39 37 35 34 33 34 31 28 28 28 25 21 19 15
9 9 7 7 12 13 16 19 28 28 30 26 40 43 36 40 36 30 28 18 14 13 14 16 20 25 56 67 69 66 58 55 50 45 45 42 40 40 39 38 37 34 31 26

GFSCGP_500_rhum_087.txt.gz
RH
12 19 20 37 51 59 69 72 73 73 96 87 99 92 56 83 94 84 81 55 73 68 49 18 16 14 16 20 22 27 22 18 13 30 34 74 43 62 70 69 49 21 46 33
8 11 30 38 50 61 69 74 65 80 87 90 99 94 81 70 78 81 60 53 53 72 71 53 24 18 13 15 17 22 26 22 13 26 32 48 60 54 64 65 59 32 36 34
7 11 14 27 36 57 63 72 60 68 68 82 92 96 96 92 77 80 84 81 51 52 78 74 65 43 26 16 13 17 20 24 24 16 27 31 40 57 58 42 48 36 32 32
7 10 11 10 21 38 47 83 92 69 63 79 89 89 91 82 66 72 95 79 50 50 55 89 98 70 44 28 15 13 18 24 26 18 26 34 35 59 67 55 47 41 33 34
8 8 9 10 9 20 33 74 98 72 73 62 64 65 88 61 65 74 92 86 38 70 59 55 99 93 74 54 23 13 14 22 28 24 30 33 40 55 76 81 50 54 40 32
14 8 7 10 14 10 33 48 99 77 58 55 52 60 61 90 99 76 87 95 79 53 61 76 97 98 99 90 27 23 16 16 26 26 35 32 33 67 79 54 62 56 55 28
18 12 8 9 12 12 16 40 92 95 66 48 50 73 70 87 83 78 89 92 90 88 85 65 90 83 97 93 38 28 28 14 19 26 30 35 31 40 64 58 90 70 58 31
23 16 12 8 8 14 11 25 58 93 79 34 53 54 76 72 58 37 68 70 84 84 86 72 68 83 96 96 71 26 29 33 13 26 28 31 33 36 56 74 81 61 56 44
32 21 17 13 10 10 14 19 67 93 84 52 44 36 69 78 66 45 57 67 58 98 89 72 92 87 96 94 90 79 25 26 14 16 28 33 32 40 68 82 69 73 74 63
34 30 22 18 15 13 19 31 67 88 86 60 48 36 71 75 63 64 75 78 67 65 92 82 82 93 91 95 97 88 59 23 22 12 22 31 26 37 51 56 68 74 73 91
34 44 33 27 22 21 17 37 71 81 66 70 66 44 56 82 66 73 74 76 69 48 51 65 68 83 83 97 97 97 81 86 64 27 12 26 37 27 46 52 62 74 87 73
47 50 49 50 44 34 27 29 78 90 85 76 67 53 64 74 63 59 50 56 77 54 62 66 81 91 96 97 98 97 95 89 96 46 36 14 20 40 30 46 47 40 60 52
60 57 72 64 66 66 44 29 34 77 80 70 68 49 48 54 71 60 55 52 61 59 70 77 84 92 94 95 94 97 96 97 96 95 92 39 28 27 40 34 38 45 49 50
99 70 85 95 99 86 57 28 24 38 74 62 52 53 44 26 34 53 64 67 82 82 78 76 68 68 84 52 93 96 96 96 97 96 96 92 66 48 47 55 52 42 44 51
90 84 93 97 98 90 67 47 27 26 30 39 31 51 66 39 33 31 56 93 96 92 80 71 68 71 60 40 57 82 75 89 96 97 97 97 96 83 54 66 89 70 46 48
96 98 75 92 97 78 100 64 42 31 28 27 33 78 79 43 37 43 48 62 77 86 68 67 59 60 53 38 20 30 20 71 76 95 95 96 97 96 90 84 90 95 86 73
43 45 44 64 73 92 99 90 62 48 39 45 47 64 84 67 47 50 73 86 82 74 70 64 63 77 61 66 46 22 19 36 74 84 91 89 96 96 96 96 96 96 95 88
44 45 56 54 61 57 69 95 83 68 75 45 34 35 63 58 35 46 68 83 86 71 63 64 65 62 76 72 66 56 29 18 18 25 27 26 26 82 96 96 96 96 97 96
40 42 52 71 69 70 55 49 94 90 93 63 53 53 41 39 61 45 54 72 74 86 77 66 66 63 62 64 63 55 49 40 28 18 22 14 14 48 88 85 86 96 95 97
67 56 51 54 53 51 50 47 43 93 81 83 79 66 52 52 54 76 75 76 88 85 86 86 77 68 44 51 60 60 56 52 42 31 25 23 24 26 21 25 23 66 90 95
31 46 56 53 46 38 33 35 38 42 43 58 99 81 78 96 90 78 70 72 83 84 70 66 59 47 33 29 26 28 34 34 39 40 32 29 25 22 15 15 23 20 20 79
33 28 15 20 34 41 48 54 44 43 37 34 70 84 85 88 89 88 83 89 84 80 83 83 78 76 74 61 54 42 39 36 34 48 42 34 24 22 22 18 12 15 37 13
7 8 8 10 12 13 15 18 31 41 51 54 45 51 66 59 71 100 97 90 94 86 73 70 72 78 79 82 68 58 51 45 53 56 50 38 28 21 19 18 17 15 12 10
12 10 10 10 12 11 9 7 11 15 13 19 45 59 71 71 78 56 58 83 91 88 95 86 75 68 76 82 93 89 69 54 59 58 54 45 39 30 22 23 21 18 17 15
10 7 10 9 7 6 6 7 9 9 10 12 18 17 31 75 88 78 85 85 82 80 77 74 73 67 64 68 70 67 67 67 65 57 50 43 36 27 23 22 22 22 19 19
13 10 14 18 13 13 11 7 5 5 5 7 13 12 17 29 29 47 75 73 90 100 86 75 61 58 62 63 60 57 57 56 54 53 50 45 38 34 32 30 27 27 26 26

GFSCGP_500_rhum_090.txt.gz
RH
24 48 52 59 58 57 67 79 87 94 91 95 94 95 62 92 87 85 96 93 80 24 15 14 14 20 20 21 29 23 20 15 27 36 65 52 68 71 47 28 33 40 29 25
10 21 33 45 61 64 67 67 77 91 84 87 97 97 86 64 90 84 82 66 88 59 31 18 16 14 18 20 23 28 25 21 18 30 40 89 59 67 76 71 30 40 35 38
8 12 25 32 41 57 73 74 72 73 95 95 97 96 93 86 87 72 72 64 66 87 61 42 20 16 13 14 16 22 25 22 14 27 28 52 67 60 55 59 43 28 32 29
9 12 12 22 33 51 71 83 77 74 75 90 94 97 94 71 65 56 66 89 59 66 67 74 62 51 19 17 14 15 18 21 23 15 32 31 42 63 53 47 38 25 31 25
7 10 12 12 18 36 61 82 94 75 73 96 80 92 90 82 86 80 68 94 77 45 72 87 99 90 64 19 14 12 16 18 24 21 26 34 34 58 65 54 45 36 34 25
10 8 10 11 12 22 45 63 70 97 68 70 85 72 79 75 60 55 62 89 74 38 72 68 94 91 78 81 63 18 13 18 21 25 22 28 42 47 87 71 47 46 32 26
14 8 8 11 13 12 27 40 53 64 70 78 71 52 55 52 60 50 46 70 68 68 46 68 79 90 98 94 85 60 19 15 17 24 22 32 28 60 85 76 64 53 48 26
24 15 8 8 10 14 12 23 32 35 36 73 62 29 30 67 69 65 70 76 90 90 68 64 75 94 94 98 97 82 27 26 13 15 24 26 33 28 50 68 65 98 58 33
34 22 14 10 11 15 14 13 32 41 38 36 39 25 28 69 80 76 65 81 83 79 90 94 91 81 94 99 99 90 72 26 36 20 17 27 27 29 27 49 62 86 55 46
36 32 22 16 12 12 16 15 26 37 45 35 46 28 22 55 81 60 49 81 76 88 84 84 78 76 90 98 97 94 90 86 62 26 16 20 29 27 33 54 67 76 76 67
47 43 30 23 16 15 14 20 16 32 34 39 45 26 26 33 62 77 67 75 84 84 91 90 91 86 88 99 100 97 89 83 81 97 33 14 24 31 31 42 58 68 74 70
65 60 36 33 27 21 15 21 25 23 33 34 39 24 26 32 49 63 66 79 92 93 88 84 91 96 86 96 98 98 89 98 92 97 83 39 15 27 35 28 44 51 67 78
89 88 54 46 41 35 30 21 29 24 20 37 49 35 24 28 36 67 76 67 74 79 78 46 59 61 78 84 85 83 90 90 95 96 96 93 43 14 31 33 36 50 50 50
86 87 93 74 59 48 36 26 19 21 23 27 30 38 43 31 32 52 62 65 53 49 63 59 68 76 83 95 96 96 96 95 97 97 97 97 96 39 16 26 37 42 48 41
100 97 94 95 82 67 52 34 30 24 18 23 45 50 52 63 40 37 40 59 58 58 56 68 73 80 74 70 81 94 94 96 97 97 93 97 97 91 38 27 26 42 37 43
97 98 92 86 92 74 73 59 46 31 22 20 25 46 58 62 69 47 25 32 40 71 85 93 98 88 81 68 70 60 81 86 80 96 74 86 96 97 92 64 48 45 59 62
96 88 72 88 83 100 84 94 61 55 44 29 26 26 41 59 72 55 28 44 37 34 65 86 92 86 74 85 76 58 57 69 50 28 43 48 81 93 96 96 96 82 75 75
95 83 80 90 74 63 70 95 78 62 68 54 40 32 29 29 31 38 36 63 55 55 67 80 81 77 91 70 77 62 63 48 33 28 23 23 27 35 56 75 55 96 92 91
73 69 50 36 31 40 50 47 81 94 91 84 94 62 51 45 40 50 52 60 77 64 83 86 79 72 74 70 68 70 70 68 63 50 37 28 16 16 16 17 58 94 95 97
43 45 52 45 38 31 37 41 50 55 70 88 100 97 95 98 93 76 52 48 67 68 44 55 77 85 79 76 74 65 60 59 58 56 49 44 30 23 25 25 19 21 21 37
52 54 50 48 44 44 60 50 48 46 48 58 66 96 98 100 90 92 93 87 69 53 92 88 88 86 77 76 75 65 60 56 44 42 42 39 37 35 34 29 22 17 17 22
23 20 26 34 42 43 50 51 42 40 38 38 39 62 88 83 83 89 95 98 96 98 92 84 78 81 68 75 71 55 40 30 34 32 27 26 26 30 29 34 24 16 17 16
9 12 16 18 16 17 20 26 32 38 44 51 46 40 44 46 40 65 96 95 97 96 96 96 90 81 72 64 58 51 44 40 34 30 31 28 27 23 24 28 28 20 16 12
10 10 10 7 8 7 7 7 8 12 16 17 20 34 46 46 50 70 95 97 94 88 83 84 89 91 88 90 86 78 75 59 58 50 45 38 34 27 23 24 30 32 26 19
21 16 12 10 10 9 6 5 5 5 6 6 7 8 10 23 45 72 83 100 98 93 89 98 95 97 100 93 86 96 93 85 70 63 58 61 54 50 44 49 41 32 26 23
28 26 20 14 15 20 20 22 28 29 30 29 17 6 5 5 7 15 35 71 98 99 96 94 88 82 91 95 88 84 88 90 83 76 69 74 70 73 71 66 50 46 38 29

GFSCGP_500_rhum_093.txt.gz
RH
45 72 70 70 69 71 76 83 84 82 78 84 88 90 96 98 96 89 74 71 41 29 13 18 16 15 20 22 19 17 15 27 40 53 46 70 53 27 18 20 29 32 26 24
24 52 66 71 72 75 73 77 78 91 87 94 94 97 96 97 99 96 88 88 78 30 12 14 16 16 16 20 24 19 17 17 30 34 66 43 62 58 58 29 39 31 26 23
10 28 48 60 64 72 73 76 79 86 95 98 94 97 97 96 96 99 96 65 86 55 32 18 13 14 17 18 20 24 20 15 17 30 37 64 53 61 72 38 28 37 36 25
10 12 24 37 52 69 76 75 75 72 76 97 94 96 96 96 96 97 88 76 75 89 66 52 19 14 13 15 16 19 20 20 17 22 26 46 54 58 59 50 34 31 28 21
9 11 10 20 36 54 72 74 78 74 68 78 89 94 96 88 96 94 89 87 78 60 83 70 55 48 18 13 13 15 17 19 21 16 25 29 44 55 58 48 38 26 31 22
12 12 12 11 23 42 63 68 79 82 70 76 89 88 93 92 92 85 90 87 94 62 55 72 88 89 62 18 17 14 15 17 20 24 20 26 33 56 63 54 47 34 31 32
17 11 14 14 12 22 46 68 71 82 76 87 70 77 84 83 82 72 72 74 84 71 53 57 73 94 79 85 72 27 16 12 16 20 24 24 28 38 69 74 73 46 41 29
28 13 11 13 14 13 19 42 58 62 63 52 93 58 73 72 62 52 50 54 53 70 43 58 61 76 87 98 96 94 47 20 13 15 22 22 30 32 57 78 61 60 59 52
33 22 14 12 16 18 13 17 39 58 49 48 76 62 52 58 50 48 54 64 84 83 88 55 68 84 96 97 95 91 90 30 25 24 14 21 23 29 26 48 67 57 78 49
43 32 22 16 13 18 18 15 20 38 53 29 21 25 23 33 62 55 87 83 93 97 96 94 83 78 87 83 98 95 87 88 45 34 38 40 38 34 30 29 44 62 71 54
56 45 32 24 18 13 16 18 15 38 36 34 20 14 14 26 31 70 90 85 88 88 94 93 98 96 95 83 93 98 96 95 93 95 86 44 56 41 38 30 38 61 71 78
55 65 47 31 23 18 13 15 18 17 23 20 22 14 10 29 27 48 87 76 76 83 87 96 95 98 96 97 99 99 91 92 94 93 96 96 86 47 36 32 30 41 63 69
78 74 56 40 31 24 18 14 13 18 17 17 28 30 12 17 34 28 43 72 83 87 83 82 94 96 96 95 99 95 99 96 90 98 98 98 97 95 48 26 28 27 41 48
98 96 76 53 41 30 22 16 16 17 24 19 20 21 31 20 26 37 38 84 86 82 93 95 94 93 80 80 92 93 92 96 97 94 94 96 97 96 91 18 22 31 27 44
92 88 89 62 59 51 37 26 20 19 23 30 32 34 35 32 20 30 35 72 81 78 60 56 68 80 68 67 67 74 92 96 97 97 98 97 96 96 94 45 24 20 36 34
89 93 75 95 72 54 54 46 36 28 23 22 27 37 39 41 37 32 28 37 51 59 60 58 65 73 70 70 78 74 73 75 92 97 97 96 92 94 97 96 82 26 21 39
90 80 97 82 94 79 66 56 44 36 33 30 28 26 24 24 45 53 48 39 39 46 45 44 54 86 81 80 91 81 78 76 73 91 96 96 55 58 81 97 97 93 37 34
83 83 69 96 82 91 72 66 59 50 46 43 38 38 38 30 25 26 32 42 51 43 29 33 39 36 57 76 84 84 71 76 67 70 69 48 57 22 31 41 39 66 85 89
76 77 63 63 74 81 76 78 74 72 65 69 61 59 61 59 55 51 38 31 28 30 37 32 49 58 66 71 76 61 62 72 72 71 74 59 43 23 21 16 16 18 41 52
82 79 70 62 48 64 68 62 64 69 68 77 85 77 88 85 85 78 59 46 38 30 32 42 62 66 81 80 75 77 73 65 65 72 64 54 45 38 27 19 24 21 19 15
44 64 64 58 47 40 34 32 29 32 43 54 59 69 75 90 89 87 78 71 59 46 46 45 45 48 60 72 82 82 78 78 79 63 59 56 52 48 42 38 36 34 30 25
26 38 41 38 39 40 38 36 33 36 47 45 45 48 55 66 77 78 80 86 83 77 57 62 70 68 51 42 41 42 56 74 68 58 65 59 49 46 38 35 31 30 32 28
25 24 23 21 20 22 28 33 36 40 43 41 40 42 49 49 52 58 79 87 86 84 76 70 67 66 72 68 99 94 83 75 69 56 59 58 32 29 30 30 28 26 27 30
8 7 7 7 7 8 9 11 13 16 20 23 26 34 41 41 44 56 58 62 67 63 45 61 72 66 74 82 87 85 83 81 64 53 52 47 40 34 28 29 31 28 23 26
17 12 8 8 7 7 7 7 5 4 5 6 7 8 12 24 39 52 56 70 77 85 82 73 83 83 85 90 96 96 97 93 75 63 77 74 62 62 47 37 33 32 27 24
33 34 31 24 18 15 17 19 21 22 20 17 23 25 21 10 6 8 15 42 70 89 92 97 98 95 90 80 72 72 74 84 83 75 65 63 81 77 72 58 51 50 44 39

GFSCGP_500_rhum_096.txt.gz
RH
47 75 73 75 86 93 86 87 96 98 100 96 96 96 96 98 96 54 37 15 13 15 16 16 14 18 18 17 15 17 27 37 49 53 60 29 18 16 19 15 19 24 15 13
37 60 75 76 74 88 94 96 96 97 94 91 97 97 94 97 96 70 60 47 33 16 14 17 17 16 20 19 16 14 19 27 37 57 47 54 37 29 29 36 30 22 22 17
23 43 63 77 78 80 91 99 96 96 97 98 97 93 94 98 97 83 65 74 62 36 14 15 18 18 18 21 21 16 13 15 25 29 63 72 62 64 30 32 34 32 22 21
12 24 41 62 81 83 86 84 86 85 84 97 95 95 95 96 97 94 80 72 87 43 16 11 12 16 19 19 20 23 18 16 13 22 28 63 66 60 44 32 29 27 22 14
9 11 25 44 58 92 96 82 83 77 92 73 95 95 95 97 97 98 92 59 79 84 54 34 22 12 12 16 17 19 20 20 18 15 26 44 58 62 47 35 36 30 22 12
12 9 16 24 39 59 91 89 80 77 78 68 87 86 90 89 96 96 78 73 57 63 78 68 64 44 18 14 14 14 15 16 18 19 25 33 42 60 75 61 44 26 26 23
22 11 11 16 22 36 64 86 84 84 99 100 96 86 70 96 96 90 94 92 91 87 58 54 67 73 71 30 17 13 12 14 16 19 21 23 35 52 68 75 70 40 40 41
30 18 10 12 16 20 34 67 91 89 100 100 66 68 72 74 79 81 87 83 73 75 77 61 66 90 90 52 26 38 28 16 12 18 21 22 25 42 55 71 76 72 51 53
41 34 17 11 16 15 20 43 71 95 95 100 88 62 66 70 69 70 57 59 89 95 86 58 67 82 83 82 87 95 99 83 26 18 14 21 28 34 32 67 80 79 87 68
44 41 25 14 13 18 19 23 75 63 100 97 98 94 71 65 72 59 49 83 97 97 81 69 57 75 78 96 99 96 95 89 73 30 26 37 33 38 34 37 54 69 69 78
47 44 47 22 12 14 18 17 22 83 89 86 90 98 61 60 60 53 41 86 95 100 94 96 93 60 66 89 98 97 97 96 82 69 48 52 59 35 39 38 39 43 55 62
46 76 89 31 23 13 13 19 17 28 80 90 95 97 74 24 29 33 44 85 92 97 96 93 96 97 91 73 87 93 97 96 98 92 84 94 86 81 59 44 39 44 60 71
65 61 100 74 33 21 16 12 28 70 75 91 90 81 77 23 21 37 41 83 94 95 91 92 88 91 97 96 95 96 99 97 98 90 86 81 91 100 94 79 45 36 40 60
82 83 97 94 66 63 22 15 12 16 74 79 92 95 90 37 19 39 35 57 90 95 91 91 92 89 86 94 97 96 99 98 96 98 97 99 87 97 95 94 86 40 32 36
96 72 94 81 89 63 44 24 18 14 56 84 92 95 95 47 19 34 45 45 60 92 86 92 93 92 90 80 86 95 94 96 96 94 95 96 96 85 86 86 97 93 30 29
98 93 63 60 68 70 60 42 28 24 17 50 61 97 60 25 23 20 32 46 54 82 95 87 77 67 66 74 74 76 82 66 77 72 81 95 97 94 94 86 83 92 46 16
92 72 98 84 70 69 62 55 50 34 32 44 42 47 19 22 36 29 19 24 41 56 78 74 71 66 78 82 77 69 62 65 70 69 67 69 90 94 63 78 94 96 94 84
97 84 79 98 87 81 97 72 49 46 42 38 30 29 23 21 22 24 26 27 21 26 38 48 53 55 51 52 50 53 60 73 80 71 63 80 87 87 92 49 29 48 62 94
75 75 78 94 97 96 98 71 61 53 51 45 42 40 35 29 24 22 25 23 22 20 20 26 30 33 28 26 42 40 56 65 71 70 73 66 78 60 38 64 72 25 21 19
71 86 70 78 98 100 90 78 76 76 78 53 47 44 48 42 47 29 28 27 22 19 18 16 16 25 35 25 29 30 43 50 66 63 60 66 76 61 46 27 26 30 22 17
98 92 66 82 74 67 55 60 74 81 83 53 62 59 50 56 53 60 46 36 33 29 28 26 22 17 19 23 39 48 56 47 58 70 70 66 66 59 47 36 24 23 32 31
62 76 71 68 69 58 46 41 47 51 48 42 40 45 52 58 65 67 62 60 46 38 42 36 29 26 22 20 23 48 64 67 77 72 73 78 78 66 58 50 47 41 38 35
25 34 42 41 38 38 36 30 28 28 27 29 28 30 41 46 46 47 50 55 64 68 65 64 54 44 44 38 29 24 40 58 62 67 64 82 81 59 64 64 55 42 41 34
12 20 21 22 22 21 19 20 22 27 33 37 41 44 43 38 40 44 47 47 47 54 63 74 73 63 60 68 65 60 46 36 38 58 64 61 58 66 67 65 55 42 34 31
11 8 7 6 6 5 4 4 4 5 7 11 16 21 24 29 34 38 42 44 51 53 56 53 54 61 63 56 61 67 66 63 62 72 96 98 84 84 66 51 53 49 40 35
34 29 21 11 9 9 11 16 17 16 17 16 11 6 5 6 8 13 24 40 47 53 60 66 69 73 77 81 69 81 97 96 96 89 83 95 98 99 94 71 51 54 50 54

GFSCGP_500_rhum_099.txt.gz
RH
56 68 68 74 74 80 97 87 99 97 90 97 100 93 98 97 95 30 12 12 14 14 15 15 16 16 17 16 17 28 33 48 61 46 18 18 15 14 18 30 34 24 19 16
36 63 72 73 89 86 94 95 96 97 95 99 97 97 97 97 98 74 21 13 13 16 15 15 14 16 17 16 17 18 30 49 56 54 45 25 18 17 15 18 20 18 11 11
17 50 71 76 74 72 90 93 97 98 98 92 89 94 95 97 96 95 46 21 14 14 14 15 15 16 18 18 17 17 16 42 36 60 59 54 51 30 39 32 24 19 19 17
10 32 59 73 70 76 96 68 89 98 95 79 96 97 96 96 96 96 87 52 38 19 18 13 15 14 16 20 21 18 16 18 31 34 67 63 86 77 50 42 32 28 19 18
8 18 35 59 72 80 96 96 85 94 97 80 84 95 94 95 95 97 81 80 90 35 15 36 12 14 15 17 19 24 22 18 16 27 41 68 77 69 48 44 39 30 18 14
31 17 15 35 56 85 99 95 94 94 80 74 94 83 91 90 96 97 94 98 90 72 66 38 17 12 11 16 18 20 22 23 19 15 24 41 62 64 57 52 71 35 29 18
21 12 8 14 36 54 73 95 100 99 89 98 78 73 62 85 86 97 93 92 94 89 80 74 56 39 24 14 12 14 16 18 19 20 18 25 41 64 82 85 65 47 34 35
37 27 11 9 20 41 48 67 100 100 87 94 84 85 79 62 69 93 93 94 93 82 96 77 67 68 66 55 32 15 12 17 15 16 21 22 24 40 58 70 78 69 49 50
78 72 56 11 10 22 35 48 97 86 92 90 97 88 67 61 68 81 74 71 89 71 92 78 62 67 77 84 60 21 24 26 20 15 23 31 36 28 41 56 75 73 69 78
98 85 86 43 10 13 45 67 96 99 97 88 96 98 85 65 60 58 70 73 46 53 95 93 70 59 66 96 97 89 88 95 98 44 30 30 31 32 36 37 54 63 76 94
98 88 96 73 16 12 11 29 90 94 89 92 95 96 90 93 49 67 71 63 48 57 84 90 74 53 56 75 96 78 97 95 84 91 40 33 34 38 37 38 35 38 48 60
59 100 88 94 74 19 62 52 65 81 97 81 93 83 96 84 100 76 76 62 79 70 66 72 82 73 92 61 74 97 93 95 96 92 96 75 75 63 60 42 39 41 39 40
99 74 90 98 87 70 46 47 33 65 69 75 72 91 92 95 96 66 64 59 62 93 83 80 85 89 95 96 86 72 78 88 96 96 96 92 80 85 96 96 82 56 45 40
62 99 86 92 92 83 50 27 60 62 62 59 85 92 79 80 55 30 29 37 50 82 96 87 87 79 81 89 93 95 94 91 94 98 92 96 98 95 99 98 98 98 95 53
40 68 96 99 91 88 84 42 80 79 79 77 61 95 82 54 63 32 23 33 46 78 100 98 86 85 90 91 88 82 75 80 95 97 97 96 97 97 97 93 99 93 93 98
76 99 80 97 91 100 95 90 85 80 65 72 93 66 96 54 67 46 21 38 44 71 90 95 95 95 95 86 66 65 70 79 89 96 90 87 85 94 93 92 90 87 94 97
52 28 86 84 97 93 98 96 93 93 84 79 88 95 60 84 62 47 27 40 49 46 58 91 92 93 83 78 65 68 67 76 82 74 90 87 88 65 79 80 92 92 91 97
56 91 40 51 60 90 95 90 97 97 86 89 81 62 86 84 69 26 14 15 30 46 49 65 85 90 83 77 77 77 72 68 63 71 75 78 72 71 83 96 78 39 48 78
74 96 81 87 92 95 71 78 92 68 92 68 37 52 35 27 15 13 12 10 12 16 26 39 52 67 72 69 66 65 65 74 78 69 63 71 70 70 65 62 61 60 73 53
76 84 99 100 96 99 94 65 88 82 91 59 37 35 32 31 39 19 16 14 12 10 10 13 21 28 33 40 45 49 51 54 61 59 72 65 62 61 71 67 51 45 53 61
86 76 60 100 90 94 96 95 98 98 94 72 60 44 45 46 35 29 33 25 24 20 21 16 12 12 13 16 19 30 28 31 30 36 42 54 61 63 62 64 55 39 30 32
43 72 99 100 82 94 63 88 77 66 75 67 66 58 60 52 60 48 41 46 47 43 30 26 22 20 18 16 15 15 16 22 18 20 36 40 32 40 63 71 63 46 32 24
35 32 72 90 53 37 50 60 53 46 50 66 72 67 60 51 50 54 56 50 41 40 45 47 43 34 29 28 27 24 20 17 17 18 31 52 80 69 69 77 76 54 51 44
19 25 36 37 33 29 32 36 38 34 28 27 27 28 29 28 27 26 30 37 42 48 53 53 54 51 58 54 45 48 46 47 42 34 29 33 43 61 66 70 80 70 60 62
8 10 18 19 20 21 22 22 20 21 23 26 28 26 25 25 27 30 35 36 36 38 40 42 47 59 64 68 70 61 64 60 57 64 63 58 61 52 50 35 47 78 67 65
28 22 15 8 5 6 5 5 4 5 6 6 6 6 8 12 20 26 30 32 31 31 31 34 42 46 48 60 66 59 61 64 66 67 68 70 69 72 74 80 57 78 92 79

GFSCGP_500_rhum_102.txt.gz
RH
9 39 44 65 68 69 95 97 93 62 85 75 86 94 98 96 91 53 13 14 14 17 18 16 15 14 14 17 26 30 39 53 38 16 15 16 13 25 32 24 14 11 11 12
8 29 63 81 93 76 68 96 98 94 97 88 87 90 97 98 96 64 18 75 16 13 16 15 16 15 14 15 19 27 44 49 54 41 28 24 14 16 16 24 14 11 10 10
8 27 66 78 96 94 88 78 90 97 82 95 97 95 96 96 97 96 37 20 16 21 14 14 14 16 16 14 15 18 40 51 50 60 45 48 23 45 39 28 20 16 13 10
8 20 58 71 90 83 98 94 80 85 96 95 97 96 96 98 97 97 82 20 100 49 17 15 14 14 16 15 14 16 24 50 43 60 73 68 65 68 54 39 38 25 18 17
9 13 48 74 77 96 95 75 93 93 96 96 96 100 97 95 96 90 92 36 16 58 15 16 15 15 14 17 16 16 16 24 30 32 62 59 70 76 48 40 71 43 28 12
12 13 25 68 94 95 96 95 82 86 94 94 94 93 88 91 94 95 97 73 93 68 40 98 16 14 15 16 16 17 19 22 22 21 34 68 68 69 58 78 74 60 35 14
20 12 49 49 78 82 97 95 94 84 93 91 93 95 98 77 86 88 95 90 63 49 37 52 97 26 12 14 17 16 17 20 19 19 16 29 61 68 82 82 75 42 44 33
34 22 14 16 16 85 98 87 93 82 86 82 87 97 97 67 52 68 90 95 97 96 94 79 60 90 44 14 48 19 40 14 18 16 17 19 22 46 61 80 89 87 82 80
83 71 61 32 15 34 98 68 90 84 97 98 96 95 71 68 57 56 77 96 96 93 85 69 92 93 80 76 45 32 29 18 18 13 14 17 23 22 41 60 66 75 75 68
97 84 66 76 42 22 79 97 61 78 92 96 96 90 97 78 74 79 79 67 81 95 96 94 96 92 94 66 97 71 80 38 49 30 24 18 25 34 29 34 45 64 81 92
88 97 78 83 66 29 19 57 80 90 90 92 96 93 95 94 89 85 69 63 61 60 84 96 77 89 69 79 85 92 96 88 96 90 87 60 36 33 29 33 34 30 47 72
73 100 97 96 94 56 61 71 79 80 86 96 96 83 86 98 96 90 62 57 49 48 46 71 70 93 42 86 60 58 67 74 74 95 77 78 72 81 42 42 47 38 38 40
58 54 76 90 98 89 53 56 72 67 66 86 91 95 87 89 90 79 65 47 55 41 37 31 38 54 73 83 95 96 86 64 90 83 83 91 89 79 73 79 78 89 52 45
77 58 61 92 95 93 86 56 71 68 61 57 73 83 71 70 78 84 63 70 60 39 59 36 40 56 86 96 90 94 89 84 82 78 71 70 92 94 88 82 92 95 98 98
41 61 60 100 79 86 82 86 62 77 51 61 63 83 65 42 60 46 53 36 54 43 43 59 66 76 89 82 74 75 80 74 72 74 67 70 75 84 94 89 81 94 96 98
21 31 49 44 63 77 67 94 74 64 65 66 69 70 51 49 93 100 74 60 24 31 31 31 54 64 75 85 86 93 84 74 62 61 78 97 97 96 89 96 89 94 82 87
44 22 60 51 92 84 91 99 86 72 53 75 91 65 66 25 77 92 97 61 32 40 46 49 50 91 83 82 91 85 69 64 65 71 73 69 86 92 94 76 84 92 80 88
65 40 36 56 90 73 88 70 75 89 90 90 77 48 46 44 61 68 62 48 34 44 60 65 75 65 94 95 85 84 86 65 66 64 71 71 65 64 60 62 73 72 58 71
49 41 33 58 77 55 99 98 96 97 92 85 62 38 47 76 92 95 92 55 30 19 40 56 66 72 80 87 87 82 76 75 78 86 72 72 72 59 58 56 57 57 62 87
93 57 72 97 96 92 88 86 84 84 99 92 87 61 45 52 100 57 62 47 24 11 13 23 41 49 62 76 81 73 66 68 64 71 69 68 61 66 69 62 60 60 56 60
94 76 65 70 78 46 77 68 100 84 86 96 95 81 52 46 47 39 19 17 15 12 11 9 10 14 24 32 37 39 41 43 48 52 50 54 53 60 74 71 65 62 62 56
71 92 84 85 97 90 86 81 90 94 100 97 84 67 57 45 38 31 26 21 26 30 23 18 16 16 15 14 13 13 16 19 24 28 35 38 42 34 35 44 53 67 63 60
29 40 61 41 52 65 96 95 78 88 83 83 86 74 62 69 66 46 36 30 27 27 27 34 29 25 25 24 24 23 20 17 17 16 14 16 20 38 56 43 31 46 59 70
19 27 32 29 29 39 50 43 45 44 41 48 44 42 46 47 54 56 53 49 40 35 35 37 38 40 39 43 44 40 35 31 29 28 26 23 20 18 22 42 64 65 63 68
6 18 22 28 34 38 31 25 24 26 35 40 35 28 23 21 20 21 24 25 26 28 30 34 41 45 50 50 46 40 38 42 44 47 47 42 38 39 52 42 36 50 64 66
9 6 6 8 9 12 13 17 20 21 20 19 19 19 20 21 19 19 20 22 23 26 22 25 28 30 33 36 42 49 56 62 63 66 67 70 67 59 51 59 63 48 84 59

GFSCGP_500_rhum_105.txt.gz
RH
6 5 11 42 65 65 59 81 100 92 98 97 99 100 85 87 76 39 11 10 12 17 16 14 15 14 17 21 29 36 43 23 16 16 16 22 27 22 14 12 14 12 12 13
7 5 19 60 92 93 61 86 99 87 83 99 97 98 89 97 98 96 81 29 19 12 13 12 17 14 15 19 25 36 48 58 28 22 18 18 19 23 27 21 14 12 12 10
8 10 33 68 88 96 76 76 82 93 93 100 97 98 94 94 97 100 93 62 9 10 13 12 16 18 14 16 20 32 52 52 50 44 40 22 25 18 38 27 15 12 11 12
9 14 26 67 80 94 97 99 88 84 80 95 96 97 95 98 98 91 100 85 44 12 12 12 13 18 18 16 15 18 39 52 61 56 82 68 72 54 67 43 34 21 17 11
12 13 28 64 81 78 93 96 90 77 81 87 97 97 97 98 97 90 100 91 69 11 13 12 12 15 17 19 16 14 19 50 34 50 75 73 73 78 49 48 54 42 22 18
15 14 63 78 85 95 82 98 98 97 74 88 95 97 97 99 96 93 92 92 77 30 41 13 12 14 14 18 20 19 17 21 35 33 52 69 78 72 64 69 76 42 36 14
21 12 38 80 82 98 75 96 95 98 89 78 96 90 97 92 92 89 92 83 61 50 60 81 11 13 16 16 17 20 21 24 26 27 21 57 66 76 92 69 75 55 43 50
37 26 17 56 70 88 58 78 94 96 90 85 90 85 97 86 68 53 71 79 90 31 26 46 60 19 16 15 15 17 17 17 22 20 20 18 28 60 72 89 93 85 54 86
80 86 73 47 43 34 64 64 71 79 78 92 96 97 96 76 63 51 83 87 89 82 92 90 69 72 41 24 24 13 16 21 15 21 18 20 20 23 46 61 84 96 93 87
78 74 84 68 70 37 88 78 69 81 54 83 94 97 94 80 78 72 63 71 96 95 62 41 96 89 68 97 69 90 72 46 18 23 16 18 19 24 26 32 68 74 79 93
86 70 89 75 85 54 81 37 88 86 57 92 88 94 97 94 76 95 77 72 65 93 96 85 65 73 97 96 96 74 86 90 54 58 52 85 42 31 31 34 34 43 80 90
70 80 83 84 90 82 58 42 71 77 60 81 94 92 95 90 90 68 79 84 71 81 96 88 93 89 88 98 100 92 92 95 94 94 96 98 91 89 67 38 34 41 39 41
59 73 83 94 95 98 78 47 34 46 43 70 99 87 99 90 83 72 65 71 76 80 94 91 89 89 94 89 90 89 87 97 94 90 94 96 98 94 88 83 58 49 58 43
92 78 85 93 90 77 85 81 54 39 20 30 91 92 82 78 72 70 81 76 71 65 80 94 96 79 89 77 70 76 84 90 73 63 71 73 76 73 76 81 78 82 87 86
79 90 83 96 77 97 84 84 76 64 24 50 60 66 64 55 50 55 86 93 90 88 74 66 83 83 72 93 97 92 92 76 72 71 66 65 69 65 78 78 79 77 87 94
56 77 88 70 69 66 85 98 79 72 28 72 62 72 63 69 52 66 77 67 64 75 76 70 82 96 97 91 88 86 88 84 81 74 68 59 61 64 74 85 76 87 82 85
31 30 65 67 59 59 98 86 96 85 69 81 87 72 68 51 31 52 94 80 59 64 69 77 82 87 96 96 94 92 98 88 75 71 64 69 66 68 86 95 97 92 90 90
50 28 16 23 58 79 81 86 96 84 71 67 56 40 39 40 40 34 62 68 69 42 27 26 36 59 66 74 87 97 96 92 78 74 65 58 55 61 63 58 61 74 78 74
50 49 50 28 33 58 72 90 83 76 69 53 45 32 39 48 41 37 51 63 62 56 50 32 29 32 56 54 81 98 99 92 91 86 74 72 80 64 61 56 55 56 58 65
52 54 55 45 100 57 89 82 96 76 72 64 84 92 56 60 20 42 59 60 73 71 65 53 44 42 47 52 42 54 81 81 79 80 83 80 74 73 72 64 60 54 58 57
92 80 73 54 80 87 98 74 67 94 86 73 79 71 82 97 96 74 84 79 69 50 43 32 19 12 17 35 53 53 50 48 55 61 54 52 54 53 53 51 53 58 61 57
74 97 99 51 61 74 92 85 95 99 99 96 69 68 90 82 92 87 91 94 78 60 30 22 15 12 10 11 14 18 26 31 34 35 33 36 35 33 34 43 44 42 56 43
46 98 67 57 90 95 93 93 92 85 78 73 85 75 96 95 94 87 66 49 43 34 26 21 23 22 16 15 14 14 13 15 16 20 16 18 14 14 18 19 26 22 22 22
19 24 25 29 36 37 44 81 66 67 44 82 86 82 83 82 87 55 50 53 49 36 34 29 26 26 25 25 24 21 19 19 19 20 19 17 17 17 17 17 17 18 26 25
5 10 22 22 21 26 49 44 35 29 23 21 31 36 50 46 35 33 32 36 44 45 45 44 42 38 35 32 32 39 44 43 40 35 32 30 27 25 24 22 21 22 22 20
9 11 9 7 10 13 15 18 18 18 16 14 17 18 23 24 25 21 17 15 16 17 20 23 26 30 32 34 38 41 41 39 41 44 44 40 37 35 32 32 32 29 26 28

GFSCGP_500_rhum_108.txt.gz
RH
16 8 5 16 39 62 60 79 85 98 98 97 96 97 95 91 95 55 19 10 14 16 24 20 17 20 25 28 30 31 19 26 24 25 40 27 17 13 14 12 10 9 13 29
20 11 8 28 62 64 57 67 87 93 97 97 96 97 94 94 97 83 68 18 10 13 15 19 17 16 21 30 33 45 42 21 18 18 18 27 32 28 21 34 16 14 11 32
25 12 12 30 69 58 71 94 96 96 91 87 96 97 92 98 100 93 98 90 74 17 15 19 14 15 18 22 28 43 54 48 34 27 20 16 18 20 34 15 12 12 15 25
26 14 13 34 66 83 86 93 96 96 82 81 86 96 97 99 100 95 95 97 90 37 15 18 17 14 15 18 23 40 50 57 61 44 38 32 38 35 47 41 28 17 16 21
21 15 51 55 82 97 91 89 95 95 91 78 62 89 96 97 84 78 97 93 91 80 17 16 20 15 14 16 16 24 49 44 66 62 93 88 74 63 50 45 36 27 20 16
23 18 22 67 80 86 84 88 92 100 87 77 66 78 91 88 97 99 98 81 83 96 82 16 16 18 13 14 13 15 24 51 36 58 81 82 81 72 69 49 73 36 23 15
24 14 68 78 78 83 77 78 84 97 93 84 87 81 96 96 87 98 98 96 95 96 97 36 15 17 14 15 14 16 17 23 34 38 44 84 77 81 77 74 73 54 46 20
33 24 79 81 80 81 72 92 89 93 92 97 97 88 95 97 97 96 88 90 90 75 96 46 24 17 16 14 16 16 19 20 25 25 24 34 67 69 83 80 68 63 46 57
51 34 81 86 82 71 66 75 92 80 80 79 98 87 81 96 92 68 58 70 73 89 99 82 51 30 17 15 15 15 16 18 20 19 22 19 20 34 59 70 82 88 80 89
62 49 60 71 68 66 51 51 54 64 62 52 83 95 90 94 83 65 70 74 72 95 100 64 40 84 73 29 17 18 19 16 18 18 16 18 20 19 20 29 53 75 95 91
91 48 71 65 50 35 46 33 33 53 47 41 76 86 95 94 71 74 78 71 80 97 98 51 54 50 68 79 29 46 40 36 36 19 18 15 16 16 18 28 30 45 68 72
99 65 98 90 98 44 66 58 99 75 88 90 88 70 95 91 75 82 89 80 83 96 97 98 72 88 88 98 79 98 84 77 59 36 40 76 92 73 56 31 33 32 33 46
64 68 97 93 97 93 87 84 96 89 93 91 83 71 58 70 66 69 78 84 87 95 97 96 89 85 93 90 97 96 95 99 97 96 97 96 97 85 88 80 66 64 50 44
79 64 92 97 92 75 78 75 88 92 81 84 89 68 56 53 57 62 83 77 97 96 96 97 96 94 92 90 96 97 97 96 96 96 97 96 96 93 86 82 90 95 88 71
99 92 90 85 86 73 72 68 62 71 38 34 56 44 20 49 35 43 44 47 83 96 96 96 96 96 94 91 86 92 94 96 95 96 95 88 74 78 74 85 84 96 95 93
90 97 84 100 91 89 87 70 61 68 38 13 13 17 4 20 12 12 16 61 83 75 88 92 95 97 97 80 84 97 97 93 94 94 96 91 62 57 61 76 81 87 96 96
58 70 94 72 96 99 94 94 60 56 34 22 10 17 8 15 28 29 44 33 80 96 94 90 79 83 87 97 96 97 94 95 97 94 92 69 66 68 80 84 88 94 94 92
36 52 53 77 77 97 95 93 77 59 44 30 22 21 26 32 30 36 52 50 34 58 75 88 90 93 92 95 95 94 97 88 95 95 82 69 65 62 61 66 67 74 83 96
24 36 26 32 60 59 64 66 74 74 60 54 43 36 41 49 41 44 24 50 65 37 50 65 73 90 83 96 95 88 94 96 88 90 80 71 68 65 64 68 62 62 70 70
33 28 27 25 32 59 66 63 88 95 80 63 57 39 36 38 29 44 57 87 92 100 71 60 63 63 70 72 89 88 86 78 90 90 81 85 87 78 79 77 70 61 63 65
53 52 39 41 43 28 37 77 72 86 88 76 59 51 59 91 81 61 62 78 96 94 88 77 65 54 51 46 48 57 66 63 60 61 79 81 86 90 83 76 74 73 66 65
94 80 79 52 45 46 35 60 68 67 92 94 72 75 70 76 96 93 84 83 91 90 99 90 63 49 35 31 22 31 34 39 51 61 55 50 43 43 46 44 40 42 44 38
77 66 90 93 90 60 67 70 59 93 95 93 94 100 98 90 99 96 95 95 95 95 92 83 66 56 44 27 16 13 14 17 22 24 21 17 17 22 31 32 30 20 25 26
20 16 19 36 79 75 75 76 94 88 72 64 88 78 85 99 97 89 90 76 76 80 83 86 69 49 41 30 21 19 16 16 16 15 14 14 16 18 16 16 13 13 13 15
5 6 12 21 26 38 48 41 51 49 41 45 54 57 55 35 85 92 51 44 44 44 46 45 44 45 36 32 28 27 27 28 28 26 25 28 24 24 23 23 22 18 18 19
10 10 8 7 14 19 20 27 40 38 32 28 23 18 15 17 20 32 49 40 27 26 26 27 30 40 46 46 42 42 40 37 36 37 37 40 48 52 51 48 47 46 37 33

GFSCGP_500_rhum_111.txt.gz
RH
21 20 15 10 6 26 32 46 77 99 84 96 97 97 96 87 94 86 23 26 17 29 24 14 18 23 22 24 21 24 26 24 43 39 28 13 11 13 19 28 27 46 15 21
25 25 18 10 7 29 30 69 73 93 94 97 97 97 97 97 95 86 58 21 13 20 20 13 16 19 25 31 33 24 24 27 31 38 25 16 11 26 30 22 14 41 48 43
30 28 20 12 10 23 23 50 64 82 95 93 92 97 97 98 98 99 86 51 16 18 21 18 15 16 19 29 37 48 23 20 19 19 30 32 28 23 20 22 20 12 19 41
34 34 21 13 15 30 32 74 72 95 93 95 82 86 97 97 95 92 100 100 88 88 30 20 15 17 16 21 32 48 55 36 32 28 18 19 18 39 28 42 18 20 23 42
36 35 20 14 24 59 46 90 98 86 87 92 78 78 94 97 99 88 100 98 93 100 24 24 18 17 16 18 23 39 50 53 50 46 28 42 35 60 40 36 28 18 15 19
40 28 18 23 61 59 69 79 96 80 82 80 66 59 67 89 82 98 98 96 100 87 72 22 17 15 16 16 18 24 44 45 62 59 86 79 98 62 52 46 38 31 23 15
39 20 31 48 83 64 58 80 79 69 90 84 76 54 63 58 81 90 96 90 100 94 100 40 16 19 16 18 17 16 16 41 37 42 75 77 84 82 67 65 70 37 30 15
36 34 72 86 87 79 80 60 58 68 93 88 96 81 84 74 77 92 91 100 97 90 98 85 27 19 15 16 18 16 14 15 29 35 32 65 79 86 87 78 74 70 60 45
55 77 66 80 89 78 85 69 83 70 80 76 77 99 84 74 91 96 97 98 91 80 100 99 94 17 14 15 17 19 17 16 17 25 26 23 50 62 70 79 83 76 85 56
59 72 70 79 78 69 74 97 89 82 73 72 66 93 99 88 84 98 96 98 95 99 99 95 85 45 20 17 16 17 19 18 17 18 21 22 18 21 30 41 61 88 92 86
76 54 73 80 66 70 46 59 67 66 51 54 49 71 90 94 88 96 95 91 74 83 86 83 98 90 66 28 16 17 19 17 16 18 16 17 17 16 18 21 22 36 58 81
82 64 73 80 86 70 60 68 73 53 37 34 40 48 73 89 87 81 83 92 78 74 79 99 100 94 99 91 35 22 26 27 23 15 17 15 19 15 15 16 20 29 33 47
75 80 70 74 75 66 88 77 38 48 49 31 28 31 48 57 72 79 89 93 88 75 79 87 99 98 58 87 61 36 34 73 78 48 70 54 50 84 96 52 39 31 33 29
100 84 97 88 83 67 80 83 59 68 72 42 9 38 32 77 54 60 63 66 95 92 97 99 98 80 74 70 74 81 81 94 88 90 89 87 91 97 98 96 93 78 78 77
90 78 89 96 96 90 80 76 72 50 71 16 28 36 54 45 70 70 58 51 78 95 97 96 97 92 83 82 94 98 92 95 94 96 97 97 97 97 95 95 98 97 97 94
51 93 54 81 98 96 96 56 49 39 68 42 35 38 58 29 38 62 55 35 47 56 56 92 96 97 96 90 96 93 83 98 98 98 100 98 96 96 96 96 96 99 99 99
74 59 94 86 80 97 71 68 52 45 40 43 23 18 35 44 34 31 54 48 47 50 48 49 39 54 85 95 97 97 97 97 97 97 96 96 97 95 88 96 97 99 99 99
93 67 67 77 88 81 96 61 58 56 47 44 33 19 27 40 63 48 45 50 64 66 68 68 64 89 74 88 96 97 97 96 96 95 96 96 95 95 96 98 100 100 100 96
40 49 63 52 85 66 97 80 69 80 50 44 45 34 34 50 53 51 50 46 50 62 64 46 62 70 80 89 96 96 97 97 96 96 96 92 83 76 82 90 87 76 85 84
55 37 39 54 52 58 66 92 83 88 72 58 58 60 47 61 86 88 67 49 42 42 49 57 66 65 77 76 96 96 96 96 96 95 89 84 83 82 86 68 72 79 88 67
56 34 38 40 34 41 46 56 48 61 70 76 77 69 62 55 74 70 70 62 55 50 61 53 72 80 83 97 94 91 90 92 95 95 92 96 94 95 95 93 86 95 95 83
86 57 66 64 33 31 31 44 51 54 60 75 98 80 78 83 85 74 80 61 64 65 60 74 79 79 82 87 88 94 88 90 90 96 96 96 94 93 86 89 84 80 79 72
85 46 80 95 71 46 41 35 34 35 71 80 94 94 75 81 81 67 65 78 97 97 87 95 83 87 72 61 49 39 32 35 52 56 82 91 91 90 63 47 40 37 37 34
28 17 38 51 69 62 59 70 54 40 29 57 72 78 93 96 79 92 98 94 90 96 95 90 96 82 77 64 56 48 44 39 26 19 16 22 34 32 27 19 18 18 18 19
5 8 17 20 52 88 83 88 69 59 78 58 54 78 74 99 97 88 78 67 68 56 72 76 69 81 75 64 55 51 47 39 30 28 27 26 24 23 20 17 16 14 13 15
12 10 8 13 27 40 44 31 24 32 42 40 46 66 74 74 49 36 34 26 41 43 36 42 44 52 69 72 73 62 51 44 38 31 31 31 32 33 35 35 36 32 31 30

GFSCGP_500_rhum_114.txt.gz
RH
6 9 17 20 17 13 6 4 8 16 78 98 74 97 96 90 86 63 53 22 32 36 38 21 24 20 26 21 23 20 21 26 29 12 14 20 16 28 21 46 27 26 36 48
13 17 23 23 21 14 10 5 6 16 54 79 86 97 98 95 77 58 47 28 27 31 36 21 23 21 23 23 18 21 20 36 38 23 13 13 14 20 30 42 43 52 33 19
19 29 31 28 24 17 11 8 8 15 38 77 80 93 97 95 76 75 75 39 16 22 27 26 19 23 29 30 24 19 21 24 34 29 25 16 30 38 25 17 30 44 50 23
18 28 33 30 27 19 13 11 25 18 32 61 74 78 95 98 93 95 100 71 22 20 21 17 16 17 26 36 44 34 23 16 17 23 33 32 31 19 23 22 15 22 51 46
16 24 32 33 26 19 15 13 20 50 39 64 73 65 72 93 96 92 95 87 25 24 20 23 19 16 18 27 42 50 44 34 31 21 17 19 25 35 34 25 17 20 30 44
14 26 34 35 24 19 18 16 27 87 67 62 72 72 69 66 97 98 94 90 94 90 64 22 17 14 15 19 26 42 49 51 54 46 27 43 38 64 39 39 28 16 16 20
30 37 37 30 21 20 18 17 33 58 60 71 66 71 74 57 87 95 96 96 96 97 72 18 18 18 16 18 20 25 48 49 59 56 71 74 81 59 54 46 42 44 25 17
42 39 29 25 47 74 69 46 55 67 61 61 82 82 88 88 55 91 65 68 92 97 95 48 46 17 18 18 19 18 19 35 50 37 53 71 73 63 66 74 72 47 42 26
44 37 49 80 98 93 81 47 71 70 39 74 79 78 92 95 84 67 50 59 70 92 94 98 78 28 16 19 19 18 19 18 29 37 33 41 66 64 70 78 73 75 59 52
54 40 47 90 93 84 70 85 83 83 63 62 68 75 83 83 84 76 50 66 87 93 96 93 95 86 15 18 20 16 20 19 17 18 29 26 23 44 63 63 73 77 85 97
57 67 64 73 84 85 78 59 91 90 73 70 64 72 61 90 85 86 100 97 100 96 94 89 98 96 90 25 18 17 17 20 22 22 21 25 23 19 19 32 40 59 80 89
64 75 79 84 84 90 88 71 72 71 70 56 57 72 74 55 86 79 85 96 97 96 100 90 98 96 96 74 19 17 17 17 18 21 21 19 21 21 19 16 21 45 50 41
68 79 86 94 77 74 79 57 52 56 48 39 51 89 98 77 82 95 89 91 93 99 93 87 97 90 97 95 39 18 18 16 15 16 19 21 19 18 18 16 16 23 46 29
78 73 90 97 85 93 75 64 47 42 29 46 71 93 98 86 75 90 85 71 79 95 90 80 88 99 94 97 87 40 22 22 20 14 32 45 58 23 27 32 55 48 48 53
15 72 86 97 98 81 97 72 50 32 28 82 99 86 82 98 69 62 65 63 63 94 96 97 96 97 97 96 71 48 72 70 70 65 84 92 97 90 61 86 98 96 79 85
53 53 74 98 83 85 77 59 50 46 26 68 92 93 80 80 92 78 63 58 53 53 61 95 97 96 95 96 84 68 83 97 86 86 92 93 97 96 96 92 97 96 97 94
90 90 74 83 93 90 59 90 60 54 46 42 82 94 91 77 68 55 59 53 46 49 59 74 71 91 96 96 94 95 96 96 98 96 95 97 96 97 97 96 96 96 98 97
82 97 93 76 98 92 94 93 72 59 45 51 59 84 96 91 74 67 58 41 48 82 78 76 81 67 71 74 95 94 96 97 97 96 94 98 98 99 99 97 98 96 95 96
32 74 82 88 90 80 84 92 88 64 59 55 60 63 88 88 69 62 76 51 60 61 96 92 88 91 83 79 76 90 95 97 96 97 97 96 97 97 97 96 94 94 93 93
43 65 44 69 86 72 57 52 74 68 64 76 78 71 70 64 70 62 54 60 68 87 89 68 70 69 63 67 92 95 96 96 94 95 95 96 96 96 96 96 96 96 95 92
36 58 52 30 48 58 60 78 78 95 84 95 93 91 81 78 87 83 83 94 83 72 65 59 48 58 64 76 84 88 95 95 97 97 96 98 97 96 96 96 96 96 95 83
74 51 39 38 38 43 46 46 68 89 91 94 87 74 75 87 78 72 75 94 91 66 57 53 42 40 65 62 67 83 88 85 85 85 93 96 96 97 96 96 92 96 96 96
76 40 37 68 71 47 34 34 36 74 92 75 71 65 61 90 96 85 89 70 74 76 75 92 72 66 40 67 75 81 88 86 78 78 94 96 96 96 94 94 95 95 90 62
31 18 23 44 69 78 55 51 43 52 44 49 51 63 66 77 94 100 83 82 68 75 92 68 90 98 85 87 82 80 73 64 39 42 55 76 92 85 68 55 57 50 59 61
6 10 14 19 37 84 82 85 78 70 46 30 28 34 64 67 78 77 88 87 91 77 60 60 52 51 72 76 90 86 65 61 56 48 41 40 36 30 22 22 25 21 20 19
8 6 7 19 35 64 84 92 92 68 67 98 97 87 59 60 67 71 85 83 61 47 46 44 40 51 63 82 90 93 88 76 66 56 53 50 47 44 39 31 28 27 25 24

GFSCGP_500_rhum_117.txt.gz
RH
4 6 8 8 10 11 12 9 6 4 6 22 87 94 97 92 94 78 53 19 18 25 18 22 22 29 20 18 18 14 13 15 17 13 16 22 29 38 38 34 65 60 42 38
6 7 8 8 13 17 18 16 12 7 5 8 50 83 94 90 96 75 81 96 55 18 22 19 27 24 19 19 16 18 22 18 11 18 14 22 27 47 29 30 33 46 42 39
7 9 9 8 10 18 20 18 16 12 9 8 13 40 70 92 90 89 75 67 29 20 23 20 25 27 25 17 16 17 33 34 16 12 11 19 25 41 51 46 50 16 19 32
6 8 12 12 14 18 25 21 19 15 13 10 23 34 65 85 94 90 74 45 22 21 19 14 19 28 23 26 18 20 21 26 27 17 10 33 36 26 29 41 52 46 19 10
7 9 12 15 22 27 27 25 21 18 18 22 19 31 49 58 83 95 72 56 29 21 17 18 17 22 30 34 33 21 17 15 15 20 24 32 30 26 21 24 29 46 44 34
9 10 11 16 25 32 31 26 32 49 49 39 48 37 43 46 62 98 88 86 82 64 13 16 19 16 25 34 45 52 31 26 26 20 17 19 35 36 33 31 19 21 44 41
12 12 13 18 30 34 32 23 28 42 44 57 68 60 55 42 38 79 96 97 90 29 11 13 14 14 18 23 36 52 54 49 43 43 24 40 31 46 41 43 40 27 26 29
15 17 16 25 33 32 27 22 23 33 38 50 41 69 73 61 42 32 75 96 98 45 42 24 22 18 15 17 21 37 54 54 61 53 60 70 64 59 46 49 45 52 23 20
19 22 26 35 33 32 42 35 48 41 39 51 51 84 83 87 73 60 64 98 95 91 86 80 17 16 14 15 18 20 27 47 54 51 56 80 74 70 62 62 64 54 36 34
26 35 37 36 36 48 41 57 67 60 65 52 58 99 90 90 92 97 76 94 95 90 86 81 60 45 30 16 16 16 16 17 19 43 40 49 70 69 73 78 78 75 62 50
29 43 48 39 64 87 90 68 69 74 66 76 71 99 96 81 99 95 90 53 88 85 99 90 82 89 81 39 17 14 16 14 16 19 25 34 35 34 56 69 66 77 78 85
51 45 63 57 57 86 91 90 77 72 95 78 80 97 95 91 86 94 97 100 78 79 98 98 98 96 98 96 32 17 15 16 14 16 17 19 22 27 26 21 31 34 48 64
28 59 56 83 83 72 80 85 80 71 78 87 73 95 96 96 94 95 94 92 97 99 98 95 96 99 98 97 85 66 17 16 14 14 17 19 19 22 22 21 18 17 19 37
8 18 56 79 99 96 77 80 75 78 70 61 60 82 97 96 95 91 92 78 84 89 95 96 97 98 99 97 98 87 60 16 14 14 16 15 16 16 16 19 17 17 17 15
12 13 11 72 89 97 83 86 66 63 61 55 47 53 99 96 96 92 92 71 78 90 95 94 96 96 100 97 97 96 74 50 16 15 16 16 22 30 34 43 25 22 32 40
13 20 33 28 82 91 75 92 92 70 69 60 43 46 96 96 96 94 86 73 67 76 90 97 95 93 85 96 97 95 89 67 82 32 29 34 39 90 94 95 97 91 62 76
15 24 72 68 48 72 91 83 93 89 81 70 58 55 96 89 96 93 92 83 74 61 85 92 84 97 96 96 97 98 96 77 69 72 84 86 97 98 95 90 96 95 94 98
16 26 78 75 90 52 69 93 89 97 100 82 62 55 76 89 87 82 86 83 72 60 51 88 86 96 96 97 97 97 97 97 96 90 97 98 98 96 96 97 97 92 94 96
20 23 59 97 98 80 50 95 82 97 97 96 81 77 55 76 90 84 76 73 72 50 61 94 96 96 96 94 92 92 97 97 97 93 92 90 97 95 96 98 98 94 98 96
22 31 60 70 78 69 71 84 91 80 90 100 90 87 89 95 83 95 79 80 89 81 67 84 95 92 94 90 93 96 96 96 97 96 97 94 96 97 97 98 98 96 97 97
54 53 61 56 42 56 92 89 69 69 81 96 100 97 94 97 94 75 73 80 93 81 63 52 72 72 56 64 82 86 82 96 94 94 96 95 97 96 97 97 97 96 97 96
52 66 56 42 32 27 44 64 60 60 66 86 97 96 84 88 94 95 90 83 84 96 83 90 81 63 53 47 59 60 73 86 88 89 96 96 96 97 98 97 97 97 96 96
82 56 48 58 69 52 37 40 41 51 71 67 97 92 91 95 97 97 96 85 65 61 69 66 65 57 53 46 45 52 64 64 73 85 95 91 95 94 97 97 96 96 96 96
61 35 16 24 44 75 60 42 34 47 60 66 84 87 87 86 92 80 68 83 74 75 61 65 76 70 66 68 50 48 57 69 77 83 78 69 60 71 95 95 96 96 95 95
15 9 13 18 24 62 82 86 60 55 59 60 60 56 61 60 53 51 53 72 84 76 60 61 60 66 55 61 70 74 67 65 81 82 71 61 58 50 59 96 96 93 95 85
5 6 7 17 24 71 76 76 88 82 89 66 45 34 30 29 38 40 51 54 71 63 64 60 49 40 39 44 57 45 54 77 81 78 72 58 59 63 53 50 52 57 53 52

GFSCGP_500_rhum_120.txt.gz
RH
5 6 6 5 7 7 9 10 8 7 9 12 8 67 93 99 85 60 37 38 21 17 15 19 22 21 22 20 11 14 10 20 27 17 25 41 49 55 58 61 55 54 43 37
5 5 4 4 5 9 9 10 9 11 10 10 6 13 83 97 97 99 71 37 22 21 14 17 19 24 24 22 16 11 14 13 19 25 28 40 31 38 60 63 46 40 40 36
5 4 4 4 6 8 10 9 7 8 14 39 17 6 16 69 80 87 88 58 42 25 21 13 19 22 25 24 19 14 14 23 14 24 31 38 50 33 33 40 40 34 32 26
4 4 5 6 7 10 14 15 12 12 44 39 30 23 10 12 41 68 89 72 63 94 31 15 14 21 24 22 20 19 32 32 35 10 30 48 53 45 47 24 25 32 34 33
4 4 4 5 6 9 16 20 20 16 18 48 47 35 17 17 35 67 83 92 84 95 25 23 13 19 26 24 18 17 28 33 22 12 24 40 30 39 51 52 39 27 26 16
3 4 5 7 8 10 15 24 27 24 23 41 65 44 26 19 24 46 49 74 87 89 17 19 22 14 23 30 26 20 19 31 22 26 40 32 20 37 33 31 46 53 34 16
6 8 9 11 12 14 20 29 44 32 42 52 62 56 64 70 40 22 32 100 89 45 23 17 18 15 18 28 36 34 21 17 18 23 35 37 34 37 42 36 29 42 40 39
8 16 10 12 14 20 28 40 89 96 81 95 68 48 96 91 74 42 40 92 77 58 66 52 16 19 15 20 31 42 43 32 33 36 35 49 51 58 50 42 47 41 39 34
11 20 13 15 19 24 54 30 50 98 94 95 95 49 95 94 92 69 33 60 90 98 88 54 17 19 16 16 20 31 40 41 49 48 44 49 63 59 53 54 65 58 52 45
11 24 18 21 24 30 33 90 62 40 83 99 93 79 95 96 97 94 62 71 72 83 96 38 18 25 20 16 17 19 27 38 37 48 55 68 75 70 72 67 78 57 50 57
10 20 96 33 35 86 58 34 48 98 100 97 96 98 85 89 94 97 96 81 95 93 97 70 83 88 58 16 14 17 20 20 26 38 43 40 63 70 73 72 75 79 81 65
4 22 88 100 93 41 49 100 100 100 84 100 88 93 74 81 90 96 99 96 79 96 97 98 96 81 26 17 15 15 15 16 15 14 17 30 34 36 35 53 72 77 76 79
4 11 43 87 96 45 44 87 64 90 96 93 99 81 65 94 95 91 96 96 99 82 93 96 97 91 47 77 37 21 16 14 14 14 14 14 16 21 22 22 28 31 43 33
5 6 7 66 99 90 98 58 52 69 100 100 94 87 95 93 95 91 94 92 97 99 99 95 90 98 89 92 83 69 49 21 15 14 14 14 15 16 16 16 16 18 19 19
8 8 9 12 32 72 98 94 65 73 80 86 96 90 73 71 95 95 98 95 94 96 98 97 95 97 97 98 88 94 83 54 48 22 14 16 15 17 21 32 31 19 18 17
10 12 11 12 28 12 66 78 95 72 75 72 77 66 43 61 93 96 100 91 92 95 95 99 96 97 99 98 98 92 91 93 88 78 44 17 28 32 34 34 59 64 62 56
10 13 14 87 98 99 100 94 96 88 80 68 74 58 46 63 77 96 91 87 89 96 92 96 90 96 97 97 95 98 96 91 89 72 57 56 57 40 45 52 89 86 88 96
14 14 15 60 52 97 96 93 67 74 84 95 76 63 59 72 80 89 77 86 88 87 83 66 89 75 94 96 97 98 96 92 85 83 84 92 63 67 94 75 97 95 99 94
10 32 44 47 92 88 95 76 41 50 70 79 73 61 52 67 85 94 88 92 83 74 88 93 96 95 96 98 97 97 97 97 97 97 100 81 79 68 97 95 98 97 96 90
18 16 24 76 99 94 96 88 53 71 80 93 93 99 80 65 65 75 93 96 92 85 95 95 92 97 96 96 96 96 97 97 97 97 96 97 96 97 95 97 97 97 98 98
29 33 44 83 83 76 56 75 77 68 89 87 91 89 81 71 69 76 88 94 89 92 94 88 90 92 94 93 95 95 96 95 96 97 97 97 96 96 98 97 92 97 98 97
27 47 74 54 77 72 30 49 77 81 76 74 76 73 76 87 63 80 95 95 92 89 90 90 84 78 72 75 72 90 94 90 95 95 95 94 97 97 96 97 96 97 97 97
46 67 73 39 66 71 56 43 58 67 70 79 72 85 88 91 85 90 95 97 98 92 92 94 95 91 63 66 56 53 61 76 92 75 79 95 96 96 95 95 97 96 95 96
51 63 42 16 29 49 75 55 40 42 47 63 78 80 90 83 89 97 96 95 95 84 70 62 60 55 58 58 52 58 55 53 59 79 78 94 92 79 82 76 82 90 97 96
35 21 10 13 18 56 71 46 41 39 44 50 77 85 92 94 88 88 92 71 50 53 77 68 58 56 60 65 61 57 66 70 54 51 72 78 80 72 67 63 58 63 96 96
11 7 6 13 29 75 82 82 70 54 50 57 61 62 59 50 54 49 55 60 40 38 54 67 56 55 55 54 51 40 50 62 58 63 64 73 79 76 68 63 70 71 65 70

GFSCGP_500_rhum_126.txt.gz
RH
8 7 6 6 9 79 92 93 99 30 33 10 8 19 26 41 86 98 97 86 64 22 17 18 16 12 12 24 24 20 24 17 27 39 50 50 51 55 46 57 44 37 34 29
7 6 7 7 26 47 86 65 62 19 7 7 7 12 10 7 31 88 98 98 52 27 17 15 19 15 11 12 14 11 20 29 17 33 47 48 52 56 46 40 37 34 27 27
5 21 8 10 31 26 13 26 94 93 9 8 11 22 12 19 7 21 88 94 88 36 25 23 16 20 13 10 10 12 29 33 22 37 51 47 50 49 71 40 31 29 26 27
7 30 22 10 9 8 10 43 33 69 9 8 17 69 80 94 61 6 24 69 74 91 46 17 18 14 19 11 10 10 17 32 34 37 34 47 53 48 48 35 29 29 31 28
12 14 9 8 6 7 29 77 61 11 6 5 20 22 51 67 40 25 7 10 38 26 88 42 26 12 16 18 11 11 11 21 18 48 39 46 34 38 35 36 36 35 31 27
16 14 8 5 6 6 5 18 7 6 5 23 65 87 67 83 56 76 76 9 20 28 97 79 59 26 12 20 16 12 16 26 36 41 65 61 34 29 35 36 32 28 22 21
6 4 4 4 7 4 4 4 13 49 63 98 92 99 96 82 44 73 88 77 14 43 81 73 80 77 20 13 23 14 13 30 49 34 48 51 44 54 51 33 36 29 24 18
76 69 22 5 5 8 6 7 61 88 96 89 80 81 90 91 65 39 68 61 13 13 30 86 82 97 76 12 19 23 15 15 34 38 39 48 43 50 52 57 37 23 18 12
87 76 58 18 8 6 30 52 34 87 88 82 81 99 67 68 47 54 59 40 27 11 12 42 98 83 59 54 14 26 24 17 15 28 41 48 44 31 34 33 35 35 40 30
60 77 80 48 10 5 12 84 72 67 83 83 75 93 76 90 91 80 67 36 62 66 13 30 99 84 73 18 12 17 30 31 20 17 21 34 55 46 44 41 49 35 38 37
8 25 88 83 46 29 47 18 22 72 66 77 92 90 75 75 61 59 60 54 93 57 15 41 85 90 97 15 12 12 17 31 36 30 29 35 36 45 49 52 58 56 56 57
24 12 66 92 96 95 55 99 99 92 82 99 73 83 58 98 89 68 60 65 92 79 62 36 90 98 87 53 26 11 12 15 31 39 40 42 46 50 56 56 56 66 75 72
26 26 18 33 64 81 81 86 89 91 88 97 93 83 62 78 82 73 45 58 37 68 94 67 35 96 95 86 93 63 10 12 12 24 38 42 42 40 56 55 57 61 72 77
36 22 17 36 77 84 93 93 71 75 73 66 95 91 82 95 88 83 70 33 58 36 62 92 52 82 96 78 97 34 11 10 12 10 22 34 39 40 28 37 54 59 61 77
38 27 8 3 20 80 73 76 83 82 60 39 77 85 96 97 81 59 60 56 63 46 57 56 45 72 58 93 96 100 25 10 10 11 12 17 19 25 34 34 32 30 29 29
38 15 7 3 4 7 31 68 72 55 37 60 56 86 93 84 65 62 33 39 50 42 36 62 66 33 47 83 98 95 77 44 17 11 11 13 16 18 20 25 24 24 23 28
44 12 26 40 82 99 99 81 94 70 17 16 64 95 81 89 70 81 79 84 67 49 39 84 67 74 67 82 95 95 97 96 46 41 30 30 31 28 26 28 36 35 36 47
21 4 4 7 14 60 90 61 68 65 48 21 88 99 92 73 60 73 71 65 51 72 68 97 98 90 95 95 78 93 94 84 71 89 85 68 77 71 62 55 42 42 39 40
8 6 8 9 73 84 97 56 37 60 32 44 54 46 54 56 89 83 83 82 46 73 90 96 96 98 98 98 80 85 79 79 80 82 80 96 97 98 96 81 85 89 84 62
22 7 12 11 18 20 60 27 73 46 34 90 89 83 36 24 85 96 91 54 35 38 78 96 95 97 98 97 88 97 84 79 85 89 90 99 97 98 93 96 89 90 74 83
36 17 18 29 34 49 38 34 65 40 38 57 66 54 58 85 92 76 70 60 48 39 52 87 95 97 97 91 96 99 94 99 98 100 98 99 98 98 98 97 97 95 92 93
30 99 72 72 74 53 53 47 44 48 28 48 54 60 98 81 46 48 45 54 56 63 64 52 92 97 95 88 97 96 97 98 100 99 98 98 97 96 98 97 97 94 92 98
8 10 16 25 88 54 31 27 31 36 24 60 71 95 96 70 75 62 63 36 48 70 69 69 91 87 94 93 94 96 97 96 97 97 97 96 97 97 96 96 96 96 96 97
34 17 19 30 84 43 28 40 14 31 48 78 74 76 91 83 78 70 69 58 59 56 61 86 81 82 89 95 93 96 95 96 96 96 96 96 96 96 96 96 94 95 94 93
95 62 53 33 36 16 7 7 6 33 20 42 67 77 76 71 63 77 69 68 66 65 69 78 84 83 90 87 89 91 93 89 95 94 92 94 94 93 94 91 88 85 91 74
55 29 64 56 17 26 55 38 38 36 23 74 98 83 66 59 61 68 61 58 56 80 82 96 93 88 87 84 87 89 87 90 86 91 88 84 85 90 93 88 76 67 73 81